[[{"header":{"parameterUnit":"m.s-1","parameterCategory":1,"la1":31.0,"la2":29.5877,"lo1":-88.7671,"lo2":-86.6584,"dy":0.0162,"dx":0.0185,"nx":115,"ny":88,"refTime":"2024-04-19T06:00:00:Z","depth":0,"parameterNumber":2,"parameterNumberName":"U-component_of_WINDS"},"data":[0.0,0.0,0.0,0.0,0.0,0.0,0.0,0.0,0.0,0.0,0.0,0.0,0.0,0.0,0.0,0.0,0.0,0.0,0.0,0.0,0.0,0.0,0.0,0.0,0.0,0.0,0.0,0.0,0.0,0.0,0.0,0.0,0.0,0.0,0.0,0.0,0.0,0.0,0.0,0.0,0.0,0.0,0.0,0.0,0.0,0.0,0.0,0.0,0.0,0.0,0.0,0.0,0.0,0.0,0.0,0.0,0.0,0.0,0.0,0.0,0.0,0.0,0.0,0.0,0.0,0.0,0.0,0.0,0.0,0.0,0.0,0.0,0.0,0.0,0.0,0.0,0.0,0.0,0.0,0.0,0.0,0.0,0.0,0.0,0.0,0.0,0.0,0.0,0.0,0.0,0.0,0.0,0.0,0.0,0.0,0.0,0.0,0.0,0.0,0.0,0.0,0.0,0.0,0.0,0.0,0.0,0.0,0.0,0.0,0.0,0.0,0.0,0.0,0.0,0.0,0.0,0.0,0.0,0.0,0.0,0.0,0.0,0.0,0.0,0.0,0.0,0.0,0.0,0.0,0.0,0.0,0.0,0.0,0.0,0.0,0.0,0.0,0.0,0.0,0.0,0.0,0.0,0.0,0.0,0.0,0.0,0.0,0.0,0.0,0.0,0.0,0.0,0.0,0.0,0.0,0.0,0.0,0.0,0.0,0.0,0.0,0.0,0.0,0.0,0.0,0.0,0.0,0.0,0.0,0.0,0.0,0.0,0.0,0.0,0.0,0.0,0.0,0.0,0.0,0.0,0.0,0.0,0.0,0.0,0.0,0.0,0.0,0.0,0.0,0.0,0.0,0.0,0.0,0.0,0.0,0.0,0.0,0.0,0.0,0.0,0.0,0.0,0.0,0.0,0.0,0.0,0.0,0.0,0.0,0.0,0.0,0.0,0.0,0.0,0.0,0.0,0.0,0.0,0.0,0.0,0.0,0.0,0.0,0.0,0.0,0.0,0.0,0.0,0.0,0.0,0.0,0.0,0.0,0.0,0.0,0.0,0.0,0.0,0.0,0.0,0.0,0.0,0.0,0.0,0.0,0.0,0.0,0.0,0.0,0.0,0.0,0.0,0.0,0.0,0.0,0.0,0.0,0.0,0.0,0.0,0.0,0.0,0.0,0.0,0.0,0.0,0.0,0.0,0.0,0.0,0.0,0.0,0.0,0.0,0.0,0.0,0.0,0.0,0.0,0.0,0.0,0.0,0.0,0.0,0.0,0.0,0.0,0.0,0.0,0.0,0.0,0.0,0.0,0.0,0.0,0.0,0.0,0.0,0.0,0.0,0.0,0.0,0.0,0.0,0.0,0.0,0.0,0.0,0.0,0.0,0.0,0.0,0.0,0.0,0.0,0.0,0.0,0.0,0.0,0.0,0.0,0.0,0.0,0.0,0.0,0.0,0.0,0.0,0.0,0.0,0.0,0.0,0.0,0.0,0.0,0.0,0.0,0.0,0.0,0.0,0.0,0.0,0.0,0.0,0.0,0.0,0.0,0.0,0.0,0.0,0.0,0.0,0.0,0.0,0.0,0.0,0.0,0.0,0.0,0.0,0.0,0.0,0.0,0.0,0.0,0.0,0.0,0.0,0.0,0.0,0.0,0.0,0.0,0.0,0.0,0.0,0.0,0.0,0.0,0.0,0.0,0.0,0.0,0.0,0.0,0.0,0.0,0.0,0.0,0.0,0.0,0.0,0.0,0.0,0.0,0.0,0.0,0.0,0.0,0.0,0.0,0.0,0.0,0.0,0.0,0.0,0.0,0.0,0.0,0.0,0.0,0.0,0.0,0.0,0.0,0.0,0.0,0.0,0.0,0.0,0.0,0.0,0.0,0.0,0.0,0.0,0.0,0.0,0.0,0.0,0.0,0.0,0.0,0.0,0.0,0.0,0.0,0.0,0.0,0.0,0.0,0.0,0.0,0.0,0.0,0.0,0.0,0.0,0.0,0.0,0.0,0.0,0.0,0.0,0.0,0.0,0.0,0.0,0.0,0.0,0.0,0.0,0.0,0.0,0.0,0.0,0.0,0.0,0.0,0.0,0.0,0.0,0.0,0.0,0.0,0.0,0.0,0.0,0.0,0.0,0.0,0.0,0.0,0.0,0.0,0.0,0.0,0.0,0.0,0.0,0.0,0.0,0.0,0.0,0.0,0.0,0.0,0.0,0.0,0.0,0.0,0.0,0.0,0.0,0.0,0.0,0.0,0.0,0.0,0.0,0.0,0.0,0.0,0.0,0.0,0.0,0.0,0.0,0.0,0.0,0.0,0.0,0.0,0.0,0.0,0.0,0.0,0.0,0.0,0.0,0.0,0.0,0.0,0.0,0.0,0.0,0.0,0.0,0.0,0.0,0.0,0.0,0.0,0.0,0.0,0.0,0.0,0.0,0.0,0.0,0.0,0.0,0.0,0.0,0.0,0.0,0.0,0.0,0.0,0.0,0.0,0.0,0.0,0.0,0.0,0.0,0.0,0.0,0.0,0.0,0.0,0.0,0.0,0.0,0.0,0.0,0.0,0.0,0.0,0.0,0.0,0.0,0.0,0.0,0.0,0.0,0.0,0.0,0.0,0.0,0.0,0.0,0.0,0.0,0.0,0.0,0.0,0.0,0.0,0.0,0.0,0.0,0.0,0.0,0.0,0.0,0.0,0.0,0.0,0.0,0.0,0.0,0.0,0.0,0.0,0.0,0.0,0.0,0.0,0.0,0.0,0.0,0.0,0.0,0.0,0.0,0.0,0.0,0.0,0.0,0.0,0.0,0.0,0.0,0.0,0.0,0.0,0.0,0.0,0.0,0.0,0.0,0.0,0.0,0.0,0.0,0.0,0.0,0.0,0.0,0.0,0.0,0.0,0.0,0.0,0.0,0.0,0.0,0.0,0.0,0.0,0.0,0.0,0.0,0.0,0.0,0.0,0.0,0.0,0.0,0.0,0.0,0.0,0.0,0.0,0.0,0.0,0.0,0.0,0.0,0.0,0.0,0.0,0.0,0.0,0.0,0.0,0.0,0.0,0.0,0.0,0.0,0.0,0.0,0.0,0.0,0.0,0.0,0.0,0.0,0.0,0.0,0.0,0.0,0.0,0.0,0.0,0.0,0.0,0.0,0.0,0.0,0.0,0.0,0.0,0.0,0.0,0.0,0.0,0.0,0.0,0.0,0.0,0.0,0.0,0.0,0.0,0.0,0.0,0.0,0.0,0.0,0.0,0.0,0.0,0.0,0.0,0.0,0.0,0.0,0.0,0.0,0.0,0.0,0.0,0.0,0.0,0.0,0.0,0.0,0.0,0.0,0.0,0.0,0.0,0.0,0.0,0.0,0.0,0.0,0.0,0.0,0.0,0.0,0.0,0.0,0.0,0.0,0.0,0.0,0.0,0.0,0.0,0.0,0.0,0.0,0.0,0.0,0.0,0.0,0.0,0.0,0.0,0.0,0.0,0.0,0.0,0.0,0.0,0.0,0.0,0.0,0.0,0.0,0.0,0.0,0.0,0.0,0.0,0.0,0.0,0.0,0.0,0.0,0.0,0.0,0.0,0.0,0.0,0.0,0.0,0.0,0.0,0.0,0.0,0.0,0.0,0.0,0.0,0.0,0.0,0.0,0.0,0.0,0.0,0.0,0.0,0.0,0.0,0.0,0.0,0.0,0.0,0.0,0.0,0.0,0.0,0.0,0.0,0.0,0.0,0.0,0.0,0.0,0.0,0.0,0.0,0.0,0.0,0.0,0.0,0.0,0.0,0.0,0.0,0.0,0.0,0.0,0.0,0.0,0.0,0.0,0.0,0.0,0.0,0.0,0.0,0.0,0.0,0.0,0.0,0.0,0.0,0.0,0.0,0.0,0.0,0.0,0.0,0.0,0.0,0.0,0.0,0.0,0.0,0.0,0.0,0.0,0.0,0.0,0.0,0.0,0.0,0.0,0.0,0.0,0.0,0.0,0.0,0.0,0.0,0.0,0.0,0.0,0.0,0.0,0.0,0.0,0.0,0.0,0.0,0.0,0.0,0.0,0.0,0.0,0.0,0.0,0.0,0.0,0.0,0.0,0.0,0.0,0.0,0.0,0.0,0.0,0.0,0.0,0.0,0.0,0.0,0.0,0.0,0.0,0.0,0.0,0.0,0.0,0.0,0.0,0.0,0.0,0.0,0.0,0.0,0.0,0.0,0.0,0.0,0.0,0.0,0.0,0.0,0.0,0.0,0.0,0.0,0.0,0.0,0.0,0.0,0.0,0.0,0.0,6.1719,0.0,0.0,0.0,0.0,0.0,0.0,0.0,0.0,0.0,0.0,0.0,0.0,0.0,0.0,0.0,0.0,0.0,0.0,0.0,0.0,0.0,0.0,0.0,0.0,0.0,0.0,0.0,0.0,0.0,0.0,0.0,0.0,0.0,0.0,0.0,0.0,0.0,0.0,0.0,0.0,0.0,0.0,0.0,0.0,0.0,0.0,0.0,0.0,0.0,0.0,0.0,0.0,0.0,0.0,0.0,0.0,0.0,0.0,0.0,0.0,0.0,0.0,0.0,0.0,0.0,0.0,0.0,0.0,0.0,0.0,0.0,0.0,0.0,0.0,0.0,0.0,0.0,0.0,0.0,0.0,0.0,0.0,0.0,0.0,0.0,0.0,0.0,0.0,0.0,0.0,0.0,0.0,0.0,0.0,0.0,0.0,0.0,0.0,0.0,0.0,0.0,0.0,0.0,0.0,0.0,0.0,0.0,0.0,0.0,0.0,6.1719,6.1719,6.1719,6.1719,6.1719,0.0,0.0,0.0,0.0,0.0,0.0,0.0,0.0,0.0,0.0,0.0,0.0,0.0,0.0,0.0,0.0,0.0,0.0,0.0,0.0,0.0,0.0,0.0,0.0,0.0,0.0,0.0,0.0,0.0,0.0,0.0,0.0,0.0,0.0,0.0,0.0,0.0,0.0,0.0,0.0,0.0,0.0,0.0,0.0,0.0,0.0,0.0,0.0,0.0,0.0,0.0,0.0,0.0,0.0,0.0,0.0,0.0,0.0,0.0,0.0,0.0,0.0,0.0,0.0,0.0,0.0,0.0,0.0,0.0,0.0,0.0,0.0,0.0,0.0,0.0,0.0,0.0,0.0,0.0,0.0,0.0,0.0,0.0,0.0,0.0,0.0,0.0,0.0,0.0,0.0,0.0,0.0,0.0,0.0,0.0,0.0,0.0,0.0,0.0,0.0,0.0,0.0,0.0,0.0,0.0,0.0,0.0,0.0,0.0,0.0,0.0,0.0,6.1719,6.1719,6.1719,0.0,0.0,0.0,0.0,0.0,0.0,0.0,0.0,0.0,0.0,0.0,0.0,0.0,0.0,0.0,0.0,0.0,0.0,0.0,0.0,0.0,0.0,0.0,0.0,0.0,0.0,0.0,0.0,0.0,0.0,0.0,0.0,0.0,0.0,0.0,0.0,0.0,0.0,0.0,0.0,0.0,0.0,0.0,0.0,0.0,0.0,0.0,0.0,0.0,0.0,0.0,0.0,0.0,0.0,0.0,0.0,0.0,0.0,0.0,0.0,0.0,0.0,0.0,0.0,0.0,0.0,0.0,0.0,0.0,0.0,0.0,0.0,0.0,0.0,0.0,0.0,0.0,0.0,0.0,0.0,0.0,0.0,0.0,0.0,0.0,0.0,0.0,0.0,0.0,0.0,0.0,0.0,0.0,0.0,0.0,0.0,0.0,0.0,0.0,0.0,0.0,0.0,0.0,0.0,0.0,0.0,0.0,0.0,0.0,0.0,6.1719,6.1719,6.1719,0.0,6.1719,0.0,0.0,0.0,0.0,0.0,0.0,0.0,0.0,0.0,0.0,0.0,0.0,0.0,0.0,0.0,0.0,0.0,0.0,0.0,0.0,0.0,0.0,0.0,0.0,0.0,0.0,0.0,0.0,0.0,0.0,0.0,0.0,0.0,0.0,0.0,0.0,0.0,0.0,0.0,0.0,0.0,0.0,0.0,0.0,0.0,0.0,0.0,0.0,0.0,0.0,0.0,0.0,0.0,0.0,0.0,0.0,0.0,0.0,0.0,0.0,0.0,0.0,0.0,0.0,0.0,0.0,0.0,0.0,0.0,0.0,0.0,0.0,0.0,0.0,0.0,0.0,0.0,0.0,0.0,0.0,0.0,0.0,0.0,0.0,0.0,0.0,0.0,0.0,0.0,0.0,0.0,0.0,0.0,0.0,0.0,0.0,0.0,0.0,0.0,0.0,0.0,0.0,0.0,0.0,0.0,0.0,0.0,0.0,0.0,0.0,6.1719,6.1719,6.1719,6.1719,0.0,0.0,0.0,0.0,0.0,0.0,0.0,0.0,0.0,0.0,0.0,0.0,0.0,0.0,0.0,0.0,0.0,0.0,0.0,0.0,0.0,0.0,0.0,0.0,0.0,0.0,0.0,0.0,0.0,0.0,0.0,0.0,0.0,0.0,0.0,0.0,0.0,0.0,0.0,0.0,0.0,0.0,0.0,0.0,0.0,0.0,0.0,0.0,0.0,0.0,0.0,0.0,0.0,0.0,0.0,0.0,0.0,0.0,0.0,0.0,0.0,0.0,0.0,0.0,0.0,0.0,0.0,0.0,0.0,0.0,0.0,0.0,0.0,0.0,0.0,0.0,0.0,0.0,0.0,0.0,0.0,0.0,0.0,0.0,0.0,0.0,0.0,0.0,0.0,0.0,0.0,0.0,0.0,0.0,0.0,0.0,0.0,0.0,0.0,0.0,0.0,0.0,0.0,0.0,0.0,0.0,0.0,0.0,0.0,0.0,6.2461,6.1719,6.1719,6.1719,6.1719,6.1719,0.0,0.0,0.0,0.0,0.0,0.0,0.0,0.0,0.0,0.0,0.0,0.0,0.0,0.0,0.0,0.0,0.0,0.0,0.0,0.0,0.0,0.0,0.0,0.0,0.0,0.0,0.0,0.0,0.0,0.0,0.0,0.0,0.0,0.0,0.0,0.0,0.0,0.0,0.0,0.0,0.0,0.0,0.0,0.0,0.0,0.0,0.0,0.0,0.0,0.0,0.0,0.0,0.0,0.0,0.0,0.0,0.0,0.0,0.0,0.0,0.0,0.0,0.0,0.0,0.0,0.0,0.0,0.0,0.0,0.0,0.0,0.0,0.0,0.0,0.0,0.0,0.0,0.0,0.0,0.0,0.0,0.0,0.0,0.0,0.0,0.0,0.0,0.0,0.0,0.0,0.0,0.0,0.0,0.0,0.0,0.0,0.0,0.0,0.0,0.0,0.0,0.0,0.0,0.0,0.0,0.0,0.0,0.0,6.3047,6.2187,6.1719,6.1719,6.1719,6.1719,0.0,0.0,0.0,0.0,0.0,0.0,0.0,0.0,0.0,0.0,0.0,0.0,0.0,0.0,0.0,0.0,0.0,0.0,0.0,0.0,0.0,0.0,0.0,0.0,0.0,0.0,0.0,0.0,0.0,0.0,0.0,0.0,0.0,0.0,0.0,0.0,0.0,0.0,0.0,0.0,0.0,0.0,0.0,0.0,0.0,0.0,0.0,0.0,0.0,0.0,0.0,0.0,0.0,0.0,0.0,0.0,0.0,0.0,0.0,0.0,0.0,0.0,0.0,0.0,0.0,0.0,0.0,0.0,0.0,0.0,0.0,0.0,0.0,0.0,0.0,0.0,0.0,0.0,0.0,0.0,0.0,0.0,0.0,0.0,0.0,0.0,0.0,0.0,0.0,0.0,0.0,0.0,0.0,0.0,0.0,0.0,0.0,0.0,0.0,0.0,0.0,0.0,0.0,0.0,0.0,0.0,0.0,0.0,0.0,6.293,6.2148,6.1719,6.168,6.1172,6.0859,0.0,0.0,0.0,0.0,0.0,0.0,0.0,0.0,0.0,0.0,0.0,0.0,0.0,0.0,0.0,0.0,0.0,0.0,0.0,0.0,0.0,0.0,0.0,0.0,0.0,0.0,0.0,0.0,0.0,0.0,0.0,0.0,0.0,0.0,0.0,0.0,0.0,0.0,0.0,0.0,0.0,0.0,0.0,0.0,0.0,0.0,0.0,0.0,0.0,0.0,0.0,0.0,0.0,0.0,0.0,0.0,0.0,0.0,0.0,0.0,0.0,0.0,0.0,0.0,0.0,0.0,0.0,0.0,0.0,0.0,0.0,0.0,0.0,0.0,0.0,0.0,0.0,0.0,0.0,0.0,0.0,0.0,0.0,0.0,0.0,0.0,0.0,0.0,0.0,0.0,0.0,0.0,0.0,0.0,0.0,0.0,0.0,0.0,0.0,0.0,0.0,0.0,0.0,0.0,0.0,0.0,0.0,0.0,0.0,6.2539,0.0,6.1719,6.168,6.1133,6.082,0.0,0.0,0.0,0.0,0.0,0.0,0.0,0.0,0.0,0.0,0.0,0.0,0.0,0.0,0.0,0.0,0.0,0.0,0.0,0.0,0.0,0.0,0.0,0.0,0.0,0.0,0.0,0.0,0.0,0.0,0.0,0.0,0.0,0.0,0.0,0.0,0.0,0.0,0.0,0.0,0.0,0.0,0.0,0.0,0.0,0.0,0.0,0.0,0.0,0.0,0.0,0.0,0.0,0.0,0.0,0.0,0.0,0.0,0.0,0.0,0.0,0.0,0.0,0.0,0.0,0.0,0.0,0.0,0.0,0.0,0.0,0.0,0.0,0.0,0.0,0.0,0.0,0.0,0.0,0.0,0.0,0.0,0.0,0.0,0.0,0.0,0.0,0.0,0.0,0.0,0.0,0.0,0.0,0.0,0.0,0.0,0.0,0.0,0.0,0.0,0.0,0.0,0.0,0.0,0.0,0.0,0.0,0.0,6.1701,6.1718,6.1719,6.1758,6.1758,6.168,6.168,0.0,0.0,0.0,0.0,0.0,0.0,0.0,0.0,0.0,0.0,0.0,0.0,0.0,0.0,0.0,0.0,0.0,0.0,0.0,0.0,0.0,0.0,0.0,0.0,0.0,0.0,0.0,0.0,0.0,0.0,0.0,0.0,0.0,0.0,0.0,0.0,0.0,0.0,0.0,0.0,0.0,0.0,0.0,0.0,0.0,0.0,0.0,0.0,0.0,0.0,0.0,0.0,0.0,0.0,0.0,0.0,0.0,0.0,0.0,0.0,0.0,0.0,0.0,0.0,0.0,0.0,0.0,0.0,0.0,0.0,0.0,0.0,0.0,0.0,0.0,0.0,0.0,0.0,0.0,0.0,0.0,0.0,0.0,0.0,0.0,0.0,0.0,0.0,0.0,0.0,0.0,0.0,0.0,0.0,0.0,0.0,0.0,0.0,0.0,0.0,0.0,0.0,0.0,0.0,0.0,0.0,0.0,0.0,0.0,6.1701,6.1709,6.2295,6.3377,6.1754,6.1367,0.0,0.0,0.0,0.0,0.0,0.0,0.0,0.0,0.0,0.0,0.0,0.0,0.0,0.0,0.0,0.0,0.0,0.0,0.0,0.0,0.0,0.0,0.0,0.0,0.0,0.0,0.0,0.0,0.0,0.0,0.0,0.0,0.0,0.0,0.0,0.0,0.0,0.0,0.0,0.0,0.0,0.0,0.0,0.0,0.0,0.0,0.0,0.0,0.0,0.0,0.0,0.0,0.0,0.0,0.0,0.0,0.0,0.0,0.0,0.0,0.0,0.0,0.0,0.0,0.0,0.0,0.0,0.0,0.0,0.0,0.0,0.0,0.0,0.0,0.0,0.0,0.0,0.0,0.0,0.0,0.0,0.0,0.0,0.0,0.0,0.0,0.0,0.0,0.0,0.0,0.0,0.0,0.0,0.0,0.0,0.0,0.0,0.0,0.0,0.0,0.0,0.0,0.0,0.0,0.0,0.0,0.0,0.0,0.0,6.4101,6.3181,6.3338,6.476,6.2876,6.2068,6.2461,0.0,0.0,0.0,0.0,0.0,0.0,0.0,0.0,0.0,0.0,0.0,0.0,0.0,0.0,0.0,0.0,0.0,0.0,0.0,0.0,0.0,0.0,0.0,0.0,0.0,0.0,0.0,0.0,0.0,0.0,0.0,0.0,0.0,0.0,0.0,0.0,0.0,0.0,0.0,0.0,0.0,0.0,0.0,0.0,0.0,0.0,0.0,0.0,0.0,0.0,0.0,0.0,0.0,0.0,0.0,0.0,0.0,0.0,0.0,0.0,0.0,0.0,0.0,0.0,0.0,0.0,0.0,0.0,0.0,0.0,0.0,0.0,0.0,0.0,0.0,0.0,0.0,0.0,0.0,0.0,0.0,0.0,0.0,0.0,0.0,0.0,0.0,0.0,0.0,0.0,0.0,0.0,0.0,0.0,0.0,0.0,0.0,0.0,0.0,0.0,0.0,0.0,0.0,0.0,0.0,0.0,0.0,0.0,6.8429,6.6219,6.5442,6.598,6.5038,6.3689,0.0,0.0,0.0,0.0,0.0,0.0,0.0,0.0,0.0,0.0,0.0,0.0,0.0,0.0,0.0,0.0,0.0,0.0,0.0,0.0,0.0,0.0,0.0,0.0,0.0,0.0,0.0,0.0,0.0,0.0,0.0,0.0,0.0,0.0,0.0,0.0,0.0,0.0,0.0,0.0,0.0,0.0,0.0,0.0,0.0,0.0,0.0,0.0,0.0,0.0,0.0,0.0,0.0,0.0,0.0,0.0,0.0,0.0,0.0,0.0,0.0,0.0,0.0,0.0,0.0,0.0,0.0,0.0,0.0,0.0,0.0,0.0,0.0,0.0,0.0,0.0,0.0,0.0,0.0,0.0,0.0,0.0,0.0,0.0,0.0,0.0,0.0,0.0,0.0,0.0,0.0,0.0,0.0,0.0,0.0,0.0,0.0,0.0,0.0,0.0,0.0,0.0,0.0,0.0,0.0,0.0,0.0,0.0,0.0,7.1903,7.3744,7.332,7.0426,6.8239,6.6297,0.0,0.0,0.0,0.0,0.0,0.0,0.0,0.0,0.0,0.0,0.0,0.0,0.0,0.0,0.0,0.0,0.0,0.0,0.0,0.0,0.0,0.0,0.0,0.0,0.0,0.0,0.0,0.0,0.0,0.0,0.0,0.0,0.0,0.0,0.0,0.0,0.0,0.0,0.0,0.0,0.0,0.0,0.0,0.0,0.0,0.0,0.0,0.0,0.0,0.0,0.0,0.0,0.0,0.0,0.0,0.0,0.0,0.0,0.0,0.0,0.0,0.0,0.0,0.0,0.0,0.0,0.0,0.0,0.0,0.0,0.0,0.0,0.0,0.0,0.0,0.0,0.0,0.0,0.0,0.0,0.0,0.0,0.0,0.0,0.0,0.0,0.0,0.0,0.0,0.0,0.0,0.0,0.0,0.0,0.0,0.0,0.0,0.0,0.0,0.0,0.0,0.0,0.0,0.0,0.0,0.0,0.0,0.0,7.2713,7.4672,7.9388,8.0207,7.6688,7.4258,7.0766,0.0,0.0,0.0,0.0,0.0,0.0,0.0,0.0,0.0,0.0,0.0,0.0,0.0,0.0,0.0,0.0,0.0,0.0,0.0,0.0,0.0,0.0,0.0,0.0,0.0,0.0,0.0,0.0,0.0,0.0,0.0,0.0,0.0,0.0,0.0,0.0,0.0,0.0,0.0,0.0,0.0,0.0,0.0,0.0,0.0,0.0,0.0,0.0,0.0,0.0,0.0,0.0,0.0,0.0,0.0,0.0,0.0,0.0,0.0,0.0,0.0,0.0,0.0,0.0,0.0,0.0,0.0,0.0,0.0,0.0,0.0,0.0,0.0,0.0,0.0,0.0,0.0,0.0,0.0,0.0,0.0,0.0,0.0,0.0,0.0,0.0,0.0,0.0,0.0,0.0,0.0,0.0,0.0,0.0,0.0,0.0,0.0,0.0,0.0,0.0,0.0,0.0,0.0,0.0,0.0,0.0,0.0,0.0,7.6827,7.698,8.3582,8.5913,8.3485,8.0791,7.5443,0.0,0.0,0.0,0.0,0.0,0.0,0.0,0.0,0.0,0.0,0.0,0.0,0.0,0.0,0.0,0.0,0.0,0.0,0.0,0.0,0.0,0.0,0.0,0.0,0.0,0.0,0.0,0.0,0.0,0.0,0.0,0.0,0.0,0.0,0.0,0.0,0.0,0.0,0.0,0.0,0.0,0.0,0.0,0.0,0.0,0.0,0.0,0.0,0.0,0.0,0.0,0.0,0.0,0.0,0.0,0.0,0.0,0.0,0.0,0.0,0.0,0.0,0.0,0.0,0.0,0.0,0.0,0.0,0.0,0.0,0.0,0.0,0.0,0.0,0.0,0.0,0.0,0.0,0.0,0.0,0.0,0.0,0.0,0.0,0.0,0.0,0.0,0.0,0.0,0.0,0.0,0.0,0.0,0.0,0.0,0.0,0.0,0.0,0.0,0.0,0.0,0.0,0.0,0.0,0.0,0.0,0.0,0.0,7.7524,7.9641,8.6224,8.8865,8.6923,8.0604,7.4437,0.0,0.0,0.0,0.0,0.0,0.0,0.0,0.0,0.0,0.0,0.0,0.0,0.0,0.0,0.0,0.0,0.0,0.0,0.0,0.0,0.0,0.0,0.0,0.0,0.0,0.0,0.0,0.0,0.0,0.0,0.0,0.0,0.0,0.0,0.0,0.0,0.0,0.0,0.0,0.0,0.0,0.0,0.0,0.0,0.0,0.0,0.0,0.0,5.6758,0.0,0.0,0.0,0.0,0.0,0.0,0.0,0.0,0.0,0.0,0.0,0.0,0.0,0.0,0.0,0.0,0.0,0.0,0.0,0.0,0.0,0.0,0.0,0.0,0.0,0.0,0.0,0.0,0.0,0.0,0.0,0.0,0.0,0.0,0.0,0.0,0.0,0.0,0.0,0.0,0.0,0.0,0.0,0.0,0.0,0.0,0.0,0.0,0.0,0.0,0.0,0.0,0.0,0.0,0.0,0.0,0.0,0.0,0.0,7.8151,8.1929,8.7345,8.9848,8.8698,8.2587,7.6521,0.0,0.0,0.0,0.0,0.0,0.0,0.0,0.0,0.0,0.0,0.0,0.0,0.0,0.0,0.0,0.0,0.0,0.0,0.0,0.0,0.0,0.0,0.0,0.0,0.0,0.0,0.0,0.0,0.0,0.0,0.0,0.0,0.0,0.0,0.0,0.0,0.0,0.0,0.0,0.0,0.0,0.0,0.0,0.0,0.0,0.0,0.0,0.0,0.0,0.0,0.0,0.0,0.0,0.0,0.0,0.0,0.0,0.0,0.0,0.0,0.0,0.0,0.0,0.0,0.0,0.0,0.0,0.0,0.0,0.0,0.0,0.0,0.0,0.0,0.0,0.0,0.0,0.0,0.0,0.0,0.0,0.0,0.0,0.0,0.0,0.0,0.0,0.0,0.0,0.0,0.0,0.0,0.0,0.0,0.0,0.0,0.0,0.0,0.0,0.0,0.0,0.0,0.0,0.0,0.0,0.0,0.0,7.3894,7.9166,8.4093,8.8209,9.0171,8.9863,8.5209,7.9519,7.2948,0.0,0.0,0.0,0.0,0.0,0.0,0.0,0.0,0.0,0.0,0.0,0.0,0.0,0.0,0.0,0.0,0.0,0.0,0.0,0.0,0.0,0.0,0.0,0.0,0.0,0.0,0.0,0.0,0.0,0.0,0.0,0.0,0.0,0.0,0.0,0.0,0.0,0.0,5.7969,5.9453,0.0,0.0,0.0,0.0,0.0,0.0,0.0,0.0,5.7695,0.0,0.0,0.0,0.0,0.0,0.0,0.0,0.0,0.0,0.0,0.0,0.0,0.0,0.0,0.0,0.0,0.0,0.0,0.0,0.0,0.0,0.0,0.0,0.0,0.0,0.0,0.0,0.0,0.0,0.0,0.0,0.0,0.0,0.0,0.0,0.0,0.0,0.0,0.0,0.0,0.0,0.0,0.0,0.0,0.0,0.0,0.0,0.0,0.0,0.0,0.0,0.0,0.0,0.0,0.0,0.0,7.1801,7.6717,8.17,8.6671,9.0248,9.1364,8.9863,8.6363,8.097,7.3713,0.0,0.0,0.0,0.0,0.0,0.0,0.0,0.0,0.0,0.0,0.0,0.0,0.0,0.0,0.0,0.0,0.0,0.0,0.0,0.0,0.0,0.0,0.0,0.0,0.0,0.0,0.0,0.0,0.0,0.0,0.0,0.0,0.0,0.0,0.0,0.0,0.0,0.0,0.0,5.9805,6.0703,0.0,0.0,0.0,0.0,0.0,0.0,0.0,0.0,5.9219,0.0,0.0,0.0,0.0,0.0,0.0,0.0,0.0,0.0,0.0,0.0,0.0,0.0,0.0,0.0,0.0,0.0,0.0,0.0,0.0,0.0,0.0,0.0,0.0,0.0,0.0,0.0,0.0,0.0,0.0,0.0,0.0,0.0,0.0,0.0,0.0,0.0,0.0,0.0,0.0,0.0,0.0,0.0,0.0,0.0,0.0,0.0,0.0,0.0,0.0,0.0,0.0,0.0,0.0,0.0,7.252,7.7776,8.2928,8.7902,9.0094,9.0556,8.9248,8.517,7.9977,0.0,0.0,0.0,0.0,0.0,0.0,0.0,0.0,0.0,0.0,0.0,0.0,0.0,0.0,0.0,0.0,0.0,0.0,0.0,0.0,0.0,0.0,0.0,0.0,0.0,0.0,0.0,0.0,0.0,0.0,0.0,0.0,0.0,0.0,0.0,0.0,0.0,0.0,0.0,0.0,6.1445,6.2773,6.1836,0.0,0.0,0.0,0.0,0.0,0.0,5.9805,5.9961,0.0,0.0,0.0,0.0,0.0,0.0,0.0,0.0,0.0,0.0,0.0,0.0,0.0,0.0,0.0,0.0,0.0,0.0,0.0,0.0,0.0,0.0,0.0,0.0,0.0,0.0,0.0,0.0,0.0,0.0,0.0,0.0,0.0,0.0,0.0,0.0,0.0,0.0,0.0,0.0,0.0,0.0,0.0,0.0,0.0,0.0,0.0,0.0,0.0,0.0,0.0,0.0,0.0,0.0,0.0,7.2407,7.813,8.35,8.8209,8.9402,8.944,8.8402,8.3824,7.89,0.0,0.0,0.0,0.0,0.0,0.0,0.0,0.0,0.0,0.0,0.0,0.0,0.0,0.0,0.0,0.0,0.0,0.0,0.0,0.0,0.0,0.0,0.0,0.0,0.0,0.0,0.0,0.0,0.0,0.0,0.0,0.0,0.0,0.0,0.0,0.0,0.0,0.0,0.0,0.0,0.0,6.4961,6.2578,6.4297,0.0,0.0,0.0,0.0,6.039,6.1758,0.0,0.0,0.0,0.0,0.0,0.0,0.0,0.0,0.0,0.0,0.0,0.0,0.0,0.0,0.0,0.0,0.0,0.0,0.0,0.0,0.0,0.0,0.0,0.0,0.0,0.0,0.0,0.0,0.0,0.0,0.0,0.0,0.0,0.0,0.0,0.0,0.0,0.0,0.0,0.0,0.0,0.0,0.0,0.0,0.0,0.0,0.0,0.0,0.0,0.0,0.0,0.0,0.0,0.0,0.0,0.0,7.2445,7.816,8.3226,8.7363,8.9094,8.9171,8.7555,8.4055,7.9438,0.0,0.0,0.0,0.0,0.0,0.0,0.0,0.0,0.0,0.0,0.0,0.0,0.0,0.0,0.0,0.0,0.0,0.0,0.0,0.0,0.0,0.0,0.0,0.0,0.0,0.0,0.0,0.0,0.0,0.0,0.0,0.0,0.0,0.0,0.0,0.0,0.0,0.0,0.0,0.0,0.0,6.6094,6.4258,6.5547,6.6055,0.0,0.0,6.5586,6.3945,6.8242,0.0,0.0,0.0,0.0,0.0,0.0,0.0,0.0,0.0,0.0,0.0,0.0,0.0,0.0,0.0,0.0,0.0,0.0,0.0,0.0,0.0,0.0,0.0,0.0,0.0,0.0,0.0,0.0,0.0,0.0,0.0,0.0,0.0,0.0,0.0,0.0,0.0,0.0,0.0,0.0,0.0,0.0,0.0,0.0,0.0,0.0,0.0,0.0,0.0,0.0,0.0,0.0,0.0,0.0,0.0,6.9259,7.3061,7.8784,8.3605,8.7248,8.7632,8.7209,8.6017,8.1246,7.7092,0.0,0.0,0.0,0.0,0.0,0.0,0.0,0.0,0.0,0.0,0.0,0.0,0.0,0.0,0.0,0.0,0.0,0.0,0.0,0.0,0.0,0.0,0.0,0.0,0.0,0.0,0.0,0.0,0.0,0.0,0.0,0.0,0.0,0.0,0.0,0.0,0.0,0.0,0.0,0.0,0.0,0.0,6.6172,6.8086,0.0,0.0,0.0,6.8984,6.8711,0.0,0.0,0.0,0.0,0.0,0.0,0.0,0.0,0.0,0.0,0.0,0.0,0.0,0.0,0.0,0.0,0.0,0.0,0.0,0.0,0.0,0.0,0.0,0.0,0.0,0.0,0.0,0.0,0.0,0.0,0.0,0.0,0.0,0.0,0.0,0.0,0.0,0.0,0.0,0.0,0.0,0.0,0.0,0.0,0.0,0.0,0.0,0.0,0.0,0.0,0.0,0.0,0.0,0.0,0.0,0.0,0.0,7.3206,7.9023,8.3445,8.6286,8.6055,8.5401,8.4516,7.9208,0.0,0.0,0.0,0.0,0.0,0.0,0.0,0.0,0.0,0.0,0.0,0.0,0.0,0.0,0.0,0.0,0.0,0.0,0.0,0.0,0.0,0.0,0.0,0.0,0.0,0.0,0.0,5.6836,0.0,0.0,0.0,0.0,0.0,0.0,0.0,0.0,0.0,0.0,0.0,0.0,0.0,0.0,7.0937,6.793,7.0664,7.2422,0.0,0.0,7.1992,7.1992,7.2422,7.1367,0.0,0.0,0.0,0.0,0.0,0.0,0.0,0.0,0.0,0.0,0.0,0.0,0.0,0.0,0.0,0.0,0.0,0.0,0.0,0.0,0.0,0.0,0.0,0.0,0.0,0.0,0.0,0.0,0.0,0.0,0.0,0.0,0.0,0.0,0.0,0.0,0.0,0.0,0.0,0.0,0.0,0.0,0.0,0.0,0.0,0.0,0.0,0.0,0.0,0.0,0.0,0.0,0.0,0.0,0.0,7.236,7.8154,8.2073,8.3824,8.4593,8.4593,8.3632,7.9477,7.6053,0.0,0.0,0.0,0.0,0.0,0.0,0.0,0.0,0.0,0.0,0.0,0.0,0.0,0.0,0.0,0.0,0.0,0.0,0.0,0.0,0.0,0.0,0.0,0.0,0.0,0.0,0.0,0.0,0.0,0.0,0.0,0.0,0.0,0.0,0.0,0.0,0.0,0.0,0.0,0.0,0.0,7.1328,6.9492,7.289,7.5312,0.0,0.0,7.4726,7.2383,7.7305,7.8125,6.8476,0.0,0.0,0.0,0.0,0.0,0.0,0.0,0.0,0.0,0.0,0.0,0.0,0.0,0.0,0.0,0.0,0.0,0.0,0.0,0.0,0.0,0.0,0.0,0.0,0.0,0.0,0.0,0.0,0.0,0.0,0.0,0.0,0.0,0.0,0.0,0.0,0.0,0.0,0.0,0.0,0.0,0.0,0.0,0.0,0.0,0.0,0.0,0.0,0.0,0.0,0.0,0.0,0.0,7.0183,7.3745,7.8608,8.2413,8.5016,8.4978,8.4478,8.3593,7.9977,7.6861,0.0,0.0,0.0,0.0,0.0,0.0,0.0,0.0,0.0,0.0,0.0,0.0,0.0,0.0,0.0,0.0,0.0,0.0,0.0,0.0,0.0,0.0,0.0,0.0,0.0,0.0,0.0,0.0,5.8476,5.8906,5.9375,0.0,0.0,0.0,0.0,0.0,0.0,0.0,0.0,0.0,0.0,7.3553,7.342,7.6189,0.0,0.0,7.8472,7.8706,7.7691,7.8007,7.6289,7.0234,6.7695,0.0,0.0,0.0,0.0,0.0,0.0,0.0,0.0,0.0,0.0,0.0,0.0,0.0,0.0,0.0,0.0,0.0,0.0,0.0,0.0,0.0,0.0,0.0,0.0,0.0,0.0,0.0,0.0,0.0,0.0,0.0,0.0,0.0,0.0,0.0,0.0,0.0,0.0,0.0,0.0,0.0,0.0,0.0,0.0,0.0,0.0,0.0,0.0,0.0,0.0,0.0,0.0,7.0966,7.4668,7.9146,8.2836,8.567,8.4939,8.4209,8.3555,8.0285,7.7284,0.0,0.0,0.0,0.0,0.0,0.0,0.0,0.0,0.0,0.0,0.0,0.0,0.0,0.0,0.0,0.0,0.0,0.0,0.0,0.0,0.0,0.0,0.0,0.0,0.0,0.0,0.0,0.0,5.9374,5.9883,6.0703,0.0,0.0,0.0,0.0,0.0,0.0,0.0,0.0,0.0,0.0,7.4528,7.5384,7.811,8.0074,8.0094,8.0371,8.0528,8.0254,7.7999,7.4802,7.0586,0.0,0.0,0.0,0.0,0.0,0.0,0.0,0.0,0.0,0.0,0.0,0.0,0.0,0.0,0.0,0.0,0.0,0.0,0.0,0.0,0.0,0.0,0.0,0.0,0.0,0.0,0.0,0.0,0.0,0.0,6.4512,0.0,0.0,0.0,0.0,0.0,0.0,0.0,0.0,0.0,0.0,0.0,0.0,0.0,0.0,0.0,0.0,0.0,0.0,0.0,0.0,0.0,0.0,7.211,7.4745,7.9691,8.3111,8.4901,8.4093,8.367,8.3516,8.0323,7.7323,7.4745,0.0,0.0,0.0,0.0,0.0,0.0,0.0,0.0,0.0,0.0,0.0,0.0,0.0,0.0,0.0,0.0,0.0,0.0,0.0,0.0,0.0,0.0,0.0,0.0,0.0,0.0,5.9222,5.9876,6.0742,0.0,0.0,0.0,0.0,0.0,0.0,0.0,0.0,0.0,0.0,7.0078,7.3669,7.4569,7.8233,8.0849,8.0888,8.0224,7.9405,7.8591,7.7614,7.5052,0.0,0.0,0.0,0.0,0.0,0.0,0.0,0.0,0.0,0.0,0.0,0.0,0.0,0.0,0.0,0.0,0.0,0.0,0.0,0.0,0.0,0.0,0.0,0.0,0.0,0.0,0.0,6.4715,6.4243,0.0,0.0,0.0,0.0,0.0,0.0,0.0,0.0,0.0,0.0,0.0,6.845,6.9271,0.0,0.0,0.0,0.0,0.0,0.0,0.0,0.0,0.0,0.0,0.0,0.0,7.275,7.6399,8.0299,8.3413,8.5593,8.5401,8.4747,8.3632,8.19,7.8784,7.4053,0.0,0.0,0.0,0.0,0.0,0.0,0.0,0.0,0.0,0.0,0.0,0.0,0.0,0.0,0.0,0.0,0.0,0.0,0.0,0.0,0.0,0.0,0.0,0.0,0.0,6.1095,0.0,0.0,0.0,0.0,0.0,0.0,0.0,0.0,0.0,0.0,0.0,6.4516,6.6231,7.0409,7.3615,7.4486,7.7282,7.9287,0.0,0.0,0.0,0.0,0.0,0.0,0.0,0.0,0.0,0.0,0.0,0.0,0.0,0.0,6.6745,6.1015,5.9961,5.9961,5.9961,0.0,0.0,0.0,0.0,0.0,0.0,0.0,0.0,0.0,0.0,0.0,0.0,0.0,0.0,6.6769,0.0,6.6782,0.0,0.0,0.0,0.0,0.0,0.0,0.0,0.0,6.8975,7.0194,7.1068,7.2157,7.2409,0.0,7.1563,7.0975,0.0,0.0,0.0,0.0,0.0,0.0,0.0,0.0,7.3619,7.7275,8.0869,8.383,8.5978,8.5824,8.5016,8.3632,8.19,7.89,7.4514,7.1937,6.9513,0.0,0.0,0.0,0.0,0.0,0.0,0.0,0.0,0.0,0.0,0.0,0.0,0.0,0.0,0.0,0.0,0.0,0.0,0.0,0.0,0.0,0.0,0.0,6.1525,0.0,0.0,0.0,0.0,0.0,0.0,0.0,0.0,0.0,6.2573,6.3849,6.5819,6.8747,7.1519,7.3837,7.5267,0.0,0.0,0.0,0.0,0.0,0.0,0.0,7.3744,7.1162,7.0738,7.0665,7.0348,7.1724,7.2666,7.211,0.0,0.0,6.4211,6.2885,6.269,6.269,6.3823,6.4994,6.558,6.6359,6.7297,0.0,0.0,0.0,0.0,0.0,0.0,0.0,0.0,6.8706,6.9513,0.0,6.9206,0.0,0.0,0.0,0.0,0.0,6.8436,0.0,0.0,7.1514,7.2773,7.3686,7.5274,7.6024,7.5994,7.5139,7.4322,7.3399,7.0283,0.0,0.0,0.0,0.0,0.0,0.0,7.4802,7.7449,8.1477,8.4407,8.6017,8.5324,8.4478,8.3478,8.0285,7.7746,7.6053,7.3591,7.1475,6.9771,6.7385,0.0,0.0,0.0,0.0,0.0,0.0,0.0,0.0,0.0,0.0,0.0,0.0,0.0,0.0,0.0,0.0,0.0,0.0,0.0,0.0,6.1119,0.0,0.0,0.0,0.0,0.0,0.0,0.0,0.0,0.0,0.0,6.4301,6.5199,6.7581,7.2456,0.0,0.0,0.0,0.0,7.8317,7.835,7.9053,7.9287,7.8429,7.7614,7.6209,7.3744,0.0,0.0,7.2483,7.2366,7.2522,7.2294,7.2534,7.1987,7.106,6.985,6.9225,6.9264,6.9889,7.0704,7.0894,7.1363,7.2099,7.4514,0.0,0.0,0.0,0.0,7.1091,7.2168,7.3822,7.3829,7.307,7.1783,7.1343,0.0,0.0,0.0,0.0,0.0,0.0,7.0437,7.2437,7.3514,7.4774,7.6265,7.7314,7.7485,7.6924,7.6677,7.6092,7.5284,7.4322,7.2168,6.9013,0.0,0.0,0.0,0.0,7.5928,7.9037,8.2086,8.4401,8.6055,8.5324,8.4209,8.2708,7.9977,7.8015,7.6938,7.5014,7.2899,7.0629,6.9321,0.0,0.0,0.0,0.0,0.0,0.0,0.0,0.0,0.0,0.0,0.0,0.0,0.0,0.0,0.0,0.0,0.0,0.0,0.0,6.1147,6.1103,6.1077,0.0,0.0,0.0,0.0,0.0,0.0,0.0,0.0,0.0,6.6399,6.762,6.9064,0.0,0.0,7.4212,7.4374,7.5618,7.675,7.7375,7.7687,0.0,0.0,7.7257,7.6638,7.5311,7.6633,7.7993,7.8344,7.893,7.8969,7.7726,7.7999,7.796,7.636,7.3476,7.1446,7.1363,7.2378,7.3588,7.4246,7.5026,7.6002,8.0465,7.4973,7.3716,7.3399,7.3745,7.4399,7.5399,7.6515,7.6871,7.6332,7.5168,7.4524,7.3563,7.236,7.1706,0.0,0.0,0.0,7.3206,7.5053,7.5822,7.6967,7.8276,7.9131,7.9254,7.88,7.8446,7.7823,7.6976,7.6669,7.5053,7.2245,0.0,0.0,7.1975,7.4476,7.7237,8.026,8.2471,8.4401,8.6055,8.4978,8.3901,8.2824,8.0669,7.9131,7.8284,7.6669,7.4707,7.2486,7.0975,6.9167,0.0,0.0,0.0,0.0,0.0,0.0,0.0,0.0,0.0,0.0,0.0,6.0781,0.0,0.0,0.0,0.0,6.1002,6.1018,6.1057,6.0959,0.0,0.0,0.0,0.0,0.0,0.0,0.0,6.2454,6.3852,6.575,6.8291,7.0133,7.1681,7.2879,7.4089,7.487,7.5071,0.0,7.6905,7.7763,7.8191,7.8397,7.8397,7.8191,7.7843,7.7414,7.9209,8.0654,8.0927,8.1435,8.1278,8.0185,8.042,8.0693,7.9639,7.7531,7.5696,7.4792,7.5885,7.7134,7.7368,7.8305,7.9476,8.6775,8.3633,8.0651,7.8323,7.6784,7.8246,7.8554,7.8054,7.8767,7.9345,7.9785,7.8199,7.7814,7.8207,7.6707,0.0,7.6092,7.6092,7.663,7.763,7.8284,7.9161,8.0085,8.0854,8.1208,8.1285,8.0477,7.9669,7.89,7.8169,7.7361,7.6515,7.5784,7.4899,7.4091,7.6284,7.8767,8.1282,8.2964,8.4555,8.6055,8.4478,8.3555,8.3478,8.1939,8.0669,7.9708,7.8169,7.6438,7.4533,7.2178,7.0156,6.8488,0.0,0.0,0.0,0.0,0.0,0.0,0.0,0.0,0.0,0.0,0.0,0.0,0.0,0.0,0.0,6.0935,0.0,6.0973,6.0973,0.0,0.0,0.0,6.1152,6.1112,6.2025,6.269,6.2649,0.0,0.0,6.9972,7.2479,7.4693,7.634,7.6006,7.617,7.7692,7.7973,7.8321,7.9059,7.995,8.053,8.0387,7.9918,7.9437,7.9476,8.1005,8.1552,8.0966,8.081,8.0537,7.9717,8.0302,8.0771,8.0771,8.1044,8.1317,7.8618,7.9593,8.0654,7.9906,8.081,8.1864,9.0378,8.896,8.754,8.4925,8.1689,8.2073,8.2913,8.3939,8.3548,8.2432,8.0746,7.9677,7.8246,7.6553,7.6169,7.6361,7.6976,7.6976,7.813,8.0131,7.9708,8.0623,8.2617,8.224,8.2362,8.2978,8.2785,8.2593,8.2401,8.217,8.167,8.0862,8.1246,8.0092,7.7438,7.8592,8.0461,8.2978,8.4658,8.5709,8.6055,8.4478,8.3285,8.2631,8.1631,8.0362,7.8861,7.7823,7.5908,7.2967,7.1601,7.0167,6.8487,6.759,0.0,0.0,0.0,0.0,0.0,0.0,0.0,0.0,0.0,6.2444,6.1843,0.0,6.2435,0.0,6.2367,6.2714,6.2675,6.2675,0.0,0.0,6.2483,6.2683,6.1957,6.3291,6.4229,6.4116,6.6916,6.937,7.0583,7.2969,7.4912,7.6005,7.7341,7.8332,7.8785,7.9502,8.0006,8.0177,8.1035,8.1772,8.1494,8.1051,8.0296,7.9593,7.9828,7.9984,7.9828,7.9795,7.9522,7.8936,7.9405,7.9678,7.917,7.9717,7.9828,7.8813,7.9795,8.0927,8.0732,8.1044,8.1513,9.3207,9.2404,9.1523,8.9841,8.7656,8.6235,8.6035,8.6526,8.6132,8.4939,8.3208,8.16,8.0131,7.8823,7.8784,7.8861,7.9054,7.9746,8.0631,8.1593,8.1516,8.224,8.358,8.351,8.3676,8.4176,8.417,8.417,8.417,8.417,8.3747,8.2901,8.3747,8.3247,8.1439,8.1823,8.2932,8.4682,8.6011,8.6517,8.6055,8.4439,8.3555,8.3401,8.1516,8.0054,7.9092,7.7553,7.5639,7.3428,7.2524,7.1255,6.964,6.8744,6.7898,0.0,0.0,0.0,0.0,0.0,0.0,0.0,0.0,0.0,0.0,0.0,6.3128,6.2666,6.3036,6.3291,6.3291,6.3306,6.3128,6.2704,6.3484,6.3792,6.3284,6.477,6.5795,6.5743,6.8398,7.0541,7.1402,7.3686,7.562,7.6455,7.7891,7.8844,7.8908,7.966,8.0382,8.0705,8.1307,8.1437,8.073,8.0351,7.9861,7.9065,7.922,7.9398,7.9065,7.8954,7.8702,7.8077,7.8441,7.8862,7.8422,7.8897,7.917,7.8663,7.9014,7.9678,7.9834,8.0459,8.1122,9.5178,9.449,9.3612,9.3272,9.3128,9.0263,8.8575,8.7804,8.7602,8.6983,8.594,8.3555,8.2477,8.2477,8.2439,8.2093,8.1516,8.2939,8.3324,8.2824,8.3478,8.3933,8.4273,8.4895,8.5291,8.5378,8.5291,8.5286,8.5401,8.5286,8.4901,8.4286,8.5016,8.5401,8.5401,8.5478,8.5857,8.6428,8.7171,8.7175,8.644,8.467,8.4093,8.4555,8.1439,7.9515,7.9246,7.6861,7.513,7.4255,7.3332,7.2168,7.0667,6.9937,6.8821,0.0,6.6436,0.0,0.0,0.0,0.0,0.0,0.0,0.0,0.0,6.3488,6.3512,6.3628,6.3628,6.3628,6.3628,6.3617,6.3591,6.3514,6.433,6.4908,6.4833,6.6358,6.7448,6.7436,6.9667,7.1514,7.2311,7.4494,7.6303,7.6929,7.7583,7.816,7.8562,7.9292,8.0116,8.086,8.104,8.0757,7.9447,7.9095,7.8878,7.8204,7.863,7.9134,7.8423,7.8309,7.8116,7.7525,7.7831,7.8106,7.8011,7.8511,7.8737,7.8116,7.8035,7.8155,7.8546,7.9561,8.042,9.5522,9.5293,9.449,9.4146,9.4075,9.2737,9.1791,9.1069,8.9758,8.7983,8.5901,8.4138,8.3362,8.3362,8.3362,8.3285,8.3131,8.3439,8.4247,8.5363,8.4863,8.578,8.7622,8.7204,8.7291,8.791,8.7252,8.7286,8.7979,8.7286,8.7209,8.7709,8.7902,8.7979,8.8017,0.0,0.0,0.0,8.8363,8.8363,8.8132,8.5863,8.4401,8.3785,8.0516,0.0,7.6707,7.4245,7.2486,7.1622,7.0179,0.0,0.0,0.0,0.0,0.0,0.0,0.0,0.0,0.0,0.0,0.0,6.5513,6.5103,6.4424,6.4334,6.4666,6.532,6.5436,6.5397,6.5397,6.5397,6.5103,6.4526,6.573,6.6359,6.5843,6.7741,6.9217,6.9283,7.1437,7.3053,7.3283,7.4861,7.6015,7.6245,7.6361,7.7044,7.8276,7.9323,8.0008,8.0126,8.074,8.0716,7.9253,7.9057,7.8365,7.7277,7.734,7.7841,7.774,7.7843,7.7993,7.7798,7.8143,7.8048,7.7481,7.7968,7.8232,7.7465,7.7336,7.7531,7.8233,7.8663,7.9248,9.5943,0.0,9.4911,9.4643,0.0,9.3612,9.312,9.3093,9.1029,8.9036,8.711,8.5843,8.5339,8.5373,8.5378,8.4916,8.4181,8.4955,8.5608,8.6026,8.6065,8.6752,8.8089,8.8055,8.8291,8.8679,8.8252,8.8479,8.9248,8.8863,8.8863,8.9286,8.9286,8.9517,8.994,9.0744,9.0552,8.9286,8.8897,8.8512,8.7979,8.5978,8.4709,8.417,0.0,0.0,0.0,0.0,0.0,0.0,0.0,0.0,0.0,0.0,0.0,6.8436,6.7975,6.7552,6.7167,6.7154,6.7141,6.7141,6.6731,6.6128,6.5295,6.5243,6.5397,6.5859,6.5897,6.5897,6.5897,6.6269,6.6307,6.5974,6.7372,6.8193,6.801,6.9229,7.0283,7.0475,7.2168,7.3514,7.3514,7.4976,7.5938,7.5976,7.6015,7.6322,7.7198,7.8438,7.9515,8.0215,8.002,7.9686,7.8901,7.8085,7.7495,7.6612,7.7054,7.7386,7.7117,7.7446,7.771,7.7469,7.7378,7.7283,7.7338,7.7283,7.7192,7.7304,7.7401,7.7414,7.7648,7.7999,7.8624,9.6425,9.6783,9.5407,9.514,9.5484,9.4146,9.3879,9.4223,0.0,0.0,0.0,8.7657,8.7348,8.7382,8.7348,8.6581,8.5462,8.6581,8.6926,8.6652,8.7151,8.7609,8.806,8.8752,8.9098,8.9098,8.8944,8.929,9.0059,8.9944,8.9909,9.0063,9.0063,9.0521,9.1367,9.2126,9.1895,9.0594,8.9782,8.8859,8.7825,8.6209,8.5286,8.5093,8.167,7.9092,7.7553,7.4938,7.3157,7.2442,7.2003,7.1772,7.1749,7.1079,7.0321,6.9513,6.8936,6.859,6.8398,6.8385,6.8373,6.8411,6.7603,6.6769,6.5974,6.5897,6.5897,6.5897,6.5897,6.5936,6.609,6.6692,6.7154,6.7346,6.8758,6.9682,6.9717,7.0409,7.086,7.1052,7.2399,7.3514,7.3553,7.4976,7.5976,7.5976,7.5976,7.6092,7.6361,7.7476,7.8823,7.9977,7.943,7.8554,7.8177,7.7438,7.6476,7.6332,7.7025,7.74,7.7001,7.7301,7.7445,7.7,7.6626,7.6863,7.7189,7.6897,7.6537,7.7178,7.7443,7.7472,7.7167,7.7531,7.811,9.6919,9.6859,9.6668,9.6172,9.556,9.5331,9.4949,9.4179,9.1778,9.0211,8.9294,8.8527,8.823,8.8193,8.8231,8.8078,8.7848,8.7349,8.7809,0.0,8.8499,8.8994,9.0367,9.0603,9.0678,9.0629,8.9947,9.0065,9.0682,9.0032,8.9995,9.0685,9.0762,9.1222,9.2102,9.2402,9.2707,9.3133,9.2399,9.1206,8.9556,8.7902,8.6709,8.5824,8.1977,7.9361,7.8323,7.5245,7.3465,7.3289,7.1233,7.0052,7.0025,7.0014,6.9475,6.8706,6.9206,6.9206,6.8475,6.8398,6.8398,6.8345,6.759,6.6731,6.5974,6.5897,6.5897,6.5897,6.5936,6.6192,6.6808,6.7077,6.7475,6.8152,6.9102,6.9679,6.9756,7.0409,7.0937,7.1014,7.2437,7.3514,7.3707,7.4938,7.5899,7.5976,7.5861,7.6169,7.6736,7.7284,7.7861,7.8592,7.8669,7.8207,7.7677,7.737,7.6677,7.6169,7.6736,7.7207,7.6963,7.7293,7.741,7.734,7.7272,7.7254,7.6965,7.7226,7.7136,7.6947,7.6915,7.7018,7.7345,7.7223,7.7199,9.689,9.7036,9.6166,9.5806,9.58,9.5616,9.5178,9.4332,9.3186,9.2231,9.1467,9.1086,9.0711,9.0378,9.026,8.9762,8.8998,8.8499,8.8729,8.9496,8.9152,8.9458,9.0109,9.0224,9.0261,9.0221,8.9916,9.0147,9.0838,9.0532,9.0954,9.2219,9.2718,9.2526,9.1682,9.2486,9.2715,9.2218,9.1944,9.1402,9.0594,8.8906,8.7602,8.6718,8.3451,8.1145,7.9838,7.7062,7.5159,7.4186,7.3042,7.2206,7.1794,7.1783,7.1591,7.1206,7.1552,7.1591,7.1206,7.0706,7.0244,6.9794,6.8987,6.8167,6.7321,6.6821,6.6551,6.6551,6.6962,6.741,6.7795,6.8232,6.8679,6.9036,6.9871,7.0333,7.0371,7.0667,7.1052,7.1629,7.2706,7.3668,7.4091,7.4822,7.5293,7.5293,7.5293,7.5515,7.5851,7.5967,7.6553,7.8054,7.813,7.7746,7.7293,7.6447,7.5793,7.5332,7.6015,7.6322,7.6148,7.6592,7.7121,7.6775,7.6765,7.6891,7.6823,7.6814,7.6842,7.712,7.7083,7.7228,7.702,7.6671,7.6691,9.7255,9.7492,9.6088,9.5535,9.5658,9.5311,9.4905,9.4502,9.444,9.4179,9.3644,9.3262,9.2699,9.198,9.1858,9.1017,8.9837,8.945,8.945,8.9722,8.9761,8.9801,8.9879,9.0148,9.0301,9.0185,9.0301,9.0762,9.1375,9.1412,9.2063,9.3289,9.4058,9.3483,9.1796,9.3025,9.3141,9.2066,9.1989,9.1679,9.11,8.9568,8.8418,8.765,8.527,8.3235,8.1771,7.9415,7.7323,7.5707,7.5399,7.4938,7.4139,7.4053,7.4053,7.4091,7.4053,7.3976,7.3745,7.2965,7.2118,7.1245,7.0409,6.9602,6.8756,6.8244,6.7744,6.7552,6.7962,6.8488,6.8912,6.9321,6.9833,7.0217,7.0629,7.0937,7.1129,7.1014,7.136,7.2322,7.2937,7.3514,7.4168,7.4409,7.4447,7.4437,7.4409,7.4486,7.463,7.4697,7.562,7.6784,7.7092,7.6707,7.6639,7.5908,7.5178,7.4976,7.5351,7.5515,7.5399,7.613,7.6544,7.6092,7.6053,7.6149,7.6583,7.639,7.6121,7.6245,7.6544,7.6958,7.6409,7.6283,7.6303,9.8531,9.833,9.7454,9.6314,9.4946,9.4235,9.4232,9.463,9.4685,9.4943,9.514,9.3753,9.269,9.1854,9.1854,9.1357,9.0478,8.9676,8.9752,9.0478,9.0478,9.0478,9.0711,9.2095,9.2515,9.1892,9.2401,9.2672,9.2825,9.2856,9.3005,9.312,9.3281,9.3629,9.4053,9.4368,9.4791,9.5363,9.4742,9.3287,9.0992,8.9995,8.9458,8.9343,8.6889,8.52,8.4157,8.1925,7.9806,7.83,7.7408,7.6639,7.5879,7.5755,7.5784,7.5784,7.5784,7.5438,7.4658,7.3822,7.3053,7.2157,7.1321,7.0514,6.9794,7.0206,6.986,6.8859,6.8436,6.9271,7.0413,7.0167,7.0448,7.158,7.1283,7.1206,7.1772,7.136,7.1552,7.3206,7.2745,7.2668,7.3514,7.364,7.3601,7.3581,7.3591,7.3764,7.4293,7.4437,7.4427,7.4938,7.4938,7.5014,7.5024,7.5562,7.5361,7.5562,7.5204,7.5071,7.5313,7.5207,7.5062,7.5515,7.5784,7.5592,7.5332,7.5332,7.5399,7.4755,7.5216,7.6053,7.6015,7.5976,7.6015,9.7986,9.7422,9.6643,9.5514,9.4446,9.4369,9.4519,9.4693,9.4723,9.5064,9.5484,9.4828,9.4103,9.3306,9.2809,9.2389,9.2007,9.1166,9.1243,9.2045,9.2083,9.2083,9.216,9.2776,9.2924,9.2684,9.2962,9.312,9.3234,9.3612,9.3612,9.3229,9.3617,9.3808,9.3697,9.3743,9.3896,9.4199,9.3961,9.3005,9.1597,9.1181,9.0799,9.0071,8.7772,8.5819,8.4514,8.2664,8.0888,7.9377,7.8908,7.8369,7.7531,7.7447,7.7476,7.7476,7.7476,7.7092,7.6275,7.5438,7.4591,7.3745,7.2899,7.2283,7.1986,7.2245,7.2129,7.1591,7.1426,7.1568,7.1684,7.1794,7.2063,7.2157,7.1849,7.1811,7.2118,7.1409,7.1409,7.2476,7.2399,7.2514,7.3206,7.3053,7.2745,7.2723,7.2706,7.2976,7.3206,7.3245,7.2976,7.2668,7.286,7.3447,7.3841,7.3764,7.4063,7.4322,7.4245,7.4245,7.4389,7.4774,7.4745,7.463,7.463,7.4524,7.411,7.4178,7.4216,7.3688,7.3764,7.4639,7.5139,7.5216,7.5447,9.7897,9.7236,9.6025,9.4927,9.4128,9.4328,9.4332,9.4215,9.4364,9.4772,9.5341,9.5554,9.5293,9.4681,9.3841,9.3344,9.3038,9.2427,9.2465,9.3115,9.3306,9.3306,9.3153,9.3612,9.3644,9.3486,9.3683,9.3803,9.3841,9.4376,9.4414,9.3955,9.4414,9.4414,9.3841,9.3764,9.3803,9.3803,9.3797,9.3492,9.2886,9.2512,9.1788,9.0602,8.846,8.6432,8.4825,8.3288,8.17,8.0138,8.0061,7.9831,7.9261,7.9177,7.9208,7.9169,7.8977,7.8631,7.8045,7.7198,7.6207,7.5178,7.4476,7.3976,7.364,7.3707,7.3822,7.3783,7.4043,7.3801,7.3119,7.3053,7.2986,7.285,7.2399,7.1975,7.2426,7.1601,7.1332,7.2311,7.2157,7.2052,7.2542,7.2234,7.1849,7.1849,7.2041,7.2195,7.2272,7.2437,7.236,7.1437,7.186,7.2437,7.3024,7.3111,7.288,7.3111,7.3447,7.3255,7.3339,7.3955,7.4197,7.3822,7.3553,7.336,7.3255,7.3217,7.3437,7.3486,7.3524,7.3755,7.4658,7.4822,7.5293,9.9035,9.8631,9.6502,9.5034,9.4264,9.3603,9.3148,9.3136,9.3582,9.416,9.4769,9.5341,9.556,9.5401,9.4681,9.3879,9.3229,9.3077,9.3115,9.3306,9.3917,9.3879,9.3224,9.472,9.5064,9.4446,9.4987,9.5331,9.5369,9.5446,9.5522,9.5446,9.5446,9.5484,9.5369,9.5331,9.5446,9.5331,9.5293,9.5331,9.5102,9.3764,9.2236,9.0669,8.8912,8.7194,8.559,8.4021,8.2441,8.0907,8.0805,8.0844,8.0869,8.09,8.0862,8.0823,8.0169,7.9708,7.9523,7.8776,7.766,7.6284,7.5899,7.5216,7.4072,7.4332,7.463,7.4668,7.5284,7.5351,7.4543,7.3427,7.3129,7.4024,7.2352,7.1958,7.3185,7.1811,7.1811,7.2608,7.1926,7.1245,7.1129,7.0975,7.1052,7.1206,7.1695,7.2195,7.2311,7.2877,7.28,7.2311,7.2091,7.2206,7.2311,7.2437,7.2976,7.3234,7.287,7.2573,7.2822,7.307,7.308,7.3119,7.3053,7.2899,7.2591,7.2668,7.308,7.3157,7.308,7.3455,7.4197,7.5274,7.5745,9.8484,9.7493,9.6649,9.5804,9.507,9.474,9.4224,9.359,9.3783,9.3961,9.416,9.4772,9.4998,9.5018,9.512,9.4987,9.4643,9.4185,9.4223,9.4681,9.4987,9.4987,9.4796,9.5331,9.5484,9.5255,9.5484,9.5598,9.5598,9.5598,9.5598,9.5598,9.5598,9.5598,9.5598,9.5598,9.5598,9.5598,9.5598,9.5369,9.4796,9.3688,9.2542,9.1319,8.9256,8.704,8.4863,8.3754,8.2679,8.1601,8.1167,8.092,8.0946,8.1054,8.1093,8.1054,8.0823,8.04,7.9869,7.9554,7.8861,7.7754,7.7092,7.6621,7.6015,7.5707,7.5553,7.5592,7.5784,7.5784,7.5438,7.4476,7.3783,7.3696,7.265,7.1891,7.2245,7.1657,7.1168,7.1618,7.1206,7.0937,7.0898,7.0898,7.0898,7.0975,7.1657,7.2168,7.2255,7.2514,7.2619,7.2234,7.1706,7.136,7.136,7.1552,7.1898,7.2388,7.2426,7.2322,7.2426,7.2454,7.2503,7.2014,7.2091,7.2091,7.1668,7.1706,7.2157,7.2234,7.2195,7.3157,7.363,7.4784,7.5361,9.7933,9.6795,9.6722,9.6245,9.5547,9.5474,9.4964,9.4175,9.4298,9.4128,9.3972,9.4689,9.506,9.5123,9.5447,9.5789,9.5904,9.5178,9.5102,9.556,9.5598,9.5598,9.5598,9.5598,9.5598,9.5598,9.5598,9.5598,9.5598,9.5598,9.5598,9.5598,9.5598,9.5598,9.5598,9.5598,9.5598,9.5598,9.5598,9.5216,9.4376,9.3535,9.2542,9.1319,8.9485,8.746,8.5167,8.4137,8.3027,8.1995,8.1448,8.1124,8.0953,8.1054,8.1093,8.1093,8.1093,8.0862,8.0331,8.0215,7.9831,7.8992,7.8177,7.7592,7.7314,7.6506,7.6053,7.5976,7.5976,7.5976,7.5822,7.5178,7.4476,7.3801,7.2668,7.1958,7.2118,7.1464,7.0975,7.1014,7.1283,7.1206,7.1014,7.1503,7.158,7.1398,7.2234,7.2927,7.2688,7.264,7.2465,7.2206,7.1783,7.1514,7.1552,7.1745,7.1437,7.1772,7.1849,7.1849,7.1887,7.1849,7.1695,7.1129,7.0898,7.0898,7.0898,7.0898,7.1052,7.1245,7.208,7.3185,7.3707,7.4293,7.5062,9.7419,9.6759,9.6722,9.6282,9.5658,9.5621,9.507,9.4559,9.4927,9.4696,9.43,9.5315,9.5722,9.583,9.5638,9.6019,9.6401,9.5789,9.5522,9.5598,9.5598,9.5598,9.5598,9.5598,9.5598,9.5598,9.5598,9.5598,9.5598,9.5598,9.5598,9.5598,9.5598,9.5598,9.5598,9.5598,9.5598,9.5598,9.5598,9.5216,9.4338,9.3535,9.2427,9.0975,8.9791,8.8453,8.6849,8.5206,8.3639,8.2301,8.1879,8.1601,8.1042,8.0991,8.1093,8.1093,8.1093,8.1093,8.1054,8.1016,8.06,7.9869,7.8992,7.8216,7.7506,7.6659,7.6092,7.6015,7.5976,7.5976,7.5861,7.5216,7.4668,7.4445,7.2696,7.1745,7.1964,7.1541,7.0937,7.1091,7.1591,7.1745,7.1514,7.1926,7.2388,7.2234,7.3108,7.3889,7.338,7.3293,7.3053,7.2591,7.2168,7.1898,7.2014,7.2091,7.1591,7.1206,7.1168,7.1129,7.1245,7.1245,7.1283,7.0898,7.0898,7.0937,7.1321,7.136,7.1695,7.2003,7.2762,7.3378,7.4043,7.4707,7.5284,9.6906,9.6722,9.6722,9.6575,9.6355,9.6318,9.5878,9.518,9.5327,9.5183,9.4987,9.5156,9.548,9.5793,9.5676,9.5751,9.5981,9.5713,9.5598,9.5637,9.5598,9.5598,9.5598,9.5598,9.5598,9.5598,9.5598,9.5598,9.5598,9.5598,9.5598,9.5598,9.5598,9.5598,9.5598,9.5598,9.5598,9.5598,9.5598,9.5446,9.5064,9.3803,9.2809,9.2198,9.0402,8.9027,8.8453,8.6352,8.4671,8.3563,8.2492,8.1566,8.1047,8.0959,8.0991,8.1093,8.1093,8.1093,8.1093,8.1093,8.1016,8.0561,7.9869,7.9054,7.8228,7.7352,7.6659,7.6169,7.6015,7.5976,7.5861,7.5216,7.4784,7.4703,7.352,7.2685,7.2916,7.2811,7.2399,7.1898,7.2052,7.1822,7.1255,7.1745,7.1975,7.1766,7.2534,7.3188,7.3495,7.3611,7.3755,7.3783,7.3091,7.2322,7.236,7.2168,7.1563,7.1245,7.1091,7.0898,7.0898,7.0898,7.0898,7.0898,7.0898,7.1129,7.1541,7.1849,7.208,7.2657,7.3311,7.3899,7.4514,7.5091,7.5592,9.7126,9.7126,9.6832,9.6722,9.6722,9.6722,9.6428,9.5988,9.5948,9.5736,9.542,9.5343,9.5626,9.5847,9.5696,9.5828,9.6019,9.5789,9.5751,9.5981,9.5675,9.5598,9.5598,9.5598,9.5598,9.5598,9.5598,9.5598,9.5598,9.5598,9.5598,9.5598,9.5598,9.5598,9.5598,9.5598,9.5598,9.5598,9.5598,9.5446,9.5025,9.4146,9.3268,9.2504,9.1052,8.9982,8.9294,8.7727,8.6237,8.4747,8.2951,8.1607,8.0903,8.0855,8.092,8.0991,8.1061,8.1093,8.1093,8.1093,8.1093,8.0939,8.0292,7.9438,7.8622,7.7968,7.7391,7.6669,7.6784,7.6784,7.6476,7.6053,7.5582,7.5187,7.412,7.3581,7.3504,7.3514,7.3293,7.286,7.2976,7.2668,7.2168,7.2552,7.2552,7.2534,7.3063,7.3716,7.4216,7.4149,7.4409,7.4332,7.3553,7.2976,7.2668,7.2178,7.1535,7.1332,7.1168,7.1014,7.0898,7.0898,7.0898,7.0898,7.0898,7.1283,7.1695,7.1975,7.2283,7.3053,7.4014,7.4514,7.5091,7.5284,7.5707,9.7897,9.7787,9.7052,9.6722,9.6722,9.6722,9.6685,9.6685,9.6649,9.6284,9.5876,9.5966,9.6204,9.6253,9.5969,9.6043,9.663,9.5942,9.6057,9.6401,9.6133,9.5789,9.5828,9.5828,9.5751,9.5598,9.5598,9.5598,9.5598,9.5598,9.5598,9.5598,9.5598,9.5598,9.5598,9.5598,9.5598,9.5598,9.5598,9.5255,9.4643,9.4414,9.3726,9.2236,9.1778,9.0975,8.9867,8.9179,8.788,8.5588,8.3334,8.1841,8.0994,8.0865,8.1009,8.0997,8.1061,8.1093,8.1093,8.1093,8.1093,8.1016,8.0407,7.9485,7.8823,7.8592,7.8246,7.7515,7.79,7.8054,7.7506,7.7275,7.689,7.613,7.4899,7.4024,7.3688,7.3764,7.3793,7.3783,7.4168,7.4322,7.3416,7.4456,7.4686,7.4571,7.4753,7.5033,7.5274,7.4861,7.4755,7.4447,7.4091,7.3745,7.3476,7.2399,7.1871,7.2129,7.1745,7.1283,7.1014,7.0975,7.1129,7.1091,7.1206,7.1552,7.2157,7.2668,7.336,7.4293,7.4909,7.5255,7.5447,7.563,7.5745,9.7897,9.7823,9.7016,9.6722,9.6722,9.6722,9.6722,9.6722,9.6722,9.6805,9.6907,9.6565,9.6856,9.7591,9.6399,9.6219,9.6578,9.6057,9.6057,9.6783,9.6706,9.6554,9.656,9.6515,9.6172,9.5675,9.5598,9.5598,9.5598,9.5637,9.5637,9.5598,9.5637,9.5598,9.5598,9.5598,9.5598,9.5598,9.5598,9.5522,9.5216,9.4643,9.4185,9.3726,9.2504,9.1663,9.1013,8.994,8.8107,8.5702,8.4365,8.3027,8.1798,8.1643,8.1479,8.1151,8.1029,8.1029,8.1093,8.1093,8.1093,8.1093,8.0862,8.04,7.9523,7.9438,7.9045,7.8438,7.84,7.8477,7.8237,7.816,7.7997,7.7728,7.6245,7.5293,7.5293,7.5293,7.5101,7.4591,7.463,7.4322,7.4043,7.4043,7.4361,7.4168,7.4322,7.4668,7.513,7.5245,7.4947,7.5245,7.5014,7.463,7.4014,7.2899,7.2465,7.2877,7.2503,7.1706,7.1398,7.1129,7.1437,7.1668,7.1898,7.2206,7.3301,7.4148,7.4928,7.5399,7.5592,7.5745,7.5784,7.5899,7.5938,9.8704,9.8337,9.753,9.7016,9.6722,9.6722,9.6722,9.6722,9.6722,9.6877,9.7101,9.6693,9.7005,9.7762,9.6544,9.6501,9.7196,9.6515,9.6859,9.7929,9.8349,9.7929,9.7127,9.6592,9.6095,9.5675,9.5598,9.5828,9.6019,9.5789,9.5789,9.6019,9.5789,9.5598,9.5598,9.5598,9.5598,9.5598,9.5598,9.5598,9.556,9.514,9.4681,9.4376,9.3306,9.2656,9.1739,9.0207,8.8145,8.6008,8.4976,8.406,8.2606,8.2488,8.2173,8.1541,8.1458,8.1446,8.1131,8.1093,8.1093,8.1093,8.1093,8.0638,8.0061,8.0054,8.0008,7.9208,7.9361,7.94,7.9054,7.8746,7.8515,7.8284,7.7331,7.6562,7.6553,7.613,7.5822,7.5399,7.5207,7.5091,7.4591,7.4514,7.4524,7.4639,7.4793,7.5062,7.5255,7.5216,7.5255,7.5553,7.5438,7.4899,7.4476,7.3514,7.2965,7.3378,7.3504,7.2629,7.2283,7.1937,7.2168,7.2552,7.2668,7.3129,7.4379,7.5225,7.539,7.5745,7.5976,7.6092,7.6053,7.6169,7.6207,9.9879,9.9145,9.8264,9.7493,9.6906,9.6722,9.6722,9.6722,9.6722,9.6685,9.6725,9.6539,9.6873,9.7379,9.6706,9.6806,9.802,9.7349,9.7891,9.877,9.9305,9.8846,9.7005,9.6592,9.6057,9.5713,9.5675,9.6172,9.6477,9.6095,9.6172,9.6439,9.5981,9.5637,9.5598,9.5598,9.5598,9.5598,9.5598,9.5598,9.5598,9.5484,9.5178,9.472,9.4338,9.3268,9.1892,9.036,8.8565,8.6084,8.5741,8.4862,8.3524,8.3483,8.2901,8.2169,8.2035,8.183,8.1246,8.1093,8.1093,8.1093,8.1093,8.0823,8.0331,8.0592,8.0669,8.0015,8.0669,8.0516,8.0023,7.9261,7.9069,7.8915,7.8077,7.7493,7.7246,7.6583,7.5976,7.5976,7.5976,7.5976,7.5976,7.5976,7.5938,7.5293,7.5408,7.5485,7.563,7.5668,7.5707,7.5822,7.5515,7.5014,7.463,7.4207,7.385,7.3812,7.4168,7.387,7.3745,7.3514,7.3476,7.3591,7.3822,7.4581,7.5687,7.6111,7.6198,7.639,7.6852,7.6544,7.6245,7.6438,7.6553,10.0209,9.9916,9.8484,9.7787,9.753,9.6979,9.6722,9.6722,9.6722,9.6722,9.6685,9.6649,9.7026,9.7569,9.7191,9.7592,9.8314,9.8087,9.812,9.8273,9.8502,9.8074,9.7188,9.7158,9.6745,9.6057,9.6324,9.6706,9.6783,9.6706,9.6706,9.6706,9.6095,9.5598,9.5598,9.5598,9.5598,9.5598,9.5598,9.5598,9.5598,9.5598,9.5484,9.5216,9.472,9.3535,9.216,9.1472,9.0322,8.8679,8.719,8.6046,8.513,8.4481,8.3594,8.2587,8.2232,8.1952,8.1253,8.1093,8.1093,8.1093,8.1093,8.1016,8.09,8.0939,8.1016,8.0823,8.0977,8.0977,8.0746,8.06,8.0369,8.0061,7.9107,7.8223,7.8006,7.6929,7.6169,7.6053,7.6053,7.6015,7.6015,7.6015,7.6015,7.6015,7.5976,7.5976,7.5976,7.5976,7.5976,7.5976,7.5822,7.5399,7.5245,7.4899,7.4668,7.4504,7.4784,7.4947,7.4793,7.4601,7.437,7.4668,7.5091,7.5967,7.6813,7.7275,7.7361,7.7583,7.7468,7.6929,7.6553,7.6746,7.7024,10.0429,9.9659,9.8814,9.8007,9.7346,9.6869,9.6722,9.6722,9.6722,9.6722,9.6722,9.6722,9.7064,9.7595,9.7255,9.759,9.8849,9.9221,9.9075,9.8846,9.8732,9.8074,9.7112,9.7196,9.6821,9.5866,9.6477,9.6859,9.6898,9.6936,9.6859,9.6821,9.6019,9.5637,9.5598,9.5598,9.5598,9.5598,9.5598,9.5598,9.5598,9.5598,9.5598,9.5446,9.4796,9.3726,9.258,9.1969,9.1166,8.9825,8.8339,8.704,8.6239,8.5475,8.4284,8.3051,8.2842,8.2221,8.1477,8.1093,8.1093,8.1093,8.1093,8.1093,8.1093,8.1093,8.1093,8.1093,8.1093,8.1093,8.1093,8.1054,8.1093,8.09,7.9946,7.9138,7.8815,7.766,7.663,7.663,7.6669,7.663,7.6592,7.6245,7.6015,7.5976,7.5976,7.5976,7.5976,7.5976,7.5976,7.5976,7.5976,7.5899,7.5822,7.5668,7.5438,7.5361,7.5476,7.5592,7.5553,7.5361,7.5101,7.5553,7.6015,7.6823,7.7622,7.8054,7.8023,7.76,7.7216,7.6908,7.6823,7.6899,7.7331,10.065,9.9292,9.9181,9.8227,9.6979,9.6759,9.6722,9.6722,9.6722,9.6722,9.6722,9.6722,9.7027,9.7277,9.7037,9.7829,9.9308,10.0174,9.9916,9.8961,9.9152,9.8158,9.7082,9.6936,9.6859,9.5981,9.6745,9.7165,9.7356,9.7127,9.7241,9.6974,9.6057,9.5637,9.5598,9.5598,9.5598,9.5598,9.5598,9.5598,9.5598,9.5598,9.5598,9.5446,9.5064,9.4108,9.3115,9.2389,9.1586,9.0593,8.8988,8.7883,8.7043,8.6126,8.5164,8.3592,8.35,8.2753,8.167,8.1208,8.1093,8.1093,8.1093,8.1093,8.1093,8.1093,8.1093,8.1093,8.1093,8.1093,8.1093,8.1093,8.1093,8.0939,8.0331,7.99,7.9554,7.8477,7.79,7.7438,7.7207,7.7015,7.6813,7.6544,7.6207,7.5976,7.6015,7.5976,7.5976,7.5976,7.5976,7.5976,7.5976,7.5976,7.5938,7.5938,7.5784,7.5784,7.5938,7.5976,7.5976,7.5784,7.5668,7.6361,7.6938,7.7553,7.7861,7.8015,7.7793,7.7309,7.7147,7.7053,7.7053,7.7092,7.7716,10.0943,10.0026,9.9365,9.8557,9.764,9.6979,9.6722,9.6722,9.6722,9.6722,9.6722,9.6722,9.6762,9.6953,9.7422,9.8316,9.948,10.0151,9.9793,9.8846,9.8923,9.8158,9.6783,9.7127,9.7318,9.7082,9.7502,9.8197,9.8426,9.8311,9.7853,9.7547,9.6401,9.5713,9.5637,9.5598,9.5637,9.5713,9.5675,9.5637,9.5713,9.5637,9.5598,9.5598,9.5369,9.4567,9.3459,9.2924,9.2198,9.0669,8.8988,8.8188,8.7578,8.6509,8.5397,8.4473,8.3811,8.3144,8.2247,8.1477,8.117,8.1093,8.1093,8.1093,8.1093,8.1093,8.1093,8.1093,8.1093,8.1093,8.1093,8.1093,8.1093,8.09,8.0446,7.9908,7.9792,7.9523,7.9023,7.8592,7.7977,7.7438,7.7391,7.7044,7.6506,7.6207,7.6092,7.6053,7.5976,7.5976,7.5976,7.5976,7.5976,7.5976,7.5976,7.5976,7.5899,7.5899,7.5976,7.5976,7.5976,7.5976,7.6207,7.6515,7.6899,7.7361,7.763,7.7861,7.7746,7.7408,7.7323,7.7246,7.7438,7.7669,7.8485,10.0429,9.9622,9.8814,9.8007,9.7273,9.6869,9.6722,9.6722,9.6722,9.6722,9.6722,9.6722,9.6722,9.6762,9.7027,9.7942,9.9041,9.9843,9.9553,9.8906,9.8655,9.8273,9.6821,9.7432,9.7807,9.8113,9.8655,9.8693,9.877,9.8808,9.8311,9.7432,9.6554,9.6057,9.5675,9.5598,9.5866,9.6063,9.5866,9.5828,9.6139,9.5866,9.5637,9.5598,9.556,9.4949,9.3994,9.3229,9.2504,9.1166,8.96,8.8685,8.7884,8.6967,8.5781,8.4821,8.4237,8.3759,8.3009,8.224,8.1778,8.167,8.1362,8.1131,8.1093,8.1093,8.1093,8.1093,8.1093,8.1093,8.1093,8.1093,8.1093,8.1054,8.0708,8.0484,8.0446,8.0446,8.0131,7.9669,7.9208,7.8784,7.8507,7.7929,7.7006,7.6506,7.6284,7.6207,7.6169,7.613,7.6169,7.6207,7.6245,7.6361,7.6322,7.6245,7.6207,7.6169,7.5976,7.5976,7.5976,7.5976,7.5976,7.613,7.6592,7.7092,7.7361,7.7523,7.7476,7.7468,7.7314,7.7352,7.7852,7.843,7.9169,10.0062,9.9292,9.8447,9.7676,9.6979,9.6759,9.6722,9.6722,9.6722,9.6722,9.6722,9.6722,9.6722,9.6762,9.6952,9.7567,9.8555,9.9311,9.9454,9.9107,9.8991,9.8579,9.7967,9.8082,9.8349,9.9029,9.9534,9.9266,9.9075,9.9114,9.8541,9.7815,9.728,9.663,9.6057,9.5751,9.6254,9.6369,9.6101,9.6063,9.6292,9.6025,9.5598,9.5598,9.5598,9.5216,9.4338,9.3803,9.2847,9.1663,9.0364,8.9179,8.8341,8.7386,8.6278,8.5319,8.489,8.434,8.3785,8.2778,8.217,8.2124,8.1516,8.1208,8.1093,8.1093,8.1093,8.1093,8.1093,8.1093,8.1093,8.1093,8.1093,8.1093,8.1093,8.1054,8.0977,8.0939,8.09,8.0592,8.0323,7.99,7.9361,7.8622,7.7622,7.7468,7.7237,7.716,7.7044,7.6583,7.6515,7.6515,7.6592,7.6784,7.6775,7.6659,7.6621,7.6621,7.6245,7.5976,7.5976,7.5976,7.6015,7.6092,7.6284,7.6746,7.7015,7.7139,7.7053,7.7083,7.7121,7.7622,7.8477,7.9054,7.9638,10.087,10.0062,9.9255,9.8484,9.764,9.6979,9.6722,9.6722,9.6722,9.6722,9.6722,9.6722,9.6722,9.6838,9.7247,9.7636,9.8208,9.8944,9.9303,9.8946,9.9498,9.9312,9.8631,9.9649,9.9381,9.9678,10.0145,10.0413,10.0031,9.9649,9.9343,9.877,9.77,9.6821,9.6745,9.6248,9.6101,9.6636,9.6101,9.5713,9.5751,9.5675,9.5637,9.5598,9.556,9.5293,9.4605,9.4185,9.3421,9.2011,9.1013,9.0058,8.9061,8.7651,8.7082,8.6355,8.5622,8.4583,8.4374,8.3292,8.2477,8.2317,8.1593,8.1208,8.1093,8.1093,8.1093,8.1093,8.1093,8.1093,8.1093,8.1093,8.1093,8.1093,8.1093,8.1093,8.1093,8.1093,8.1093,8.1054,8.0708,8.0331,7.9908,7.9092,7.8353,7.8305,7.8228,7.8113,7.7882,7.7391,7.7121,7.7169,7.7284,7.7468,7.7468,7.7275,7.7198,7.7121,7.6813,7.6361,7.6515,7.6659,7.6207,7.6322,7.6438,7.6515,7.6707,7.6784,7.663,7.6929,7.7314,7.8284,7.9369,7.9831,8.0177,10.0062,9.8924,9.8557,9.797,9.7236,9.6832,9.6722,9.6722,9.6722,9.6722,9.6722,9.6722,9.6722,9.6762,9.7064,9.7391,9.7806,9.8679,9.9216,9.9092,9.9629,9.9763,9.9656,9.9763,9.9763,10.0222,10.0375,10.0527,10.0451,10.026,9.9916,9.9305,9.8693,9.8082,9.7585,9.7203,9.7286,9.7286,9.6789,9.6139,9.5751,9.5598,9.5598,9.5598,9.5598,9.5369,9.5064,9.4529,9.3797,9.2575,9.1735,9.0589,8.9443,8.8224,8.7425,8.6853,8.5932,8.5389,8.5258,8.3874,8.3247,8.2663,8.1932,8.1131,8.1093,8.1093,8.1093,8.1093,8.1093,8.1093,8.1093,8.1093,8.1093,8.1093,8.1093,8.1093,8.1093,8.1093,8.1093,8.1093,8.1054,8.0708,8.0369,7.9792,7.9246,7.9169,7.89,7.8554,7.84,7.813,7.7977,7.7977,7.8092,7.8276,7.8199,7.8045,7.8036,7.7959,7.792,7.7583,7.7545,7.7468,7.7015,7.6784,7.6938,7.6899,7.6736,7.6583,7.6583,7.7092,7.7669,7.8715,7.9792,8.0369,8.0708,9.9071,9.764,9.8007,9.775,9.6979,9.6795,9.6722,9.6722,9.6722,9.6722,9.6722,9.6722,9.6722,9.6722,9.6762,9.699,9.7425,9.8142,9.8679,9.9046,9.9454,9.9851,9.9946,9.9878,10.0107,10.0604,10.0527,10.0604,10.0604,10.0489,10.0222,9.9687,9.9343,9.8999,9.8464,9.7776,9.7477,9.7057,9.6942,9.6407,9.5751,9.5598,9.5598,9.5598,9.5598,9.5598,9.5484,9.5064,9.4294,9.3066,9.2499,9.1434,8.9902,8.8644,8.7844,8.7198,8.6355,8.5811,8.5531,8.472,8.3984,8.317,8.2201,8.1093,8.1093,8.1093,8.1093,8.1093,8.1093,8.1093,8.1093,8.1093,8.1093,8.1093,8.1093,8.1093,8.1093,8.1093,8.1093,8.1093,8.1093,8.1093,8.0746,8.0407,8.0138,8.0023,7.9607,7.9107,7.8915,7.8908,7.8938,7.8977,7.9246,7.94,7.9353,7.9161,7.9037,7.8767,7.8729,7.8353,7.8054,7.8015,7.7793,7.7639,7.7553,7.7583,7.7545,7.7044,7.6698,7.7776,7.8776,7.9254,8.0023,8.0708,8.1054,9.8264,9.6906,9.8374,9.8484,9.7676,9.7016,9.6722,9.6722,9.6722,9.6722,9.6722,9.6685,9.6685,9.6685,9.6649,9.6725,9.6801,9.7425,9.7874,9.8365,9.8966,9.9568,9.9869,10.0175,10.0404,10.0566,10.0604,10.0604,10.0604,10.0604,10.0527,10.0451,9.9878,9.9496,9.877,9.7853,9.6936,9.6598,9.6522,9.6369,9.5789,9.5598,9.5598,9.5598,9.5598,9.5598,9.5598,9.5446,9.4752,9.3371,9.2957,9.2198,9.0593,8.9103,8.8265,8.7887,8.6738,8.6233,8.5954,8.5258,8.4407,8.3401,8.2285,8.1208,8.1093,8.1093,8.1093,8.1093,8.1093,8.1093,8.1093,8.1093,8.1093,8.1093,8.1093,8.1093,8.1093,8.1093,8.1093,8.1093,8.1093,8.1093,8.1093,8.0746,8.0669,8.0523,8.0523,8.0023,7.9984,7.9908,7.9977,8.0092,8.0477,8.0669,8.0708,8.0439,7.9862,7.9554,7.9477,7.8792,7.807,7.8146,7.8831,7.8331,7.8177,7.8314,7.8382,7.8006,7.8083,7.9114,7.9807,7.9939,8.0254,8.0862,8.1054,9.7713,9.6832,9.7897,9.7897,9.7163,9.6832,9.6722,9.6722,9.6722,9.6722,9.6685,9.6685,9.6428,9.6245,9.6502,9.6392,9.6174,9.7206,9.7562,9.7942,9.8642,9.9249,9.9594,9.9923,10.0189,10.051,10.0604,10.0604,10.0604,10.0604,10.0604,10.0451,10.0183,9.984,9.9037,9.7853,9.6821,9.6363,9.6133,9.5866,9.5751,9.5598,9.5598,9.5598,9.5598,9.5598,9.5598,9.5598,9.4866,9.4064,9.3377,9.2389,9.1204,8.96,8.8955,8.8768,8.7427,8.6809,8.6453,8.5599,8.4291,8.3016,8.2163,8.167,8.1362,8.117,8.1093,8.1093,8.1131,8.1208,8.1093,8.1093,8.1093,8.1093,8.1093,8.1093,8.1093,8.1093,8.1093,8.1093,8.1093,8.1093,8.1093,8.1054,8.1054,8.1016,8.1054,8.1016,8.0823,8.0708,8.0631,8.0592,8.09,8.1016,8.1054,8.0823,8.0561,8.0369,8.0177,7.953,7.8954,7.9708,8.0123,7.9477,7.8946,7.9169,7.9199,7.9007,7.9276,7.9815,8.0046,8.01,8.0523,8.1054,8.1093,9.7199,9.6795,9.7273,9.7236,9.6722,9.6722,9.6722,9.6685,9.6465,9.6315,9.6392,9.6539,9.6428,9.6171,9.6355,9.6465,9.636,9.6879,9.7245,9.7636,9.8067,9.8764,9.9216,9.9552,9.979,10.0375,10.0375,10.0326,10.0604,10.0604,10.0604,10.0527,10.0336,9.9801,9.919,9.7807,9.6814,9.6401,9.6019,9.5598,9.5598,9.5598,9.5598,9.5598,9.5598,9.5598,9.5598,9.556,9.4943,9.4103,9.3301,9.2504,9.1357,9.0291,8.9569,8.9036,8.8423,8.7538,8.6953,8.5791,8.4407,8.3555,8.2932,8.2439,8.1977,8.1785,8.2016,8.1516,8.1477,8.1362,8.1208,8.1093,8.1093,8.1093,8.1093,8.1093,8.1093,8.1093,8.1093,8.1093,8.1093,8.1093,8.1093,8.1093,8.1093,8.1093,8.1093,8.1093,8.1016,8.0939,8.0977,8.0939,8.1016,8.1093,8.1054,8.0939,8.0823,8.0823,8.06,8.0484,8.0362,8.0931,8.0808,7.9862,7.96,8.0015,8.0092,8.0008,8.0054,8.0246,8.0369,8.0484,8.0669,8.1093,8.1093,9.6722,9.6722,9.6759,9.6759,9.6722,9.6722,9.6722,9.6612,9.5948,9.5655,9.5765,9.6318,9.6575,9.6502,9.6539,9.6502,9.6428,9.6615,9.6838,9.7027,9.7499,9.8126,9.8486,9.8871,9.9291,10.0177,10.0227,10.0139,10.0604,10.0604,10.0604,10.0251,9.9746,9.9182,9.9152,9.7731,9.6509,9.5789,9.5713,9.5751,9.5751,9.5713,9.5598,9.5598,9.5598,9.5598,9.5598,9.5598,9.5025,9.4064,9.353,9.2656,9.1281,9.0287,8.9758,8.9572,8.8883,8.8038,8.7264,8.5796,8.5137,8.4637,8.3978,8.3401,8.3401,8.3324,8.2862,8.2093,8.2086,8.1778,8.1439,8.1093,8.1093,8.1093,8.1093,8.1093,8.1093,8.1093,8.1093,8.1093,8.1093,8.1093,8.1093,8.1093,8.1093,8.1093,8.1093,8.1093,8.1093,8.1093,8.1093,8.1093,8.1093,8.1093,8.1093,8.1093,8.1054,8.1093,8.1016,8.0862,8.0746,8.0862,8.0592,8.0023,8.0215,8.0554,8.0823,8.0977,8.0823,8.0669,8.0823,8.0977,8.1054,8.1093,8.1093,9.6722,9.6722,9.6722,9.6722,9.6722,9.6722,9.6722,9.6575,9.5878,9.5474,9.5547,9.5801,9.5875,9.6061,9.6428,9.6465,9.6098,9.6612,9.6722,9.6762,9.7027,9.7431,9.7876,9.8263,9.878,9.9631,9.982,9.9986,10.0604,10.0604,10.0604,10.0251,9.8878,9.7915,9.7647,9.705,9.6668,9.6515,9.6439,9.6484,9.6363,9.5942,9.5598,9.5598,9.5598,9.5598,9.5598,9.5598,9.5178,9.4446,9.4146,9.3229,9.2164,9.1285,9.0714,9.0338,8.9688,8.8917,8.8371,8.7517,8.6863,8.5978,8.5022,8.433,8.3753,8.3632,8.3093,8.2631,8.2586,8.2086,8.1323,8.1131,8.1093,8.1093,8.1093,8.1093,8.1093,8.1093,8.1093,8.1093,8.1093,8.1093,8.1093,8.1093,8.1093,8.1093,8.1093,8.1093,8.1093,8.1093,8.1093,8.1093,8.1093,8.1093,8.1093,8.1093,8.1093,8.1093,8.1093,8.1016,8.0977,8.0939,8.0862,8.0561,8.0823,8.1093,8.1093,8.1093,8.1093,8.1054,8.1093,8.1093,8.1093,8.1093,8.1093,9.6539,9.6282,9.6282,9.6098,9.5988,9.6465,9.6575,9.6282,9.5733,9.5476,9.5584,9.5765,9.5948,9.6135,9.6355,9.6539,9.5988,9.6428,9.6722,9.6722,9.6722,9.7203,9.7579,9.7689,9.8402,9.9178,9.9611,9.9843,9.9896,10.0375,10.0137,9.9241,9.7832,9.7132,9.6761,9.6515,9.6196,9.6226,9.6295,9.6477,9.6439,9.6172,9.5637,9.5598,9.5598,9.5598,9.5598,9.556,9.5446,9.5178,9.4681,9.3994,9.3196,9.2359,9.1712,9.1183,9.0262,8.9758,8.9556,8.8743,8.8055,8.7637,8.6406,8.5406,8.4676,8.467,8.4132,8.3632,8.3202,8.2471,8.1785,8.1631,8.1439,8.1439,8.1246,8.1246,8.1246,8.1246,8.1208,8.1208,8.1093,8.1093,8.1093,8.1093,8.1093,8.1093,8.1093,8.1093,8.1093,8.1093,8.1093,8.1093,8.1093,8.1093,8.1093,8.1093,8.1093,8.1093,8.1093,8.1093,8.1093,8.1016,8.1054,8.1093,8.1093,8.1093,8.1093,8.1093,8.1093,8.1093,8.1093,8.1093,8.1093,8.1093,8.1093,9.6245,9.5547,9.5511,9.507,9.4666,9.5804,9.5948,9.5395,9.5403,9.5327,9.5431,9.5985,9.6245,9.6575,9.6649,9.6575,9.6612,9.6685,9.6685,9.6722,9.6722,9.7166,9.7431,9.7542,9.8012,9.8588,9.9103,9.9138,9.8922,9.9417,9.9248,9.8144,9.6749,9.6233,9.5945,9.5676,9.5638,9.6219,9.6562,9.6661,9.6668,9.6057,9.5675,9.5598,9.5598,9.5598,9.5598,9.5598,9.5255,9.4911,9.4529,9.395,9.3268,9.2474,9.2215,9.1644,9.0565,9.0598,9.0556,8.9594,8.9286,8.8983,8.8209,8.7171,8.6324,8.5863,8.5286,8.4747,8.4247,8.3433,8.2701,8.2394,8.2124,8.1893,8.1516,8.1477,8.1477,8.1477,8.14,8.1323,8.117,8.1093,8.1093,8.1093,8.1093,8.1093,8.1093,8.1093,8.1093,8.1093,8.1093,8.1093,8.1093,8.1093,8.1093,8.1093,8.1093,8.1093,8.1093,8.1093,8.1093,8.1093,8.1093,8.1093,8.1093,8.1093,8.1093,8.1093,8.1093,8.1093,8.1093,8.1093,8.1093,8.1093,8.1093,9.6245,9.5511,9.5511,9.5034,9.4336,9.4189,9.4006,9.3784,9.3819,9.4036,9.4666,9.4261,9.5251,9.6575,9.6135,9.6282,9.6539,9.6722,9.6722,9.6722,9.6722,9.6832,9.6985,9.71,9.7428,9.7874,9.8236,9.8555,9.8529,9.8763,9.7951,9.6724,9.581,9.545,9.508,9.4877,9.5901,9.6714,9.6951,9.6929,9.6668,9.6057,9.5751,9.5598,9.5598,9.5598,9.5598,9.5598,9.5369,9.5293,9.5255,9.4828,9.4064,9.3239,9.2598,9.1375,9.0947,9.0979,9.1095,9.0748,9.0364,9.0059,8.9367,8.844,8.7555,8.6824,8.6324,8.5593,8.5055,8.4247,8.3625,8.324,8.2971,8.2663,8.2439,8.2401,8.2401,8.2401,8.2285,8.167,8.1516,8.1093,8.1093,8.1093,8.1093,8.1093,8.1093,8.1093,8.1093,8.1093,8.1093,8.1093,8.1093,8.1093,8.1093,8.1093,8.1093,8.1093,8.1093,8.1093,8.1093,8.1093,8.1093,8.1093,8.1093,8.1093,8.1093,8.1093,8.1093,8.1093,8.1093,8.1093,8.1093,8.1093,8.1093,9.529,9.4593,9.4556,9.4079,9.3272,9.2794,9.2574,9.2648,9.2939,9.3564,9.4226,9.4224,9.4884,9.5988,9.6098,9.6282,9.6685,9.6722,9.6722,9.6722,9.6722,9.6722,9.6799,9.6915,9.7208,9.744,9.7748,9.8142,9.7806,9.704,9.6231,9.581,9.5064,9.4738,9.4681,9.5245,9.5982,9.6627,9.699,9.7005,9.663,9.6057,9.5751,9.5598,9.5598,9.5598,9.5598,9.5598,9.5598,9.5598,9.5598,9.5407,9.4643,9.3855,9.3216,9.2179,9.1867,9.1787,9.1748,9.1748,9.121,9.0675,9.0329,8.944,8.8402,8.7478,8.6632,8.5786,8.5478,8.506,8.4555,8.4055,8.3824,8.3593,8.3555,8.3516,8.3516,8.3522,8.3016,8.2285,8.1747,8.1246,8.1093,8.1093,8.1093,8.1093,8.1093,8.1093,8.1093,8.1093,8.1093,8.1093,8.1093,8.1093,8.1093,8.1093,8.1093,8.1093,8.1093,8.1093,8.1093,8.1093,8.1093,8.1093,8.1093,8.1093,8.1093,8.1093,8.1093,8.1093,8.1093,8.1093,8.1093,8.1093,8.1093,9.3859,9.3125,9.3051,9.2648,9.1877,9.184,9.1877,9.1877,9.2611,9.3419,9.4189,9.4921,9.5105,9.5474,9.5914,9.6282,9.6502,9.6575,9.6722,9.6685,9.6722,9.6722,9.6877,9.721,9.6952,9.7208,9.7311,9.7154,9.6363,9.5618,9.5045,9.4857,9.43,9.411,9.471,9.5388,9.581,9.5853,9.6077,9.6133,9.6401,9.6057,9.5598,9.5598,9.5598,9.5598,9.5598,9.5598,9.5598,9.5598,9.5598,9.556,9.4964,9.4359,9.3755,9.333,9.2826,9.2672,9.2515,9.2399,9.1979,9.1518,9.121,9.0094,8.8902,8.8094,8.7209,8.617,8.5747,8.5593,8.5132,8.5016,8.4824,8.4747,8.4709,8.4786,8.4901,8.4478,8.3478,8.2785,8.217,8.1708,8.1477,8.1516,8.1323,8.1208,8.1093,8.1093,8.1093,8.1093,8.1093,8.1093,8.1093,8.1093,8.1093,8.1093,8.1093,8.1093,8.1093,8.1093,8.1093,8.1093,8.1093,8.1093,8.1093,8.1093,8.1093,8.1093,8.1093,8.1093,8.1093,8.1093,8.1093,8.1093,8.1093,9.3822,9.3051,9.2391,9.195,9.1803,9.1803,9.1803,9.1803,9.195,9.2574,9.3345,9.3674,9.4114,9.4777,9.5621,9.5988,9.5951,9.6502,9.6685,9.6649,9.6649,9.6722,9.6685,9.6766,9.6509,9.6104,9.5995,9.5992,9.5074,9.4301,9.3968,9.4293,9.3821,9.392,9.4318,9.4963,9.5266,9.5103,9.5561,9.5668,9.5866,9.5866,9.5598,9.5598,9.5598,9.5598,9.5598,9.5598,9.5598,9.5598,9.5598,9.5342,9.4898,9.4556,9.4177,9.3789,9.3595,9.3441,9.3172,9.2864,9.2364,9.1979,9.1402,9.021,8.9248,8.8671,8.7863,8.6748,8.6055,8.594,8.5863,8.5824,8.5824,8.5786,8.5791,8.6017,8.617,8.5093,8.3978,8.3362,8.2708,8.2362,8.2124,8.1893,8.1631,8.14,8.117,8.1093,8.1093,8.1093,8.1093,8.1093,8.1093,8.1093,8.1093,8.1093,8.1093,8.1093,8.1093,8.1093,8.1093,8.1246,8.1362,8.117,8.1093,8.117,8.1208,8.1093,8.1093,8.1093,8.1093,8.1093,8.1093,8.1093,8.1093,9.2905,9.2464,9.1987,9.1803,9.1803,9.1803,9.1803,9.1803,9.1803,9.206,9.2648,9.3234,9.3858,9.452,9.5474,9.5621,9.5694,9.6355,9.6318,9.6282,9.6465,9.6685,9.6649,9.6355,9.5988,9.5511,9.4997,9.4631,9.3822,9.3859,9.3896,9.3492,9.3198,9.3492,9.3639,9.4117,9.4689,9.4436,9.5159,9.5547,9.5598,9.5598,9.5598,9.5598,9.5598,9.5598,9.5598,9.5598,9.5598,9.5643,9.5648,9.5661,9.5287,9.4905,9.4869,9.4789,9.4557,9.4134,9.3713,9.3287,9.2633,9.2095,9.1595,9.0402,8.9748,8.9094,8.8017,8.6978,8.6209,8.5978,8.6209,8.6247,8.6209,8.617,8.6406,8.6642,8.6176,8.5247,8.4632,8.4286,8.367,8.3054,8.2894,8.2894,8.2547,8.197,8.167,8.1362,8.1285,8.1131,8.1131,8.1131,8.1131,8.1131,8.1093,8.1093,8.1093,8.1093,8.1131,8.117,8.1246,8.1516,8.1631,8.1439,8.1323,8.14,8.14,8.117,8.1093,8.1093,8.1093,8.1093,8.1093,8.1093,8.1093,9.184,9.1803,9.1803,9.1803,9.1803,9.1803,9.1803,9.1803,9.1803,9.1803,9.206,9.3418,9.4006,9.452,9.5731,9.5584,9.5584,9.5694,9.5658,9.5658,9.5951,9.5914,9.5765,9.5655,9.5254,9.4703,9.4153,9.3565,9.2941,9.3308,9.3308,9.2501,9.2794,9.3455,9.2941,9.3455,9.4393,9.4361,9.4782,9.5509,9.5598,9.5598,9.5598,9.5598,9.5598,9.5598,9.5598,9.5598,9.5598,9.5648,9.5696,9.5744,9.571,9.5367,9.5637,9.5558,9.5134,9.4559,9.4059,9.3522,9.2636,9.1864,9.1402,9.0864,9.0136,8.9286,8.8209,8.7555,8.6786,8.6478,8.6709,8.6709,8.6632,8.6709,8.7022,8.7026,8.6176,8.5406,8.517,8.4978,8.4555,8.3901,8.3779,8.374,8.3356,8.2778,8.224,8.1932,8.1593,8.1362,8.1246,8.1246,8.1285,8.1208,8.1093,8.1131,8.117,8.1246,8.1285,8.1323,8.1516,8.2131,8.2247,8.1631,8.1593,8.167,8.1439,8.1131,8.1093,8.1093,8.1093,8.1093,8.1093,8.1093,8.1093,9.1803,9.1803,9.1803,9.1803,9.1803,9.1803,9.1803,9.1803,9.1803,9.1803,9.2024,9.2647,9.2978,9.2427,9.474,9.5107,9.4189,9.463,9.474,9.463,9.496,9.4887,9.485,9.4774,9.4151,9.3565,9.2978,9.2317,9.2427,9.3015,9.3235,9.2794,9.2905,9.3198,9.3125,9.3638,9.398,9.4098,9.4782,9.5598,9.5598,9.5598,9.5598,9.5598,9.5598,9.5598,9.5598,9.5598,9.5598,9.5648,9.5738,9.5862,9.5826,9.579,9.5982,9.5751,9.5326,9.4788,9.4174,9.3366,9.2367,9.2018,9.1518,9.0902,9.021,8.9517,8.8786,8.8594,8.7979,8.7704,8.7704,8.7435,8.7286,8.744,8.7675,8.6945,8.617,8.567,8.5253,8.5324,8.5286,8.4863,8.4637,8.4555,8.4362,8.367,8.2824,8.2554,8.2593,8.2054,8.1439,8.1477,8.1554,8.1246,8.1093,8.1246,8.1323,8.14,8.167,8.2054,8.2554,8.3093,8.2978,8.2131,8.19,8.1977,8.1631,8.1093,8.1093,8.1093,8.1093,8.1093,8.1093,8.1093,8.1093]},{"header":{"parameterUnit":"m.s-1","parameterCategory":1,"la1":31.0,"la2":29.5877,"lo1":-88.7671,"lo2":-86.6584,"dy":0.0162,"dx":0.0185,"nx":115,"ny":88,"refTime":"2024-04-19T06:00:00:Z","depth":0,"parameterNumber":3,"parameterNumberName":"V-component_of_WINDS"},"data":[0.0,0.0,0.0,0.0,0.0,0.0,0.0,0.0,0.0,0.0,0.0,0.0,0.0,0.0,0.0,0.0,0.0,0.0,0.0,0.0,0.0,0.0,0.0,0.0,0.0,0.0,0.0,0.0,0.0,0.0,0.0,0.0,0.0,0.0,0.0,0.0,0.0,0.0,0.0,0.0,0.0,0.0,0.0,0.0,0.0,0.0,0.0,0.0,0.0,0.0,0.0,0.0,0.0,0.0,0.0,0.0,0.0,0.0,0.0,0.0,0.0,0.0,0.0,0.0,0.0,0.0,0.0,0.0,0.0,0.0,0.0,0.0,0.0,0.0,0.0,0.0,0.0,0.0,0.0,0.0,0.0,0.0,0.0,0.0,0.0,0.0,0.0,0.0,0.0,0.0,0.0,0.0,0.0,0.0,0.0,0.0,0.0,0.0,0.0,0.0,0.0,0.0,0.0,0.0,0.0,0.0,0.0,0.0,0.0,0.0,0.0,0.0,0.0,0.0,0.0,0.0,0.0,0.0,0.0,0.0,0.0,0.0,0.0,0.0,0.0,0.0,0.0,0.0,0.0,0.0,0.0,0.0,0.0,0.0,0.0,0.0,0.0,0.0,0.0,0.0,0.0,0.0,0.0,0.0,0.0,0.0,0.0,0.0,0.0,0.0,0.0,0.0,0.0,0.0,0.0,0.0,0.0,0.0,0.0,0.0,0.0,0.0,0.0,0.0,0.0,0.0,0.0,0.0,0.0,0.0,0.0,0.0,0.0,0.0,0.0,0.0,0.0,0.0,0.0,0.0,0.0,0.0,0.0,0.0,0.0,0.0,0.0,0.0,0.0,0.0,0.0,0.0,0.0,0.0,0.0,0.0,0.0,0.0,0.0,0.0,0.0,0.0,0.0,0.0,0.0,0.0,0.0,0.0,0.0,0.0,0.0,0.0,0.0,0.0,0.0,0.0,0.0,0.0,0.0,0.0,0.0,0.0,0.0,0.0,0.0,0.0,0.0,0.0,0.0,0.0,0.0,0.0,0.0,0.0,0.0,0.0,0.0,0.0,0.0,0.0,0.0,0.0,0.0,0.0,0.0,0.0,0.0,0.0,0.0,0.0,0.0,0.0,0.0,0.0,0.0,0.0,0.0,0.0,0.0,0.0,0.0,0.0,0.0,0.0,0.0,0.0,0.0,0.0,0.0,0.0,0.0,0.0,0.0,0.0,0.0,0.0,0.0,0.0,0.0,0.0,0.0,0.0,0.0,0.0,0.0,0.0,0.0,0.0,0.0,0.0,0.0,0.0,0.0,0.0,0.0,0.0,0.0,0.0,0.0,0.0,0.0,0.0,0.0,0.0,0.0,0.0,0.0,0.0,0.0,0.0,0.0,0.0,0.0,0.0,0.0,0.0,0.0,0.0,0.0,0.0,0.0,0.0,0.0,0.0,0.0,0.0,0.0,0.0,0.0,0.0,0.0,0.0,0.0,0.0,0.0,0.0,0.0,0.0,0.0,0.0,0.0,0.0,0.0,0.0,0.0,0.0,0.0,0.0,0.0,0.0,0.0,0.0,0.0,0.0,0.0,0.0,0.0,0.0,0.0,0.0,0.0,0.0,0.0,0.0,0.0,0.0,0.0,0.0,0.0,0.0,0.0,0.0,0.0,0.0,0.0,0.0,0.0,0.0,0.0,0.0,0.0,0.0,0.0,0.0,0.0,0.0,0.0,0.0,0.0,0.0,0.0,0.0,0.0,0.0,0.0,0.0,0.0,0.0,0.0,0.0,0.0,0.0,0.0,0.0,0.0,0.0,0.0,0.0,0.0,0.0,0.0,0.0,0.0,0.0,0.0,0.0,0.0,0.0,0.0,0.0,0.0,0.0,0.0,0.0,0.0,0.0,0.0,0.0,0.0,0.0,0.0,0.0,0.0,0.0,0.0,0.0,0.0,0.0,0.0,0.0,0.0,0.0,0.0,0.0,0.0,0.0,0.0,0.0,0.0,0.0,0.0,0.0,0.0,0.0,0.0,0.0,0.0,0.0,0.0,0.0,0.0,0.0,0.0,0.0,0.0,0.0,0.0,0.0,0.0,0.0,0.0,0.0,0.0,0.0,0.0,0.0,0.0,0.0,0.0,0.0,0.0,0.0,0.0,0.0,0.0,0.0,0.0,0.0,0.0,0.0,0.0,0.0,0.0,0.0,0.0,0.0,0.0,0.0,0.0,0.0,0.0,0.0,0.0,0.0,0.0,0.0,0.0,0.0,0.0,0.0,0.0,0.0,0.0,0.0,0.0,0.0,0.0,0.0,0.0,0.0,0.0,0.0,0.0,0.0,0.0,0.0,0.0,0.0,0.0,0.0,0.0,0.0,0.0,0.0,0.0,0.0,0.0,0.0,0.0,0.0,0.0,0.0,0.0,0.0,0.0,0.0,0.0,0.0,0.0,0.0,0.0,0.0,0.0,0.0,0.0,0.0,0.0,0.0,0.0,0.0,0.0,0.0,0.0,0.0,0.0,0.0,0.0,0.0,0.0,0.0,0.0,0.0,0.0,0.0,0.0,0.0,0.0,0.0,0.0,0.0,0.0,0.0,0.0,0.0,0.0,0.0,0.0,0.0,0.0,0.0,0.0,0.0,0.0,0.0,0.0,0.0,0.0,0.0,0.0,0.0,0.0,0.0,0.0,0.0,0.0,0.0,0.0,0.0,0.0,0.0,0.0,0.0,0.0,0.0,0.0,0.0,0.0,0.0,0.0,0.0,0.0,0.0,0.0,0.0,0.0,0.0,0.0,0.0,0.0,0.0,0.0,0.0,0.0,0.0,0.0,0.0,0.0,0.0,0.0,0.0,0.0,0.0,0.0,0.0,0.0,0.0,0.0,0.0,0.0,0.0,0.0,0.0,0.0,0.0,0.0,0.0,0.0,0.0,0.0,0.0,0.0,0.0,0.0,0.0,0.0,0.0,0.0,0.0,0.0,0.0,0.0,0.0,0.0,0.0,0.0,0.0,0.0,0.0,0.0,0.0,0.0,0.0,0.0,0.0,0.0,0.0,0.0,0.0,0.0,0.0,0.0,0.0,0.0,0.0,0.0,0.0,0.0,0.0,0.0,0.0,0.0,0.0,0.0,0.0,0.0,0.0,0.0,0.0,0.0,0.0,0.0,0.0,0.0,0.0,0.0,0.0,0.0,0.0,0.0,0.0,0.0,0.0,0.0,0.0,0.0,0.0,0.0,0.0,0.0,0.0,0.0,0.0,0.0,0.0,0.0,0.0,0.0,0.0,0.0,0.0,0.0,0.0,0.0,0.0,0.0,0.0,0.0,0.0,0.0,0.0,0.0,0.0,0.0,0.0,0.0,0.0,0.0,0.0,0.0,0.0,0.0,0.0,0.0,0.0,0.0,0.0,0.0,0.0,0.0,0.0,0.0,0.0,0.0,0.0,0.0,0.0,0.0,0.0,0.0,0.0,0.0,0.0,0.0,0.0,0.0,0.0,0.0,0.0,0.0,0.0,0.0,0.0,0.0,0.0,0.0,0.0,0.0,0.0,0.0,0.0,0.0,0.0,0.0,0.0,0.0,0.0,0.0,0.0,0.0,0.0,0.0,0.0,0.0,0.0,0.0,0.0,0.0,0.0,0.0,0.0,0.0,0.0,0.0,0.0,0.0,0.0,0.0,0.0,0.0,0.0,0.0,0.0,0.0,0.0,0.0,0.0,0.0,0.0,0.0,0.0,0.0,0.0,0.0,0.0,0.0,0.0,0.0,0.0,0.0,0.0,0.0,0.0,0.0,0.0,0.0,0.0,0.0,0.0,0.0,0.0,0.0,0.0,0.0,0.0,0.0,0.0,0.0,0.0,0.0,0.0,0.0,0.0,0.0,0.0,0.0,0.0,0.0,0.0,0.0,0.0,0.0,0.0,0.0,0.0,0.0,0.0,0.0,0.0,0.0,0.0,0.0,0.0,0.0,0.0,0.0,0.0,0.0,0.0,0.0,0.0,0.0,0.0,0.0,0.0,0.0,0.0,0.0,0.0,0.0,0.0,0.0,0.0,0.0,0.0,0.0,0.0,0.0,0.0,0.0,0.0,0.0,0.0,0.0,0.0,0.0,0.0,0.0,0.0,0.0,0.0,0.0,0.0,0.0,0.0,0.0,0.0,0.0,0.0,0.0,0.0,0.0,0.0,0.0,0.0,0.0,0.0,0.0,0.0,0.0,0.0,0.0,0.0,0.0,0.0,0.0,0.0,0.0,0.0,0.0,0.0,0.0,0.0,0.0,0.0,0.0,0.0,0.0,0.0,0.0,0.0,0.0,0.0,0.0,0.0,0.0,0.0,0.0,0.0,0.0,0.0,0.0,0.0,0.0,0.0,0.0,0.0,0.0,0.0,0.0,0.0,0.0,0.0,0.0,0.0,0.0,0.0,0.0,0.0,0.0,0.0,0.0,0.0,0.0,0.0,0.0,0.0,0.0,0.0,0.0,0.0,0.0,0.0,0.0,0.0,0.0,0.0,0.0,0.0,0.0,0.0,0.0,0.0,0.0,0.0,0.0,0.0,0.0,0.0,0.0,0.0,0.0,0.0,0.0,0.0,0.0,0.0,0.0,0.0,0.0,0.0,0.0,0.0,0.0,0.0,0.0,0.0,0.0,0.0,0.0,0.0,0.0,0.0,0.0,0.0,0.0,0.0,0.0,0.0,0.0,0.0,0.0,0.0,0.0,0.0,0.0,0.0,0.0,0.0,0.0,0.0,0.0,0.0,0.0,0.0,0.0,0.0,0.0,0.0,0.0,0.0,0.0,0.0,0.0,0.0,0.0,0.0,0.0,0.0,0.0,0.0,0.0,0.0,0.0,0.0,0.0,0.0,0.0,0.0,0.0,0.0,0.0,0.0,0.0,0.0,0.0,0.0,0.0,0.0,0.0,0.0,0.0,0.0,0.0,0.0,0.0,0.0,0.0,0.0,0.0,0.0,0.0,0.0,0.0,0.0,0.0,0.0,0.0,0.0,0.0,0.0,0.0,0.0,0.0,0.0,0.0,0.0,0.0,0.0,0.0,0.0,0.0,0.0,0.0,0.0,0.0,0.0,0.0,0.0,0.0,0.0,0.0,0.0,0.0,0.0,0.0,0.0,0.0,0.0,0.0,0.0,0.0,0.0,0.0,0.0,0.0,0.0,0.0,0.0,0.0,0.0,0.0,0.0,0.0,0.0,0.0,0.0,0.0,0.0,0.0,0.0,0.0,0.0,0.0,0.0,0.0,0.0,0.0,0.0,0.0,0.0,0.0,0.0,0.0,0.0,0.0,0.0,0.0,0.0,0.0,0.0,0.0,0.0,0.0,0.0,0.0,0.0,0.0,0.0,0.0,0.0,0.0,0.0,0.0,0.0,0.0,0.0,0.0,0.0,0.0,0.0,0.0,0.0,0.0,0.0,0.0,0.0,0.0,0.0,0.0,0.0,0.0,0.0,0.0,0.0,0.0,0.0,0.0,0.0,0.0,0.0,0.0,0.0,0.0,0.0,0.0,0.0,0.0,0.0,0.0,0.0,0.0,0.0,0.0,0.0,0.0,0.0,0.0,0.0,0.0,0.0,0.0,0.0,0.0,0.0,0.0,0.0,0.0,0.0,0.0,0.0,0.0,0.0,0.0,0.0,0.0,0.0,0.0,0.0,0.0,0.0,0.0,0.0,0.0,0.0,0.0,0.0,0.0,0.0,0.0,0.0,0.0,0.0,0.0,0.0,0.0,0.0,0.0,0.0,0.0,0.0,0.0,0.0,0.0,0.0,0.0,0.0,0.0,0.0,0.0,0.0,0.0,0.0,0.0,0.0,0.0,0.0,0.0,0.0,0.0,0.0,0.0,0.0,0.0,0.0,0.0,0.0,0.0,0.0,0.0,0.0,0.0,0.0,0.0,0.0,0.0,0.0,0.0,0.0,0.0,0.0,0.0,0.0,0.0,0.0,0.0,0.0,0.0,0.0,0.0,0.0,0.0,0.0,0.0,0.0,0.0,0.0,0.0,0.0,0.0,0.0,0.0,0.0,0.0,0.0,0.0,0.0,0.0,0.0,0.0,0.0,0.0,0.0,0.0,0.0,0.0,0.0,0.0,0.0,0.0,0.0,0.0,0.0,0.0,0.0,0.0,0.0,0.0,0.0,0.0,0.0,0.0,0.0,0.0,0.0,0.0,0.0,0.0,0.0,0.0,0.0,0.0,0.0,0.0,0.0,0.0,0.0,0.0,0.0,0.0,0.0,0.0,0.0,0.0,0.0,0.0,0.0,0.0,0.0,0.0,0.0,0.0,0.0,0.0,0.0,0.0,0.0,0.0,0.0,0.0,0.0,0.0,0.0,0.0,0.0,0.0,0.0,0.0,0.0,0.0,0.0,0.0,0.0,0.0,0.0,0.0,0.0,0.0,0.0,0.0,0.0,0.0,0.0,0.0,0.0,0.0,0.0,0.0,0.0,0.0,0.0,0.0,0.0,0.0,0.0,0.0,0.0,0.0,0.0,0.0,0.0,0.0,0.0,0.0,0.0,0.0,0.0,0.0,0.0,0.0,0.0,0.0,0.0,0.0,0.0,0.0,0.0,0.0,0.0,0.0,0.0,0.0,0.0,0.0,0.0,0.0,0.0,0.0,0.0,0.0,0.0,0.0,0.0,0.0,0.0,0.0,0.0,0.0,0.0,0.0,0.0,0.0,0.0,0.0,0.0,0.0,0.0,0.0,0.0,0.0,0.0,0.0,0.0,0.0,0.0,0.0,0.0,0.0,0.0,0.0,0.0,0.0,0.0,0.0,0.0,0.0,0.0,0.0,0.0,0.0,0.0,0.0,0.0,0.0,0.0,0.0,0.0,0.0,0.0,0.0,0.0,0.0,0.0,0.0,0.0,0.0,0.0,0.0,0.0,0.0,0.0,0.0,0.0,0.0,0.0,0.0,0.0,0.0,0.0,0.0,0.0,0.0,0.0,0.0,0.0,0.0,0.0,0.0,0.0,0.0,0.0,0.0,0.0,0.0,0.0,0.0,0.0,0.0,0.0,0.0,0.0,0.0,0.0,0.0,0.0,0.0,0.0,0.0,0.0,0.0,0.0,0.0,0.0,0.0,0.0,0.0,0.0,0.0,0.0,0.0,0.0,0.0,0.0,0.0,0.0,0.0,0.0,0.0,0.0,0.0,0.0,0.0,0.0,0.0,0.0,0.0,0.0,0.0,0.0,0.0,0.0,0.0,0.0,0.0,0.0,0.0,0.0,0.0,0.0,0.0,0.0,0.0,0.0,0.0,0.0,0.0,0.0,0.0,0.0,0.0,0.0,0.0,0.0,0.0,0.0,0.0,0.0,0.0,0.0,0.0,0.0,0.0,0.0,0.0,0.0,0.0,0.0,0.0,0.0,0.0,0.0,0.0,0.0,0.0,0.0,0.0,0.0,0.0,0.0,0.0,0.0,0.0,0.0,0.0,0.0,0.0,0.0,0.0,0.0,0.0,0.0,0.0,0.0,0.0,0.0,0.0,0.0,0.0,0.0,0.0,0.0,0.0,0.0,0.0,0.0,0.0,0.0,0.0,0.0,0.0,0.0,0.0,0.0,0.0,0.0,0.0,0.0,0.0,0.0,0.0,0.0,0.0,0.0,0.0,0.0,0.0,0.0,0.0,0.0,0.0,0.0,0.0,0.0,0.0,0.0,0.0,0.0,0.0,0.0,0.0,0.0,0.0,0.0,0.0,0.0,0.0,0.0,0.0,0.0,0.0,0.0,0.0,0.0,0.0,0.0,0.0,0.0,0.0,0.0,0.0,0.0,0.0,0.0,0.0,0.0,0.0,0.0,0.0,0.0,0.0,0.0,0.0,0.0,0.0,0.0,0.0,0.0,0.0,0.0,0.0,0.0,0.0,0.0,0.0,0.0,0.0,0.0,0.0,0.0,0.0,0.0,0.0,0.0,0.0,0.0,0.0,0.0,0.0,0.0,0.0,0.0,0.0,0.0,0.0,0.0,0.0,0.0,0.0,0.0,0.0,0.0,0.0,0.0,0.0,0.0,0.0,0.0,0.0,0.0,0.0,0.0,0.0,0.0,0.0,0.0,0.0,0.0,0.0,0.0,0.0,0.0,0.0,0.0,0.0,0.0,0.0,0.0,0.0,0.0,0.0,0.0,0.0,0.0,0.0,0.0,0.0,0.0,0.0,0.0,0.0,0.0,0.0,0.0,0.0,0.0,0.0,0.0,0.0,0.0,0.0,0.0,0.0,0.0,0.0,0.0,0.0,0.0,0.0,0.0,0.0,0.0,0.0,0.0,0.0,0.0,0.0,0.0,0.0,0.0,0.0,0.0,0.0,0.0,0.0,0.0,0.0,0.0,0.0,0.0,0.0,0.0,0.0,0.0,0.0,0.0,0.0,0.0,0.0,0.0,0.0,0.0,0.0,0.0,0.0,0.0,0.0,0.0,0.0,0.0,0.0,0.0,0.0,0.0,0.0,0.0,0.0,0.0,0.0,0.0,0.0,0.0,0.0,0.0,0.0,0.0,0.0,0.0,0.0,0.0,0.0,0.0,0.0,0.0,0.0,0.0,0.0,0.0,0.0,0.0,0.0,0.0,0.0,0.0,0.0,0.0,0.0,0.0,0.0,0.0,0.0,0.0,0.0,0.0,0.0,0.0,0.0,0.0,0.0,0.0,0.0,0.0,0.0,0.0,0.0,0.0,0.0,0.0,0.0,0.0,0.0,0.0,0.0,0.0,0.0,0.0,0.0,0.0,0.0,0.0,0.0,0.0,0.0,0.0,0.0,0.0,0.0,0.0,0.0,0.0,0.0,0.0,0.0,0.0,0.0,0.0,0.1481,0.0135,0.0,0.0,0.0,0.0,0.0,0.0,0.0,0.0,0.0,0.0,0.0,0.0,0.0,0.0,0.0,0.0,0.0,0.0,0.0,0.0,0.0,0.0,0.0,0.0,0.0,0.0,0.0,0.0,0.0,0.0,0.0,0.0,0.0,0.0,0.0,0.0,0.0,0.0,0.0,0.0,0.0,0.0,0.0,0.0,0.0,0.0,0.0,0.0,0.0,0.0,0.0,0.0,0.0,0.0,0.0,0.0,0.0,0.0,0.0,0.0,0.0,0.0,0.0,0.0,0.0,0.0,0.0,0.0,0.0,0.0,0.0,0.0,0.0,0.0,0.0,0.0,0.0,0.0,0.0,0.0,0.0,0.0,0.0,0.0,0.0,0.0,0.0,0.0,0.0,0.0,0.0,0.0,0.0,0.0,0.0,0.0,0.0,0.0,0.0,0.0,0.0,0.0,0.0,0.0,0.0,0.0,0.0,0.0,0.0,0.0,0.0,0.0,0.0,0.0,0.1481,0.1077,0.1087,0.166,0.0674,0.0,0.0,0.0,0.0,0.0,0.0,0.0,0.0,0.0,0.0,0.0,0.0,0.0,0.0,0.0,0.0,0.0,0.0,0.0,0.0,0.0,0.0,0.0,0.0,0.0,0.0,0.0,0.0,0.0,0.0,0.0,0.0,0.0,0.0,0.0,0.0,0.0,0.0,0.0,0.0,0.0,0.0,0.0,0.0,0.0,0.0,0.0,0.0,0.0,0.0,0.0,0.0,0.0,0.0,0.0,0.0,0.0,0.0,0.0,0.0,0.0,0.0,0.0,0.0,0.0,0.0,0.0,0.0,0.0,0.0,0.0,0.0,0.0,0.0,0.0,0.0,0.0,0.0,0.0,0.0,0.0,0.0,0.0,0.0,0.0,0.0,0.0,0.0,0.0,0.0,0.0,0.0,0.0,0.0,0.0,0.0,0.0,0.0,0.0,0.0,0.0,0.0,0.0,0.0,0.0,0.0,0.0,0.0,0.0,0.0,0.2238,0.1654,0.1659,0.2403,0.1372,0.0542,0.0,0.0,0.0,0.0,0.0,0.0,0.0,0.0,0.0,0.0,0.0,0.0,0.0,0.0,0.0,0.0,0.0,0.0,0.0,0.0,0.0,0.0,0.0,0.0,0.0,0.0,0.0,0.0,0.0,0.0,0.0,0.0,0.0,0.0,0.0,0.0,0.0,0.0,0.0,0.0,0.0,0.0,0.0,0.0,0.0,0.0,0.0,0.0,0.0,0.0,0.0,0.0,0.0,0.0,0.0,0.0,0.0,0.0,0.0,0.0,0.0,0.0,0.0,0.0,0.0,0.0,0.0,0.0,0.0,0.0,0.0,0.0,0.0,0.0,0.0,0.0,0.0,0.0,0.0,0.0,0.0,0.0,0.0,0.0,0.0,0.0,0.0,0.0,0.0,0.0,0.0,0.0,0.0,0.0,0.0,0.0,0.0,0.0,0.0,0.0,0.0,0.0,0.0,0.0,0.0,0.0,0.0,0.0,0.0,0.2539,0.2023,0.1857,0.216,0.2271,0.1668,0.0,0.0,0.0,0.0,0.0,0.0,0.0,0.0,0.0,0.0,0.0,0.0,0.0,0.0,0.0,0.0,0.0,0.0,0.0,0.0,0.0,0.0,0.0,0.0,0.0,0.0,0.0,0.0,0.0,0.0,0.0,0.0,0.0,0.0,0.0,0.0,0.0,0.0,0.0,0.0,0.0,0.0,0.0,0.0,0.0,0.0,0.0,0.0,0.0,0.0,0.0,0.0,0.0,0.0,0.0,0.0,0.0,0.0,0.0,0.0,0.0,0.0,0.0,0.0,0.0,0.0,0.0,0.0,0.0,0.0,0.0,0.0,0.0,0.0,0.0,0.0,0.0,0.0,0.0,0.0,0.0,0.0,0.0,0.0,0.0,0.0,0.0,0.0,0.0,0.0,0.0,0.0,0.0,0.0,0.0,0.0,0.0,0.0,0.0,0.0,0.0,0.0,0.0,0.0,0.0,0.0,0.0,0.0,0.0,0.2668,0.2575,0.24,0.2459,0.2383,0.2026,0.0,0.0,0.0,0.0,0.0,0.0,0.0,0.0,0.0,0.0,0.0,0.0,0.0,0.0,0.0,0.0,0.0,0.0,0.0,0.0,0.0,0.0,0.0,0.0,0.0,0.0,0.0,0.0,0.0,0.0,0.0,0.0,0.0,0.0,0.0,0.0,0.0,0.0,0.0,0.0,0.0,0.0,0.0,0.0,0.0,0.0,0.0,0.0,0.0,0.0,0.0,0.0,0.0,0.0,0.0,0.0,0.0,0.0,0.0,0.0,0.0,0.0,0.0,0.0,0.0,0.0,0.0,0.0,0.0,0.0,0.0,0.0,0.0,0.0,0.0,0.0,0.0,0.0,0.0,0.0,0.0,0.0,0.0,0.0,0.0,0.0,0.0,0.0,0.0,0.0,0.0,0.0,0.0,0.0,0.0,0.0,0.0,0.0,0.0,0.0,0.0,0.0,0.0,0.0,0.0,0.0,0.0,0.0,0.5085,0.5058,0.5377,0.5433,0.5363,0.3404,0.278,0.0,0.0,0.0,0.0,0.0,0.0,0.0,0.0,0.0,0.0,0.0,0.0,0.0,0.0,0.0,0.0,0.0,0.0,0.0,0.0,0.0,0.0,0.0,0.0,0.0,0.0,0.0,0.0,0.0,0.0,0.0,0.0,0.0,0.0,0.0,0.0,0.0,0.0,0.0,0.0,0.0,0.0,0.0,0.0,0.0,0.0,0.0,0.0,0.0,0.0,0.0,0.0,0.0,0.0,0.0,0.0,0.0,0.0,0.0,0.0,0.0,0.0,0.0,0.0,0.0,0.0,0.0,0.0,0.0,0.0,0.0,0.0,0.0,0.0,0.0,0.0,0.0,0.0,0.0,0.0,0.0,0.0,0.0,0.0,0.0,0.0,0.0,0.0,0.0,0.0,0.0,0.0,0.0,0.0,0.0,0.0,0.0,0.0,0.0,0.0,0.0,0.0,0.0,0.0,0.0,0.0,0.0,0.0,0.8923,0.8261,0.8969,0.9219,0.9143,0.5472,0.3954,0.0,0.0,0.0,0.0,0.0,0.0,0.0,0.0,0.0,0.0,0.0,0.0,0.0,0.0,0.0,0.0,0.0,0.0,0.0,0.0,0.0,0.0,0.0,0.0,0.0,0.0,0.0,0.0,0.0,0.0,0.0,0.0,0.0,0.0,0.0,0.0,0.0,0.0,0.0,0.0,0.0,0.0,0.0,0.0,0.0,0.0,0.0,0.0,0.0,0.0,0.0,0.0,0.0,0.0,0.0,0.0,0.0,0.0,0.0,0.0,0.0,0.0,0.0,0.0,0.0,0.0,0.0,0.0,0.0,0.0,0.0,0.0,0.0,0.0,0.0,0.0,0.0,0.0,0.0,0.0,0.0,0.0,0.0,0.0,0.0,0.0,0.0,0.0,0.0,0.0,0.0,0.0,0.0,0.0,0.0,0.0,0.0,0.0,0.0,0.0,0.0,0.0,0.0,0.0,0.0,0.0,0.0,0.0,1.1413,0.8722,0.9253,0.9536,0.9328,0.7761,0.7004,0.0,0.0,0.0,0.0,0.0,0.0,0.0,0.0,0.0,0.0,0.0,0.0,0.0,0.0,0.0,0.0,0.0,0.0,0.0,0.0,0.0,0.0,0.0,0.0,0.0,0.0,0.0,0.0,0.0,0.0,0.0,0.0,0.0,0.0,0.0,0.0,0.0,0.0,0.0,0.0,0.0,0.0,0.0,0.0,0.0,0.0,0.0,0.0,0.0,0.0,0.0,0.0,0.0,0.0,0.0,0.0,0.0,0.0,0.0,0.0,0.0,0.0,0.0,0.0,0.0,0.0,0.0,0.0,0.0,0.0,0.0,0.0,0.0,0.0,0.0,0.0,0.0,0.0,0.0,0.0,0.0,0.0,0.0,0.0,0.0,0.0,0.0,0.0,0.0,0.0,0.0,0.0,0.0,0.0,0.0,0.0,0.0,0.0,0.0,0.0,0.0,0.0,0.0,0.0,0.0,0.0,0.0,0.0,1.3429,1.1514,1.2275,1.2427,1.2466,1.1607,1.0414,0.0,0.0,0.0,0.0,0.0,0.0,0.0,0.0,0.0,0.0,0.0,0.0,0.0,0.0,0.0,0.0,0.0,0.0,0.0,0.0,0.0,0.0,0.0,0.0,0.0,0.0,0.0,0.0,0.0,0.0,0.0,0.0,0.0,0.0,0.0,0.0,0.0,0.0,0.0,0.0,0.0,0.0,0.0,0.0,0.0,0.0,0.0,0.0,0.0,0.0,0.0,0.0,0.0,0.0,0.0,0.0,0.0,0.0,0.0,0.0,0.0,0.0,0.0,0.0,0.0,0.0,0.0,0.0,0.0,0.0,0.0,0.0,0.0,0.0,0.0,0.0,0.0,0.0,0.0,0.0,0.0,0.0,0.0,0.0,0.0,0.0,0.0,0.0,0.0,0.0,0.0,0.0,0.0,0.0,0.0,0.0,0.0,0.0,0.0,0.0,0.0,0.0,0.0,0.0,0.0,0.0,0.0,1.2366,1.4851,1.4828,1.5554,1.59,1.5845,1.5025,1.3307,1.0577,0.0,0.0,0.0,0.0,0.0,0.0,0.0,0.0,0.0,0.0,0.0,0.0,0.0,0.0,0.0,0.0,0.0,0.0,0.0,0.0,0.0,0.0,0.0,0.0,0.0,0.0,0.0,0.0,0.0,0.0,0.0,0.0,0.0,0.0,0.0,0.0,0.0,0.0,0.0,0.0,0.0,0.0,0.0,0.0,0.0,0.0,0.0,0.0,0.0,0.0,0.0,0.0,0.0,0.0,0.0,0.0,0.0,0.0,0.0,0.0,0.0,0.0,0.0,0.0,0.0,0.0,0.0,0.0,0.0,0.0,0.0,0.0,0.0,0.0,0.0,0.0,0.0,0.0,0.0,0.0,0.0,0.0,0.0,0.0,0.0,0.0,0.0,0.0,0.0,0.0,0.0,0.0,0.0,0.0,0.0,0.0,0.0,0.0,0.0,0.0,0.0,0.0,0.0,0.0,0.0,0.8181,1.301,1.5327,1.5282,1.5913,1.611,1.5845,1.5228,1.4095,1.2501,0.0,0.0,0.0,0.0,0.0,0.0,0.0,0.0,0.0,0.0,0.0,0.0,0.0,0.0,0.0,0.0,0.0,0.0,0.0,0.0,0.0,0.0,0.0,0.0,0.0,0.0,0.0,0.0,0.0,0.0,0.0,0.0,0.0,0.0,0.0,0.0,0.0,0.0,0.0,0.0,0.0,0.0,0.0,0.0,0.0,0.0,0.0,0.0,0.0,0.0,0.0,0.0,0.0,0.0,0.0,0.0,0.0,0.0,0.0,0.0,0.0,0.0,0.0,0.0,0.0,0.0,0.0,0.0,0.0,0.0,0.0,0.0,0.0,0.0,0.0,0.0,0.0,0.0,0.0,0.0,0.0,0.0,0.0,0.0,0.0,0.0,0.0,0.0,0.0,0.0,0.0,0.0,0.0,0.0,0.0,0.0,0.0,0.0,0.0,0.0,0.0,0.0,0.0,0.0,0.0,0.9387,1.3539,1.5557,1.5499,1.5886,1.5967,1.5737,1.5018,1.4102,0.0,0.0,0.0,0.0,0.0,0.0,0.0,0.0,0.0,0.0,0.0,0.0,0.0,0.0,0.0,0.0,0.0,0.0,0.0,0.0,0.0,0.0,0.0,0.0,0.0,0.0,0.0,0.0,0.0,0.0,0.0,0.0,0.0,0.0,0.0,0.0,0.0,0.0,0.0,0.0,0.0,0.0,0.0,0.0,0.0,0.0,0.0,0.0,0.0,0.0,0.0,0.0,0.0,0.0,0.0,0.0,0.0,0.0,0.0,0.0,0.0,0.0,0.0,0.0,0.0,0.0,0.0,0.0,0.0,0.0,0.0,0.0,0.0,0.0,0.0,0.0,0.0,0.0,0.0,0.0,0.0,0.0,0.0,0.0,0.0,0.0,0.0,0.0,0.0,0.0,0.0,0.0,0.0,0.0,0.0,0.0,0.0,0.0,0.0,0.0,0.0,0.0,0.0,0.0,0.0,0.0,1.0498,1.3777,1.5476,1.5554,1.5764,1.5771,1.5588,1.478,1.3912,0.0,0.0,0.0,0.0,0.0,0.0,0.0,0.0,0.0,0.0,0.0,0.0,0.0,0.0,0.0,0.0,0.0,0.0,0.0,0.0,0.0,0.0,0.0,0.0,0.0,0.0,0.0,0.0,0.0,0.0,0.0,0.0,0.0,0.0,0.0,0.0,0.0,0.0,0.0,0.0,0.0,0.0,0.0,0.0,0.0,0.0,0.0,0.0,0.0,0.0,0.0,0.0,0.0,0.0,0.0,0.0,0.0,0.0,0.0,0.0,0.0,0.0,0.0,0.0,0.0,0.0,0.0,0.0,0.0,0.0,0.0,0.0,0.0,0.0,0.0,0.0,0.0,0.0,0.0,0.0,0.0,0.0,0.0,0.0,0.0,0.0,0.0,0.0,0.0,0.0,0.0,0.0,0.0,0.0,0.0,0.0,0.0,0.0,0.0,0.0,0.0,0.0,0.0,0.0,0.0,0.0,1.0504,1.3606,1.5237,1.5404,1.571,1.5723,1.5438,1.4821,1.4007,0.0,0.0,0.0,0.0,0.0,0.0,0.0,0.0,0.0,0.0,0.0,0.0,0.0,0.0,0.0,0.0,0.0,0.0,0.0,0.0,0.0,0.0,0.0,0.0,0.0,0.0,0.0,0.0,0.0,0.0,0.0,0.0,0.0,0.0,0.0,0.0,0.0,0.0,0.0,0.0,0.0,0.0,0.0,0.0,0.0,0.0,0.0,0.0,0.0,0.0,0.0,0.0,0.0,0.0,0.0,0.0,0.0,0.0,0.0,0.0,0.0,0.0,0.0,0.0,0.0,0.0,0.0,0.0,0.0,0.0,0.0,0.0,0.0,0.0,0.0,0.0,0.0,0.0,0.0,0.0,0.0,0.0,0.0,0.0,0.0,0.0,0.0,0.0,0.0,0.0,0.0,0.0,0.0,0.0,0.0,0.0,0.0,0.0,0.0,0.0,0.0,0.0,0.0,0.0,0.0,0.9888,1.1899,1.3892,1.5118,1.5384,1.5452,1.5377,1.5167,1.4326,1.3593,0.0,0.0,0.0,0.0,0.0,0.0,0.0,0.0,0.0,0.0,0.0,0.0,0.0,0.0,0.0,0.0,0.0,0.0,0.0,0.0,0.0,0.0,0.0,0.0,0.0,0.0,0.0,0.0,0.0,0.0,0.0,0.0,0.0,0.0,0.0,0.0,0.0,0.0,0.0,0.0,0.0,0.0,0.0,0.0,0.0,0.0,0.0,0.0,0.0,0.0,0.0,0.0,0.0,0.0,0.0,0.0,0.0,0.0,0.0,0.0,0.0,0.0,0.0,0.0,0.0,0.0,0.0,0.0,0.0,0.0,0.0,0.0,0.0,0.0,0.0,0.0,0.0,0.0,0.0,0.0,0.0,0.0,0.0,0.0,0.0,0.0,0.0,0.0,0.0,0.0,0.0,0.0,0.0,0.0,0.0,0.0,0.0,0.0,0.0,0.0,0.0,0.0,0.0,0.0,0.0,0.0,1.2908,1.4112,1.4901,1.5215,1.5174,1.5059,1.4903,1.3966,0.0,0.0,0.0,0.0,0.0,0.0,0.0,0.0,0.0,0.0,0.0,0.0,0.0,0.0,0.0,0.0,0.0,0.0,0.0,0.0,0.0,0.0,0.0,0.0,0.0,0.0,0.0,0.0,0.0,0.0,0.0,0.0,0.0,0.0,0.0,0.0,0.0,0.0,0.0,0.0,0.0,0.0,0.0,0.0,0.0,0.0,0.0,0.0,0.0,0.0,0.0,0.0,0.0,0.0,0.0,0.0,0.0,0.0,0.0,0.0,0.0,0.0,0.0,0.0,0.0,0.0,0.0,0.0,0.0,0.0,0.0,0.0,0.0,0.0,0.0,0.0,0.0,0.0,0.0,0.0,0.0,0.0,0.0,0.0,0.0,0.0,0.0,0.0,0.0,0.0,0.0,0.0,0.0,0.0,0.0,0.0,0.0,0.0,0.0,0.0,0.0,0.0,0.0,0.0,0.0,0.0,0.0,1.2759,1.4309,1.5026,1.478,1.4916,1.4916,1.4746,1.4014,1.341,0.0,0.0,0.0,0.0,0.0,0.0,0.0,0.0,0.0,0.0,0.0,0.0,0.0,0.0,0.0,0.0,0.0,0.0,0.0,0.0,0.0,0.0,0.0,0.0,0.0,0.0,0.0,0.0,0.0,0.0,0.0,0.0,0.0,0.0,0.0,0.0,0.0,0.0,0.0,0.0,0.0,0.0,0.0,0.0,0.0,0.0,0.0,0.0,0.0,0.0,0.0,0.0,0.0,0.0,0.0,0.0,0.0,0.0,0.0,0.0,0.0,0.0,0.0,0.0,0.0,0.0,0.0,0.0,0.0,0.0,0.0,0.0,0.0,0.0,0.0,0.0,0.0,0.0,0.0,0.0,0.0,0.0,0.0,0.0,0.0,0.0,0.0,0.0,0.0,0.0,0.0,0.0,0.0,0.0,0.0,0.0,0.0,0.0,0.0,0.0,0.0,0.0,0.0,0.0,0.0,1.1587,1.3003,1.4215,1.4903,1.4991,1.4984,1.4896,1.474,1.4102,1.3553,0.0,0.0,0.0,0.0,0.0,0.0,0.0,0.0,0.0,0.0,0.0,0.0,0.0,0.0,0.0,0.0,0.0,0.0,0.0,0.0,0.0,0.0,0.0,0.0,0.0,0.0,0.0,0.0,0.0,0.0,0.0,0.0,0.0,0.0,0.0,0.0,0.0,0.0,0.0,0.0,0.0,0.0481,0.1602,0.1829,0.0,0.0,0.0856,0.0859,0.0848,0.034,0.0,0.0,0.0,0.0,0.0,0.0,0.0,0.0,0.0,0.0,0.0,0.0,0.0,0.0,0.0,0.0,0.0,0.0,0.0,0.0,0.0,0.0,0.0,0.0,0.0,0.0,0.0,0.0,0.0,0.0,0.0,0.0,0.0,0.0,0.0,0.0,0.0,0.0,0.0,0.0,0.0,0.0,0.0,0.0,0.0,0.0,0.0,0.0,0.0,0.0,0.0,0.0,0.0,0.0,0.0,1.1876,1.3166,1.4312,1.4979,1.5106,1.4977,1.4848,1.4733,1.4156,1.3627,0.0,0.0,0.0,0.0,0.0,0.0,0.0,0.0,0.0,0.0,0.0,0.0,0.0,0.0,0.0,0.0,0.0,0.0,0.0,0.0,0.0,0.0,0.0,0.0,0.0,0.0,0.0,0.0,0.0259,0.0,0.0,0.0,0.0,0.0,0.0,0.0,0.0,0.0,0.0,0.0,0.0,0.065,0.2632,0.2898,0.2621,0.1922,0.1754,0.1757,0.1751,0.1191,0.0653,0.0,0.0,0.0,0.0,0.0,0.0,0.0,0.0,0.0,0.0,0.0,0.0,0.0,0.0,0.0,0.0,0.0,0.0,0.0,0.0,0.0,0.0,0.0,0.0,0.0,0.0,0.0,0.0,0.0,0.0,0.0,1.1375,0.0,0.0,0.0,0.0,0.0,0.0,0.0,0.0,0.0,0.0,0.0,0.0,0.0,0.0,0.0,0.0,0.0,0.0,0.0,0.0,0.0,0.0,1.1905,1.318,1.459,1.5216,1.497,1.4828,1.4753,1.4726,1.4163,1.3634,1.318,0.0,0.0,0.0,0.0,0.0,0.0,0.0,0.0,0.0,0.0,0.0,0.0,0.0,0.0,0.0,0.0,0.0,0.0,0.0,0.0,0.0,0.0,0.0,0.0,0.0,0.0,0.2068,0.0914,0.0,0.0,0.0,0.0,0.0,0.0,0.0,0.0,0.0,0.0,0.0,0.0,0.0643,0.2441,0.2732,0.2823,0.2825,0.2801,0.2773,0.2573,0.2541,0.1965,0.0,0.0,0.0,0.0,0.0,0.0,0.0,0.0,0.0,0.0,0.0,0.0,0.0,0.0,0.0,0.0,0.0,0.0,0.0,0.0,0.0,0.0,0.0,0.0,0.0,0.0,0.0,1.112,1.1328,0.0,0.0,0.0,0.0,0.0,0.0,0.0,0.0,0.0,0.0,0.0,1.1762,1.2059,0.0,0.0,0.0,0.0,0.0,0.0,0.0,0.0,0.0,0.0,0.0,0.0,1.2337,1.3471,1.452,1.5083,1.5092,1.5059,1.4943,1.4746,1.4441,1.3892,1.3057,0.0,0.0,0.0,0.0,0.0,0.0,0.0,0.0,0.0,0.0,0.0,0.0,0.0,0.0,0.0,0.0,0.0,0.0,0.0,0.0,0.0,0.0,0.0,0.0,0.0,0.2133,0.0,0.0,0.0,0.0,0.0,0.0,0.0,0.0,0.0,0.0,0.0,0.1408,0.159,0.169,0.1606,0.0975,0.1855,0.2769,0.0,0.0,0.0,0.0,0.0,0.0,0.0,0.0,0.0,0.0,0.0,0.0,0.0,0.0,0.1311,0.0133,0.0,0.0,0.0,0.0,0.0,0.0,0.0,0.0,0.0,0.0,0.0,0.0,0.0,0.0,0.0,0.0,0.0,1.1623,0.0,1.1775,0.0,0.0,0.0,0.0,0.0,0.0,0.0,0.0,1.2162,1.2219,1.2212,1.2561,1.2931,0.0,1.278,1.2515,0.0,0.0,0.0,0.0,0.0,0.0,0.0,0.0,1.2816,1.3452,1.4441,1.497,1.516,1.5133,1.4991,1.4746,1.4441,1.3912,1.3139,1.2684,1.2257,0.0,0.0,0.0,0.0,0.0,0.0,0.0,0.0,0.0,0.0,0.0,0.0,0.0,0.0,0.0,0.0,0.0,0.0,0.0,0.0,0.0,0.0,0.0,0.2148,0.0,0.0,0.0,0.0,0.0,0.0,0.0,0.0,0.0,0.0819,0.1533,0.2298,0.2401,0.2497,0.2095,0.0985,0.0,0.0,0.0,0.0,0.0,0.0,0.0,0.2575,0.264,0.247,0.2313,0.2457,0.2191,0.2061,0.2361,0.0,0.0,0.0981,0.0823,0.0821,0.0821,0.0835,0.0851,0.0858,0.1013,0.1028,0.0,0.0,0.0,0.0,0.0,0.0,0.0,0.0,1.2115,1.2257,0.0,1.2203,0.0,0.0,0.0,0.0,0.0,1.2067,0.0,0.0,1.261,1.2668,1.2661,1.3104,1.3576,1.3742,1.3418,1.3105,1.2942,1.2393,0.0,0.0,0.0,0.0,0.0,0.0,1.2853,1.3134,1.4367,1.5073,1.5167,1.5045,1.4896,1.4719,1.4156,1.3709,1.341,1.2976,1.2603,1.2146,1.173,0.0,0.0,0.0,0.0,0.0,0.0,0.0,0.0,0.0,0.0,0.0,0.0,0.0,0.0,0.0,0.0,0.0,0.0,0.0,0.0,0.4006,0.0,0.0,0.0,0.0,0.0,0.0,0.0,0.0,0.0,0.0,0.2105,0.2134,0.2212,0.253,0.0,0.0,0.0,0.0,0.2564,0.2736,0.2761,0.2769,0.2739,0.2541,0.2495,0.2575,0.0,0.0,0.2848,0.2843,0.2849,0.2682,0.2533,0.2514,0.2171,0.2134,0.2115,0.2116,0.2135,0.2315,0.2476,0.2492,0.2675,1.3139,0.0,0.0,0.0,0.0,1.2535,1.2725,1.3017,1.252,1.2556,1.2657,1.2901,0.0,0.0,0.0,0.0,0.0,0.0,1.242,1.2773,1.2963,1.3016,1.3105,1.3459,1.3837,1.4084,1.3693,1.3417,1.3275,1.3105,1.2725,1.2169,0.0,0.0,0.0,0.0,1.3217,1.3581,1.4289,1.4882,1.5174,1.5045,1.4848,1.4584,1.4102,1.3756,1.3566,1.3227,1.2854,1.2454,1.2223,0.0,0.0,0.0,0.0,0.0,0.0,0.0,0.0,0.0,0.0,0.0,0.0,0.0,0.0,0.0,0.0,0.0,0.0,0.0,0.6427,0.7503,0.8312,0.0,0.0,0.0,0.0,0.0,0.0,0.0,0.0,0.0,0.2464,0.2214,0.2261,0.0,0.0,0.2592,0.2435,0.2641,0.268,0.2702,0.2713,0.0,0.0,0.2698,0.2509,0.2465,0.2676,0.2894,0.2907,0.2929,0.293,0.2714,0.2724,0.2722,0.2667,0.2405,0.2339,0.2492,0.2527,0.257,0.2755,0.2784,0.282,1.4913,1.3895,1.3164,1.2942,1.3003,1.3119,1.3295,1.3492,1.3036,1.2945,1.3254,1.3308,1.3137,1.2759,1.2644,0.0,0.0,0.0,1.2908,1.3234,1.337,1.3398,1.3626,1.3953,1.4153,1.4249,1.4009,1.3722,1.3573,1.3519,1.3234,1.2739,0.0,0.0,1.2691,1.3132,1.3445,1.3611,1.4356,1.4882,1.5174,1.4984,1.4794,1.4604,1.4224,1.3953,1.3804,1.3519,1.3173,1.2944,1.2515,1.2196,0.0,0.0,0.0,0.0,0.0,0.0,0.0,0.0,0.0,0.0,0.0,1.0717,0.0,0.0,0.0,0.0,0.8573,0.8169,0.8174,0.9655,0.0,0.0,0.0,0.0,0.0,0.0,0.0,0.6702,0.6852,0.6331,0.4476,0.4443,0.407,0.2704,0.2749,0.2778,0.2622,0.0,0.5041,0.5097,0.5125,0.4967,0.4967,0.3756,0.2718,0.2703,0.2766,0.2816,0.2826,0.2844,0.2838,0.28,0.2808,0.2818,0.2781,0.2707,0.2643,0.2775,0.2816,0.2862,0.2871,0.2906,0.2949,1.7064,1.6446,1.4766,1.381,1.3539,1.3797,1.3851,1.3763,1.3535,1.3634,1.4068,1.3613,1.3546,1.379,1.3526,0.0,1.3417,1.3417,1.3512,1.3688,1.3804,1.378,1.3941,1.4075,1.4319,1.4333,1.419,1.4048,1.3912,1.3783,1.3641,1.3492,1.3363,1.3207,1.3064,1.3451,1.3535,1.342,1.4256,1.4909,1.5174,1.4896,1.4733,1.4719,1.4448,1.4224,1.4055,1.3783,1.3478,1.3478,1.2889,1.2213,1.1768,0.0,0.0,0.0,0.0,0.0,0.0,0.0,0.0,0.0,0.0,0.0,0.0,0.0,0.0,0.0,1.0744,0.0,1.0751,1.0751,0.0,0.0,0.0,0.9685,0.7098,0.9408,1.021,0.7415,0.0,0.0,0.7663,0.8098,0.7192,0.4001,0.3651,0.3492,0.3562,0.6479,0.8577,0.9008,0.8403,0.8109,0.7563,0.5063,0.2948,0.2949,0.2829,0.2848,0.2827,0.2822,0.2812,0.2784,0.2804,0.2821,0.2821,0.283,0.284,0.2917,0.2953,0.2816,0.2965,0.2822,0.2859,1.7772,1.7494,1.6818,1.5932,1.4956,1.5026,1.4993,1.4801,1.4544,1.435,1.4238,1.4228,1.3797,1.3498,1.3431,1.3464,1.3573,1.3573,1.3777,1.4129,1.4055,1.4035,1.4196,1.4316,1.4523,1.4631,1.4597,1.4563,1.4529,1.4489,1.4401,1.4258,1.4326,1.4122,1.3654,1.3858,1.3826,1.37,1.4547,1.5113,1.5174,1.4896,1.4685,1.457,1.4394,1.417,1.3905,1.3722,1.3556,1.3359,1.2786,1.2372,1.223,1.1918,0.0,0.0,0.0,0.0,0.0,0.0,0.0,0.0,0.0,1.073,1.0766,0.0,1.1009,0.0,1.0717,1.0776,1.077,1.077,0.0,0.0,1.0736,1.049,1.009,1.0875,1.1181,1.0442,1.0748,1.0987,1.0549,1.1231,1.1697,1.1529,1.1042,1.1009,1.1423,0.9586,0.9646,1.1625,0.816,0.4822,0.6056,0.4425,0.2979,0.2953,0.2962,0.2968,0.2962,0.2787,0.2777,0.2757,0.2773,0.2782,0.2765,0.2784,0.2962,0.2924,0.2787,0.2826,0.2819,0.283,0.2846,1.8963,1.88,1.8621,1.7871,1.7039,1.6567,1.5946,1.5646,1.5187,1.4977,1.4672,1.4572,1.4129,1.3899,1.3892,1.3905,1.3939,1.4061,1.4217,1.4387,1.4373,1.4316,1.4362,1.4537,1.4943,1.5032,1.4841,1.4841,1.4841,1.4841,1.4767,1.4618,1.4767,1.4679,1.436,1.4428,1.4437,1.4171,1.4973,1.5255,1.5174,1.4889,1.4733,1.4706,1.4373,1.4116,1.3946,1.3675,1.3507,1.3443,1.2951,1.2725,1.2436,1.2121,1.1972,0.0,0.0,0.0,0.0,0.0,0.0,0.0,0.0,0.0,0.0,0.0,1.1131,1.105,1.0973,1.0875,1.0875,1.102,1.1131,1.1056,1.0908,1.0961,1.1586,1.1712,1.1749,1.1592,1.206,1.228,1.2109,1.2661,1.3164,1.3825,1.3559,1.3548,1.4091,1.2439,1.1297,1.1522,0.9623,0.7662,0.7241,0.6147,0.471,0.3452,0.554,0.7645,0.7439,0.4829,0.2748,0.2727,0.3425,0.3616,0.291,0.2755,0.2765,0.2747,0.2759,0.2782,0.2788,0.281,0.2833,2.0231,2.0085,1.9898,1.9613,1.9159,1.7954,1.7017,1.6472,1.5841,1.5533,1.5153,1.4733,1.4543,1.4543,1.4536,1.4475,1.4373,1.4624,1.4692,1.4604,1.4719,1.4611,1.4481,1.4778,1.5231,1.5631,1.5231,1.5038,1.5059,1.5038,1.497,1.4862,1.4991,1.5059,1.5059,1.5072,1.4946,1.4851,1.5371,1.5568,1.5242,1.493,1.4828,1.4909,1.436,1.4021,1.3973,1.3553,1.3247,1.326,1.3095,1.2725,1.2461,1.2332,1.2135,0.0,1.1714,0.0,0.0,0.0,0.0,0.0,0.0,0.0,0.0,1.1337,1.1199,1.1219,1.1219,1.1219,1.1219,1.1504,1.1643,1.1628,1.1054,1.1153,1.2016,1.2149,1.2045,1.1891,1.2284,1.261,1.2588,1.28,1.3111,1.3392,1.3506,1.3606,1.4029,1.416,1.3048,0.9749,1.1931,1.1709,0.9052,0.8313,0.6901,0.427,0.7052,1.2003,1.1196,0.6679,0.2728,0.2877,0.3909,0.4606,0.3406,0.3599,0.3782,0.4436,0.3748,0.2729,0.2743,0.2778,0.2808,2.0304,2.0255,2.0085,2.0011,1.9782,1.9501,1.8675,1.7496,1.6433,1.5712,1.5147,1.5025,1.4699,1.4699,1.4699,1.4685,1.4658,1.4713,1.4855,1.5052,1.4964,1.4932,1.5056,1.518,1.5588,1.5897,1.5581,1.5391,1.5513,1.5391,1.5377,1.5466,1.5499,1.5513,1.552,0.0,0.0,0.0,1.5581,1.5581,1.554,1.514,1.4882,1.4774,1.4197,0.0,1.3526,1.3091,1.2944,1.3113,1.2532,0.0,0.0,0.0,0.0,0.0,0.0,0.0,0.0,0.0,0.0,0.0,1.1552,1.1626,1.165,1.1489,1.1402,1.1518,1.1538,1.1531,1.1531,1.1531,1.1626,1.1523,1.1442,1.1701,1.2352,1.2402,1.2361,1.2216,1.2596,1.2881,1.2922,1.32,1.3403,1.3444,1.3464,1.3412,1.3626,1.3987,1.3928,1.3229,1.2607,1.1164,0.868,0.8309,0.7373,0.405,0.3546,0.5102,0.5436,0.442,0.2894,0.2887,0.307,0.4261,0.6268,0.6993,0.7533,1.0715,0.6596,0.2707,0.2732,0.2747,0.2767,2.149,0.0,2.0174,2.0117,0.0,1.9898,1.9581,1.894,1.8107,1.7105,1.6145,1.591,1.5624,1.5438,1.5631,1.5547,1.5222,1.5554,1.5673,1.5556,1.5563,1.5492,1.5334,1.5527,1.5767,1.6036,1.576,1.5601,1.5737,1.5669,1.5669,1.5744,1.5744,1.5784,1.5859,1.5797,1.5763,1.5744,1.5475,1.5408,1.5513,1.516,1.4936,1.4841,0.0,0.0,0.0,0.0,0.0,0.0,0.0,0.0,0.0,0.0,0.0,1.2067,1.1986,1.1911,1.1843,1.169,1.1537,1.1537,1.1616,1.166,1.166,1.1504,1.1531,1.1613,1.1619,1.1619,1.1619,1.1536,1.1543,1.1633,1.1577,1.1871,1.2452,1.2519,1.2393,1.2427,1.2725,1.2963,1.2963,1.322,1.339,1.3397,1.3403,1.3458,1.3439,1.3831,1.4021,1.4325,1.3391,1.2265,1.144,1.08,1.0202,0.839,0.7929,0.8134,0.8446,0.8311,0.7654,0.5927,0.609,0.6761,0.5578,0.6761,0.8113,0.7784,0.5243,0.2703,0.2712,0.2724,0.2746,2.2705,2.0572,2.0279,2.0223,2.0296,2.0011,1.9955,2.0028,0.0,0.0,0.0,1.7237,1.6781,1.6393,1.6781,1.6634,1.6032,1.6634,1.67,1.6256,1.6349,1.6237,1.5725,1.5849,1.5911,1.5911,1.5883,1.5945,1.6083,1.6062,1.6258,1.6286,1.6286,1.6165,1.6316,1.583,1.579,1.5974,1.5629,1.5468,1.5486,1.5201,1.5038,1.5004,1.4401,1.3946,1.3675,1.3214,1.2735,1.2285,1.2534,1.2494,1.2168,1.2373,1.24,1.2257,1.2155,1.2094,1.206,1.1904,1.1749,1.1755,1.1616,1.1623,1.1633,1.1619,1.1619,1.1619,1.1619,1.1626,1.1653,1.161,1.169,1.1724,1.1815,1.1974,1.245,1.2574,1.2494,1.2528,1.2766,1.2963,1.2969,1.322,1.3397,1.3397,1.3397,1.3417,1.3464,1.3661,1.3899,1.4102,1.3827,1.3851,1.3961,1.3654,1.3485,1.2945,1.3062,1.3648,1.4098,1.3978,1.2439,0.9454,0.9918,0.8248,0.489,0.6221,0.7201,0.5059,0.4567,0.406,0.3032,0.2707,0.2898,2.2822,2.0588,2.0547,2.0442,2.0312,2.0263,2.0182,2.0233,1.9508,1.9175,1.898,1.9019,1.8151,1.7143,1.715,1.7121,1.7076,1.6979,1.7068,0.0,1.7002,1.6695,1.6138,1.6588,1.6397,1.5777,1.6265,1.6489,1.6807,1.7093,1.729,1.7422,1.7437,1.7319,1.6862,1.6293,1.6138,1.6422,1.6085,1.5877,1.5791,1.5499,1.5289,1.5133,1.4455,1.3994,1.381,1.3268,1.2789,1.2429,1.24,1.2352,1.2505,1.2345,1.225,1.2115,1.2203,1.2203,1.2074,1.206,1.206,1.2359,1.1918,1.1616,1.1633,1.1619,1.1619,1.1619,1.1626,1.1523,1.163,1.1677,1.1898,1.2324,1.234,1.2443,1.2457,1.2574,1.2508,1.2522,1.2773,1.2963,1.2996,1.3214,1.3383,1.3397,1.3376,1.3431,1.3358,1.3627,1.3729,1.3858,1.3871,1.379,1.3871,1.3816,1.3693,1.3431,1.3358,1.3614,1.4091,1.3803,1.3128,1.2596,1.0688,0.8631,0.7241,0.7776,0.93,1.0472,1.0981,0.9627,0.49,0.354,0.4046,2.687,2.4644,2.4423,2.3444,2.2117,2.0979,2.0231,2.0266,2.002,1.9815,1.9651,1.9569,1.9075,1.7977,1.8364,1.8262,1.7703,1.8005,1.8052,1.7802,1.7733,1.7389,1.7108,1.713,1.6933,1.6721,1.6868,1.7115,1.7246,1.7393,1.768,1.7926,1.8022,1.7776,1.7406,1.6933,1.6766,1.7092,1.6419,1.6117,1.5974,1.5877,1.5841,1.5681,1.509,1.4673,1.4437,1.3762,1.3083,1.2747,1.2715,1.2732,1.2821,1.2657,1.2623,1.2556,1.2617,1.2623,1.2556,1.2467,1.2386,1.2464,1.2319,1.202,1.187,1.1782,1.1735,1.1735,1.1657,1.1583,1.1649,1.1878,1.2265,1.2484,1.2477,1.256,1.2567,1.2461,1.2528,1.263,1.282,1.299,1.3064,1.3193,1.3446,1.3446,1.3446,1.3315,1.3204,1.3224,1.3498,1.3763,1.3777,1.3709,1.3803,1.3652,1.3535,1.3453,1.3403,1.3458,1.377,1.3505,1.3425,1.3365,1.1987,1.1149,1.0797,1.1137,1.1999,1.2733,1.3418,1.1542,0.9286,0.8566,0.9077,3.0199,2.8186,2.7553,2.6494,2.4516,2.2662,2.1475,2.0951,2.0505,2.0233,2.0118,2.0036,1.9493,1.8923,1.9316,1.9139,1.8482,1.8809,1.8809,1.8458,1.8466,1.827,1.8082,1.7932,1.7962,1.8144,1.7962,1.7848,1.7968,1.8183,1.8313,1.8556,1.8496,1.8383,1.8051,1.7451,1.7473,1.7896,1.7257,1.6785,1.6474,1.66,1.6587,1.6443,1.5996,1.5615,1.5155,1.4361,1.3634,1.3349,1.3295,1.3214,1.324,1.3057,1.3057,1.3064,1.3057,1.3044,1.3003,1.2702,1.2554,1.2562,1.2574,1.2429,1.2278,1.2033,1.1945,1.1911,1.1831,1.1768,1.1841,1.2223,1.2471,1.2539,1.2454,1.2508,1.2542,1.2522,1.2583,1.2752,1.2861,1.2963,1.3078,1.3288,1.3295,1.3125,1.3288,1.3301,1.3159,1.3003,1.3164,1.3539,1.3593,1.3526,1.3686,1.3556,1.3425,1.322,1.3117,1.3315,1.3295,1.3424,1.3325,1.3417,1.341,1.3085,1.3331,1.3298,1.3251,1.3444,1.3325,1.3224,1.2958,1.2765,1.3111,3.0831,2.8661,2.8175,2.7618,2.7001,2.6355,2.5029,2.3156,2.1208,2.0397,2.0223,2.0356,1.9913,1.9524,1.9524,1.9419,1.9232,1.9061,1.9077,1.9232,1.9232,1.9232,1.9075,1.8946,1.9033,1.9532,1.9009,1.8854,1.8885,1.9314,1.9557,1.9581,1.919,1.9049,1.8922,1.813,1.7997,1.8537,1.906,1.8768,1.7687,1.7493,1.7389,1.7367,1.689,1.6368,1.5788,1.5184,1.4611,1.4159,1.3823,1.3686,1.3721,1.3528,1.3363,1.3363,1.3363,1.3302,1.2996,1.3017,1.2881,1.2561,1.2576,1.2433,1.2464,1.2379,1.2318,1.2142,1.2067,1.2059,1.2099,1.2372,1.258,1.246,1.2569,1.2556,1.2494,1.2583,1.2617,1.2908,1.2827,1.2813,1.2963,1.315,1.3143,1.2809,1.2976,1.3339,1.3267,1.3125,1.2956,1.3214,1.3214,1.3227,1.3398,1.3494,1.3288,1.2814,1.2585,1.29,1.311,1.3261,1.3404,1.3315,1.3363,1.3329,1.3453,1.3453,1.3295,1.3349,1.3432,1.341,1.3403,1.3397,1.3403,3.35,3.2361,3.2102,3.1034,2.9101,2.773,2.5769,2.339,2.1217,2.0206,2.0296,2.0373,2.0217,1.9833,1.9727,1.9638,1.9557,1.9378,1.9394,1.9565,1.9573,1.9573,1.9589,1.9509,1.9752,2.0124,1.976,1.9581,1.9605,1.9898,1.9898,1.9817,1.9685,1.9726,1.9489,1.9072,1.9103,1.9379,1.9758,1.9557,1.8844,1.8344,1.8061,1.7916,1.7658,1.707,1.6619,1.5694,1.4992,1.4354,1.4091,1.3995,1.402,1.383,1.3661,1.3661,1.3661,1.3593,1.3278,1.3302,1.3152,1.3003,1.2854,1.2745,1.2855,1.2739,1.2718,1.2623,1.2434,1.2298,1.2318,1.2821,1.2869,1.2561,1.2507,1.2501,1.2554,1.2752,1.2752,1.2779,1.2766,1.2786,1.2908,1.2881,1.2827,1.2496,1.282,1.2868,1.2908,1.2915,1.2868,1.2813,1.2847,1.3116,1.3353,1.3339,1.3226,1.3105,1.3091,1.3091,1.295,1.3016,1.318,1.3159,1.3159,1.3308,1.3401,1.3246,1.3253,1.3325,1.3339,1.3329,1.3418,1.3432,1.3473,3.5631,3.5391,3.495,3.3615,3.1495,2.9742,2.7719,2.5245,2.3091,2.188,2.1137,2.0529,2.0255,2.0125,1.9946,1.9841,1.9776,1.9646,1.9654,1.9792,1.9833,1.9833,1.98,1.9898,2.0118,2.0298,2.0127,1.9938,1.9946,2.006,2.0068,1.9971,2.0068,2.0068,1.9946,1.993,1.9938,1.9938,2.0151,2.0086,1.9743,1.9243,1.8883,1.8639,1.8198,1.7781,1.7258,1.6378,1.5327,1.4311,1.4297,1.4256,1.4333,1.4139,1.3966,1.396,1.3926,1.3865,1.3586,1.3439,1.3437,1.3425,1.3132,1.3044,1.315,1.2996,1.3017,1.301,1.2889,1.2681,1.2728,1.2881,1.3034,1.2682,1.2766,1.2691,1.2608,1.2786,1.2738,1.2588,1.2561,1.2705,1.2628,1.2574,1.2507,1.2507,1.2541,1.2568,1.2581,1.2773,1.2759,1.2596,1.2671,1.2773,1.304,1.3221,1.3179,1.3221,1.3116,1.3082,1.2602,1.2708,1.2916,1.3017,1.2969,1.2935,1.3082,1.3075,1.2949,1.3123,1.313,1.3171,1.2996,1.3193,1.3446,3.6046,3.5899,3.5124,3.4589,3.4077,3.3607,3.2073,2.9366,2.7498,2.545,2.3409,2.1137,2.0312,2.0496,2.0125,1.9955,1.9817,1.9784,1.9792,1.9833,1.9963,1.9955,2.0028,2.0133,2.0206,2.0291,2.019,2.0263,2.0271,2.0288,2.0304,2.0288,2.0288,2.0296,2.0271,2.0263,2.0288,2.0263,2.0255,2.0263,2.0214,1.993,1.9605,1.9272,1.8899,1.8335,1.7608,1.7094,1.6025,1.4448,1.4794,1.4801,1.4441,1.4265,1.4258,1.4251,1.4136,1.4055,1.4201,1.3713,1.3519,1.3451,1.3383,1.3432,1.3394,1.3274,1.3159,1.3166,1.3275,1.3117,1.2976,1.2782,1.2895,1.3219,1.3246,1.3012,1.2575,1.2501,1.2501,1.2476,1.2521,1.2562,1.2542,1.2515,1.2528,1.2556,1.2481,1.2568,1.2588,1.2523,1.2509,1.2588,1.2712,1.2732,1.2588,1.2773,1.2868,1.2749,1.3013,1.3123,1.284,1.2556,1.2722,1.2728,1.2881,1.2854,1.28,1.2813,1.2722,1.2735,1.2722,1.2622,1.2916,1.3104,1.3356,3.5845,3.5485,3.5177,3.487,3.4603,3.4482,3.2905,3.0635,3.0925,2.8951,2.545,2.188,2.1061,2.2374,2.087,2.019,2.0117,2.002,2.0028,2.0125,2.019,2.019,2.015,2.0263,2.0296,2.0247,2.0296,2.032,2.032,2.032,2.032,2.032,2.032,2.032,2.032,2.032,2.032,2.032,2.032,2.0271,2.015,1.9914,1.967,1.941,1.8972,1.8501,1.7845,1.723,1.6634,1.6046,1.541,1.4815,1.4455,1.4292,1.4299,1.4292,1.4251,1.4177,1.4263,1.4027,1.3905,1.3885,1.3593,1.3338,1.3403,1.3349,1.3322,1.3329,1.3363,1.3363,1.3302,1.3132,1.301,1.2829,1.3137,1.3162,1.2739,1.2474,1.2549,1.2467,1.2556,1.2508,1.2501,1.2501,1.2501,1.2515,1.2474,1.2725,1.2903,1.2786,1.2641,1.2574,1.2644,1.2583,1.2583,1.2617,1.2678,1.2601,1.2608,1.2752,1.2608,1.245,1.2621,1.2698,1.2712,1.2712,1.2637,1.2644,1.2561,1.2574,1.2568,1.2735,1.2983,1.3186,1.3288,3.5645,3.5231,3.5204,3.503,3.4776,3.475,3.3628,3.1968,3.293,3.1495,2.7836,2.4048,2.3041,2.3276,2.1379,2.0361,2.0385,2.0231,2.0214,2.0312,2.032,2.032,2.032,2.032,2.032,2.032,2.032,2.032,2.032,2.032,2.032,2.032,2.032,2.032,2.032,2.032,2.032,2.032,2.032,2.0239,2.006,1.9882,1.967,1.941,1.9021,1.859,1.8103,1.75,1.7081,1.7055,1.6016,1.5219,1.4639,1.4292,1.4299,1.4299,1.4299,1.4258,1.4345,1.4325,1.4256,1.4284,1.3961,1.3682,1.3459,1.3318,1.341,1.3397,1.3397,1.3397,1.337,1.3425,1.3132,1.2681,1.2813,1.3012,1.2554,1.244,1.2515,1.2522,1.2569,1.2556,1.2522,1.2447,1.246,1.2589,1.2574,1.2695,1.3144,1.2972,1.2615,1.2732,1.2657,1.261,1.2617,1.2651,1.2596,1.2494,1.2507,1.2507,1.2514,1.2507,1.2481,1.2542,1.2501,1.2501,1.2501,1.2501,1.2528,1.2562,1.2548,1.2575,1.2996,1.3267,1.3404,3.5458,3.5217,3.5204,3.5044,3.4817,3.4803,3.4603,3.395,3.3615,3.2376,2.9959,2.7556,2.5202,2.3671,2.1421,2.0409,2.0491,2.0361,2.0304,2.032,2.032,2.032,2.032,2.032,2.032,2.032,2.032,2.032,2.032,2.032,2.032,2.032,2.032,2.032,2.032,2.032,2.032,2.032,2.032,2.0239,2.0052,1.9882,1.9646,1.9337,1.9086,1.8801,1.846,1.8111,1.7587,1.7119,1.6845,1.6046,1.502,1.4646,1.4299,1.4299,1.4299,1.4299,1.4292,1.4285,1.4393,1.4263,1.4284,1.3968,1.3492,1.3345,1.3417,1.3403,1.3397,1.3397,1.3376,1.3432,1.3166,1.2625,1.2655,1.2651,1.2527,1.2454,1.2508,1.2535,1.2623,1.2651,1.261,1.2521,1.2601,1.2574,1.2562,1.2862,1.3269,1.3089,1.2881,1.28,1.2725,1.2678,1.2698,1.2712,1.2623,1.2556,1.2549,1.2542,1.2562,1.2562,1.2569,1.2501,1.2501,1.2508,1.2576,1.2583,1.2481,1.2534,1.2503,1.2609,1.2889,1.3173,1.3275,3.5271,3.5204,3.5204,3.5151,3.507,3.5057,3.4897,3.4643,3.4696,3.3239,3.0634,2.7961,2.5807,2.3662,2.143,2.0353,2.0401,2.0344,2.032,2.0328,2.032,2.032,2.032,2.032,2.032,2.032,2.032,2.032,2.032,2.032,2.032,2.032,2.032,2.032,2.032,2.032,2.032,2.032,2.032,2.0288,2.0206,1.9938,1.9727,1.9597,1.9216,1.8923,1.8801,1.8355,1.7997,1.7762,1.7158,1.6224,1.5204,1.4822,1.4646,1.4299,1.4299,1.4299,1.4299,1.4299,1.4285,1.4386,1.4263,1.3939,1.3442,1.3465,1.3345,1.3431,1.3403,1.3397,1.3376,1.3432,1.3186,1.2501,1.2468,1.2489,1.2529,1.2675,1.2766,1.2678,1.2705,1.2664,1.2725,1.2651,1.2691,1.2977,1.3116,1.3235,1.329,1.3311,1.3171,1.301,1.2888,1.2752,1.2759,1.2725,1.278,1.2562,1.2535,1.2501,1.2501,1.2501,1.2501,1.2501,1.2501,1.2542,1.2454,1.2507,1.2548,1.2648,1.2762,1.303,1.3139,1.3241,1.3329,3.5351,3.5351,3.5244,3.5204,3.5204,3.5204,3.5097,3.4937,3.516,3.4137,3.1696,2.689,2.4953,2.4565,2.1873,2.0369,2.0409,2.0361,2.0353,2.0401,2.0336,2.032,2.032,2.032,2.032,2.032,2.032,2.032,2.032,2.032,2.032,2.032,2.032,2.032,2.032,2.032,2.032,2.032,2.032,2.0288,2.0198,2.0011,1.9825,1.9662,1.9354,1.9126,1.898,1.8647,1.833,1.8014,1.7254,1.6418,1.5543,1.5168,1.4815,1.4646,1.4476,1.4299,1.4299,1.4299,1.4299,1.4272,1.4338,1.4007,1.3686,1.3573,1.3472,1.3519,1.3539,1.3539,1.3485,1.341,1.3157,1.2919,1.2903,1.2809,1.2795,1.2963,1.3089,1.2847,1.2868,1.2813,1.2725,1.2793,1.2793,1.3116,1.3047,1.3164,1.3253,1.3408,1.3288,1.3274,1.2969,1.2868,1.2813,1.2889,1.2936,1.2738,1.2549,1.2522,1.2501,1.2501,1.2501,1.2501,1.2501,1.2569,1.2481,1.2691,1.2745,1.2881,1.3051,1.3139,1.3241,1.3275,1.3349,3.5631,3.5591,3.5324,3.5204,3.5204,3.5204,3.5191,3.5191,3.5177,3.4807,3.2546,2.6839,2.4433,2.5791,2.2598,2.0853,2.0539,2.0393,2.0418,2.0491,2.0434,2.0361,2.0369,2.0369,2.0353,2.032,2.032,2.032,2.032,2.032,2.032,2.032,2.032,2.032,2.032,2.032,2.032,2.032,2.032,2.0247,2.0117,2.0068,1.9922,1.9605,1.9508,1.9337,1.9102,1.8956,1.868,1.8192,1.7523,1.6837,1.6295,1.5536,1.5197,1.4829,1.4476,1.4299,1.4299,1.4299,1.4299,1.4285,1.4359,1.4194,1.3899,1.3858,1.3797,1.3668,1.3736,1.3763,1.3492,1.3452,1.3385,1.3424,1.3207,1.3219,1.3325,1.3339,1.3178,1.301,1.3078,1.3105,1.2615,1.2794,1.2833,1.2814,1.2677,1.2893,1.3104,1.32,1.3349,1.3295,1.3064,1.3003,1.2956,1.2766,1.2834,1.2718,1.2651,1.2569,1.2522,1.2515,1.2542,1.2535,1.2556,1.2617,1.2561,1.2813,1.2935,1.3267,1.3377,1.3439,1.3473,1.3336,1.3356,3.5631,3.5605,3.5311,3.5204,3.5204,3.5204,3.5204,3.5204,3.5204,3.428,3.2424,3.1842,2.869,2.5466,2.3812,2.2214,2.0969,2.0418,2.0418,2.0572,2.0556,2.0523,2.0304,2.0515,2.0442,2.0336,2.032,2.032,2.032,2.0328,2.0328,2.032,2.0328,2.032,2.032,2.032,2.032,2.032,2.032,2.0304,2.0239,2.0117,2.002,1.9922,1.9662,1.9484,1.9345,1.9322,1.8929,1.8217,1.7932,1.727,1.6456,1.624,1.5653,1.4857,1.4653,1.4653,1.4299,1.4299,1.4299,1.4299,1.4258,1.4177,1.4201,1.4007,1.376,1.3831,1.3824,1.3838,1.3619,1.3606,1.3402,1.3356,1.3444,1.3446,1.3446,1.3446,1.3411,1.3152,1.3159,1.3105,1.2889,1.2889,1.3112,1.3078,1.3105,1.3166,1.3247,1.3268,1.3384,1.3268,1.3227,1.3159,1.3051,1.2854,1.2615,1.2523,1.2621,1.2644,1.2589,1.2542,1.2596,1.2637,1.2678,1.2732,1.2595,1.2741,1.3043,1.3295,1.3329,1.3356,1.3363,1.3383,1.339,3.5925,3.5792,3.5498,3.5311,3.5204,3.5204,3.5204,3.5204,3.5204,3.4544,3.3672,3.4478,3.1753,2.6195,2.4519,2.2723,2.0881,2.0515,2.0588,2.0815,2.0905,2.0815,2.0645,2.0531,2.0426,2.0336,2.032,2.0369,2.0409,2.0361,2.0361,2.0409,2.0361,2.032,2.032,2.032,2.032,2.032,2.032,2.032,2.0312,2.0223,2.0125,2.006,1.9833,1.9695,1.95,1.938,1.8937,1.8282,1.8062,1.7676,1.6994,1.6595,1.5973,1.5113,1.4914,1.4544,1.4306,1.4299,1.4299,1.4299,1.4299,1.44,1.4297,1.4116,1.3928,1.3966,1.3994,1.4,1.3939,1.3885,1.3844,1.3804,1.381,1.3672,1.3498,1.3424,1.337,1.3295,1.3261,1.3241,1.3152,1.3139,1.3308,1.3329,1.3356,1.3404,1.3439,1.3432,1.3439,1.3322,1.3302,1.3207,1.3132,1.2963,1.2702,1.2609,1.2795,1.2807,1.2745,1.2684,1.2725,1.2793,1.2813,1.2895,1.2781,1.2926,1.3124,1.3356,1.3397,1.3417,1.341,1.3431,1.3437,3.6353,3.6086,3.5765,3.5485,3.5271,3.5204,3.5204,3.5204,3.5204,3.5191,3.4966,3.5137,3.2648,2.8153,2.5912,2.3465,2.1506,2.0914,2.0807,2.0994,2.1108,2.101,2.084,2.0531,2.0418,2.0344,2.0336,2.0442,2.0507,2.0426,2.0442,2.0499,2.0401,2.0328,2.032,2.032,2.032,2.032,2.032,2.032,2.032,2.0296,2.0231,2.0133,2.0052,1.9825,1.9532,1.9413,1.9027,1.8298,1.8225,1.8038,1.7754,1.6795,1.6114,1.5786,1.5019,1.4613,1.4326,1.4299,1.4299,1.4299,1.4299,1.4251,1.4345,1.4211,1.4224,1.4109,1.4224,1.4197,1.429,1.4333,1.4298,1.427,1.4295,1.4013,1.362,1.3331,1.3397,1.3397,1.3397,1.3397,1.3397,1.3397,1.339,1.3446,1.3466,1.348,1.3336,1.3342,1.3349,1.337,1.3315,1.3227,1.3159,1.3085,1.2856,1.2849,1.3078,1.3192,1.3003,1.2963,1.2956,1.2976,1.3017,1.2983,1.3005,1.3078,1.3264,1.3298,1.3378,1.3325,1.3444,1.3478,1.3498,3.6473,3.6366,3.5845,3.5591,3.5498,3.5297,3.5204,3.5204,3.5204,3.5204,3.5191,3.5177,3.3409,3.0764,2.8099,2.5922,2.3376,2.1745,2.0856,2.0889,2.0937,2.107,2.1102,2.0873,2.0564,2.0418,2.0474,2.0556,2.0572,2.0556,2.0556,2.0556,2.0426,2.032,2.032,2.032,2.032,2.032,2.032,2.032,2.032,2.032,2.0296,2.0239,2.0133,1.9882,1.9589,1.9443,1.9405,1.9052,1.8732,1.829,1.7901,1.738,1.6438,1.568,1.5241,1.4819,1.451,1.4299,1.4299,1.4299,1.4299,1.4285,1.4265,1.4272,1.4285,1.4251,1.4278,1.4278,1.4238,1.4393,1.4352,1.4297,1.4305,1.4145,1.3579,1.3392,1.3431,1.341,1.341,1.3403,1.3403,1.3403,1.3403,1.3403,1.3397,1.3397,1.3397,1.3397,1.3397,1.3397,1.337,1.3295,1.3268,1.3207,1.3166,1.297,1.3186,1.3384,1.3356,1.3322,1.3281,1.3166,1.3241,1.3224,1.3372,1.3452,1.3641,1.3506,1.3485,1.3392,1.3498,1.3532,1.3755,3.6553,3.6273,3.5965,3.5672,3.5431,3.5257,3.5204,3.5204,3.5204,3.5204,3.5204,3.5204,3.3896,3.171,3.0199,2.7984,2.4646,2.2224,2.1059,2.101,2.0986,2.107,2.1085,2.0881,2.058,2.0377,2.0507,2.0588,2.0596,2.0604,2.0588,2.058,2.0409,2.0328,2.032,2.032,2.032,2.032,2.032,2.032,2.032,2.032,2.032,2.0288,2.015,1.9922,1.9678,1.9549,1.9378,1.9298,1.8777,1.8501,1.8134,1.739,1.6574,1.5956,1.5167,1.4868,1.4367,1.4299,1.4299,1.4299,1.4299,1.4299,1.4299,1.4299,1.4299,1.4299,1.4299,1.4299,1.4299,1.4292,1.4299,1.4265,1.4277,1.4132,1.372,1.3519,1.3512,1.3512,1.3519,1.3512,1.3505,1.3444,1.3403,1.3397,1.3397,1.3397,1.3397,1.3397,1.3397,1.3397,1.3397,1.3383,1.337,1.3342,1.3302,1.3288,1.3308,1.3329,1.3322,1.3288,1.3411,1.3322,1.3403,1.3546,1.3512,1.3763,1.3933,1.3858,1.3789,1.3734,1.3546,1.3559,1.381,3.6633,3.6139,3.6099,3.5752,3.5297,3.5217,3.5204,3.5204,3.5204,3.5204,3.5204,3.5204,3.4121,3.2548,3.1529,2.8978,2.5221,2.2437,2.1238,2.1035,2.1075,2.0864,2.0857,2.0604,2.0588,2.0401,2.0564,2.0653,2.0694,2.0645,2.0669,2.0612,2.0418,2.0328,2.032,2.032,2.032,2.032,2.032,2.032,2.032,2.032,2.032,2.0288,2.0206,2.0003,1.9792,1.9638,1.9467,1.9256,1.8915,1.848,1.8105,1.7327,1.6554,1.6249,1.5476,1.4778,1.4401,1.4319,1.4299,1.4299,1.4299,1.4299,1.4299,1.4299,1.4299,1.4299,1.4299,1.4299,1.4299,1.4299,1.4299,1.4272,1.4345,1.4089,1.4027,1.3838,1.3736,1.3654,1.3614,1.358,1.3372,1.3325,1.3437,1.3397,1.3403,1.3397,1.3397,1.3397,1.3397,1.3397,1.3397,1.3397,1.339,1.339,1.3363,1.3363,1.339,1.3397,1.3397,1.3363,1.3342,1.3464,1.3566,1.3675,1.3729,1.3756,1.3892,1.4154,1.395,1.3587,1.3587,1.3593,1.3878,3.674,3.6406,3.6166,3.5872,3.5538,3.5297,3.5204,3.5204,3.5204,3.5204,3.5204,3.5204,3.498,3.4095,3.2361,2.9123,2.5496,2.2892,2.1439,2.101,2.1027,2.0864,2.0572,2.0645,2.0686,2.0857,2.0947,2.0872,2.0921,2.0897,2.0799,2.0734,2.0491,2.0344,2.0328,2.032,2.0328,2.0344,2.0336,2.0328,2.0344,2.0328,2.032,2.032,2.0271,2.0101,1.9865,1.9752,1.9597,1.9272,1.8915,1.8544,1.8216,1.76,1.6987,1.642,1.5723,1.5035,1.4502,1.4367,1.4312,1.4299,1.4299,1.4299,1.4299,1.4299,1.4299,1.4299,1.4299,1.4299,1.4299,1.4299,1.4299,1.4265,1.4366,1.427,1.4249,1.4201,1.4112,1.3858,1.3749,1.3654,1.3472,1.3412,1.3318,1.3437,1.3417,1.341,1.3397,1.3397,1.3397,1.3397,1.3397,1.3397,1.3397,1.3397,1.3383,1.3383,1.3397,1.3397,1.3397,1.3397,1.3437,1.3492,1.3559,1.3641,1.3688,1.3729,1.3709,1.3823,1.3634,1.362,1.3654,1.3695,1.4016,3.6553,3.6259,3.5965,3.5672,3.5404,3.5257,3.5204,3.5204,3.5204,3.5204,3.5204,3.5204,3.5204,3.498,3.4121,3.0881,2.7002,2.4201,2.2527,2.1475,2.097,2.0889,2.058,2.071,2.1013,2.1078,2.097,2.0978,2.0994,2.1002,2.0897,2.071,2.0523,2.0418,2.0336,2.032,2.0377,2.02,2.0377,2.0369,2.0216,2.0377,2.0328,2.032,2.0312,2.0182,1.9979,1.9817,1.9662,1.9378,1.9045,1.8649,1.828,1.8089,1.7452,1.668,1.5993,1.5146,1.445,1.4316,1.4236,1.4401,1.4346,1.4306,1.4299,1.4299,1.4299,1.4299,1.4299,1.4299,1.4299,1.4299,1.4299,1.4292,1.4231,1.4373,1.4366,1.4366,1.4129,1.4048,1.3966,1.3892,1.3666,1.3566,1.3405,1.3318,1.3451,1.3437,1.3431,1.3424,1.3431,1.3437,1.3444,1.3464,1.3458,1.3444,1.3437,1.3431,1.3397,1.3397,1.3397,1.3397,1.3397,1.3424,1.3505,1.3593,1.3641,1.3844,1.3661,1.3485,1.3459,1.3465,1.3552,1.3653,1.396,3.642,3.6139,3.5832,3.5551,3.5297,3.5217,3.5204,3.5204,3.5204,3.5204,3.5204,3.5204,3.5204,3.498,3.4332,3.2173,2.8726,2.6146,2.3647,2.2198,2.1267,2.0954,2.0824,2.0848,2.0905,2.1275,2.1157,2.11,2.1059,2.1067,2.0945,2.0791,2.0677,2.0539,2.0418,2.0353,2.024,2.0264,2.0208,2.02,2.0248,2.0192,2.032,2.032,2.032,2.0239,2.0052,1.9938,1.9735,1.9484,1.9207,1.8956,1.8576,1.8375,1.7946,1.6778,1.6117,1.5441,1.4774,1.441,1.4489,1.4296,1.4373,1.4319,1.4299,1.4299,1.4299,1.4299,1.4299,1.4299,1.4299,1.4299,1.4299,1.4299,1.4299,1.4292,1.4278,1.4272,1.4265,1.4211,1.4163,1.4089,1.3994,1.3686,1.3512,1.3485,1.3445,1.3432,1.3412,1.3331,1.3492,1.3492,1.3505,1.3539,1.3365,1.3345,1.3338,1.3338,1.3444,1.3397,1.3397,1.3397,1.3403,1.3417,1.3451,1.3532,1.358,1.3775,1.3587,1.3418,1.3425,1.3512,1.3838,1.3939,1.4222,3.6714,3.642,3.6126,3.5845,3.5538,3.5297,3.5204,3.5204,3.5204,3.5204,3.5204,3.5204,3.5204,3.4768,3.3248,3.196,3.0025,2.7207,2.4759,2.3755,2.2058,2.0883,2.0515,2.1181,2.1124,2.1415,2.1287,2.1343,2.1262,2.1181,2.1116,2.0994,2.0767,2.058,2.0564,2.0458,2.0208,2.032,2.0208,2.0344,2.0353,2.0336,2.0328,2.032,2.0312,2.0255,2.0109,2.002,1.9857,1.9348,1.9345,1.9142,1.9134,1.8631,1.7915,1.7177,1.6449,1.6059,1.5257,1.4874,1.4543,1.433,1.4387,1.4319,1.4299,1.4299,1.4299,1.4299,1.4299,1.4299,1.4299,1.4299,1.4299,1.4299,1.4299,1.4299,1.4299,1.4299,1.4299,1.4292,1.4231,1.4345,1.427,1.3946,1.364,1.3455,1.3442,1.3422,1.3383,1.3472,1.3425,1.3607,1.3627,1.3485,1.3485,1.3452,1.3439,1.3425,1.3372,1.3464,1.3492,1.3345,1.3437,1.3458,1.3478,1.3492,1.3526,1.3539,1.3512,1.3392,1.3459,1.3804,1.4174,1.4256,1.4318,3.642,3.6006,3.5872,3.5658,3.5391,3.5244,3.5204,3.5204,3.5204,3.5204,3.5204,3.5204,3.5204,3.498,3.3896,3.2823,3.1308,2.8296,2.589,2.4477,2.2544,2.1205,2.0955,2.1205,2.1205,2.1303,2.1335,2.1368,2.1352,2.1311,2.1238,2.1108,2.0978,2.0848,2.0742,2.0661,2.0457,2.0457,2.0353,2.0216,2.0353,2.032,2.032,2.032,2.032,2.0271,2.0206,2.0093,2.0151,1.9889,1.9708,1.9462,1.9216,1.8753,1.8185,1.7473,1.6898,1.6212,1.5417,1.5167,1.4679,1.439,1.4263,1.4306,1.4299,1.4299,1.4299,1.4299,1.4299,1.4299,1.4299,1.4299,1.4299,1.4299,1.4299,1.4299,1.4299,1.4299,1.4299,1.4299,1.4292,1.4231,1.4352,1.4249,1.3973,1.396,1.3912,1.3851,1.3824,1.3777,1.3749,1.3749,1.377,1.3626,1.3613,1.3586,1.3409,1.3396,1.3389,1.3506,1.3499,1.3485,1.358,1.3539,1.3566,1.3559,1.3358,1.3331,1.3331,1.3593,1.3695,1.4057,1.4249,1.4352,1.4231,3.6059,3.5538,3.5672,3.5578,3.5297,3.5231,3.5204,3.5204,3.5204,3.5204,3.5204,3.5204,3.5204,3.5204,3.498,3.4108,3.2598,3.0239,2.8296,2.6077,2.3647,2.1908,2.1472,2.123,2.1278,2.1384,2.1368,2.1384,2.1384,2.136,2.1303,2.1189,2.1116,2.1043,2.0929,2.0783,2.0497,2.0409,2.0385,2.0272,2.0353,2.032,2.032,2.032,2.032,2.032,2.0296,2.0206,2.0258,2.0207,1.9872,1.9435,1.9314,1.8842,1.8472,1.7741,1.7177,1.6292,1.5659,1.532,1.4998,1.4665,1.4309,1.4299,1.4299,1.4299,1.4299,1.4299,1.4299,1.4299,1.4299,1.4299,1.4299,1.4299,1.4299,1.4299,1.4299,1.4299,1.4299,1.4299,1.4299,1.4299,1.4238,1.4359,1.4311,1.429,1.4395,1.4305,1.427,1.4091,1.3919,1.3926,1.3973,1.4,1.3814,1.378,1.3581,1.3535,1.3528,1.364,1.3763,1.3756,1.3892,1.3865,1.3675,1.3506,1.3499,1.3412,1.3351,1.3539,1.3713,1.4153,1.429,1.4231,1.4292,3.5765,3.5271,3.5805,3.5845,3.5551,3.5311,3.5204,3.5204,3.5204,3.5204,3.5204,3.5191,3.5191,3.5191,3.5177,3.4966,3.4755,3.2598,3.1095,2.9371,2.6981,2.3674,2.2369,2.1521,2.1571,2.1376,2.1384,2.1384,2.1384,2.1384,2.1368,2.1352,2.123,2.1148,2.0994,2.0799,2.0604,2.0312,2.0296,2.0264,2.0361,2.032,2.032,2.032,2.032,2.032,2.032,2.0288,2.0356,2.0273,1.9971,1.9597,1.9256,1.8939,1.856,1.7881,1.7253,1.6372,1.5737,1.5417,1.5073,1.4706,1.4509,1.4319,1.4299,1.4299,1.4299,1.4299,1.4299,1.4299,1.4299,1.4299,1.4299,1.4299,1.4299,1.4299,1.4299,1.4299,1.4299,1.4299,1.4299,1.4299,1.4299,1.4238,1.4224,1.438,1.438,1.429,1.4283,1.427,1.4102,1.4122,1.419,1.4224,1.4231,1.4183,1.4082,1.4027,1.4014,1.4071,1.4117,1.4131,1.4077,1.3988,1.3961,1.3633,1.3469,1.3579,1.3593,1.3594,1.3713,1.4095,1.4331,1.4258,1.4292,3.5565,3.5244,3.5631,3.5631,3.5364,3.5244,3.5204,3.5204,3.5204,3.5204,3.5191,3.5191,3.5097,3.503,3.5124,3.5084,3.4767,3.2761,3.1935,3.0881,2.8285,2.4976,2.3222,2.2839,2.29,2.1823,2.1384,2.1384,2.1384,2.1384,2.1384,2.1352,2.1295,2.1222,2.1051,2.0799,2.058,2.0483,2.0434,2.0377,2.0353,2.032,2.032,2.032,2.032,2.032,2.032,2.032,2.0381,2.0209,2.0061,1.9638,1.9386,1.9045,1.8503,1.7858,1.7192,1.6481,1.5828,1.5286,1.5053,1.4638,1.4303,1.4401,1.4346,1.4312,1.4299,1.4299,1.4306,1.4319,1.4299,1.4299,1.4299,1.4299,1.4299,1.4299,1.4299,1.4299,1.4299,1.4299,1.4299,1.4299,1.4299,1.4292,1.4292,1.4285,1.4292,1.4285,1.4251,1.4231,1.4217,1.4211,1.4265,1.4285,1.4292,1.4251,1.4386,1.4352,1.4318,1.4381,1.4277,1.4055,1.3948,1.4014,1.4098,1.396,1.3787,1.3753,1.38,1.3894,1.3934,1.4304,1.438,1.4292,1.4299,3.5378,3.5231,3.5404,3.5391,3.5204,3.5204,3.5204,3.5191,3.511,3.5294,3.5084,3.5137,3.5097,3.5004,3.507,3.511,3.4597,3.3595,3.301,3.196,3.0216,2.7854,2.6353,2.5052,2.4418,2.2253,2.2253,2.2472,2.1384,2.1384,2.1384,2.1368,2.1327,2.1213,2.1083,2.1013,2.0799,2.0491,2.0409,2.032,2.032,2.032,2.032,2.032,2.032,2.032,2.032,2.0312,2.0397,2.0217,2.0045,1.9662,1.9419,1.8986,1.8427,1.7912,1.7188,1.662,1.592,1.532,1.5073,1.4733,1.4437,1.4536,1.4455,1.4421,1.4462,1.4373,1.4367,1.4346,1.4319,1.4299,1.4299,1.4299,1.4299,1.4299,1.4299,1.4299,1.4299,1.4299,1.4299,1.4299,1.4299,1.4299,1.4299,1.4299,1.4299,1.4299,1.4285,1.4272,1.4278,1.4272,1.4285,1.4299,1.4292,1.4272,1.4251,1.4251,1.4393,1.4373,1.417,1.4088,1.3885,1.4082,1.4215,1.4109,1.4122,1.3928,1.4116,1.415,1.4352,1.4373,1.4224,1.4299,1.4299,3.5204,3.5204,3.5217,3.5217,3.5204,3.5204,3.5204,3.5164,3.516,3.5052,3.5092,3.5057,3.5151,3.5124,3.5137,3.5124,3.5097,3.4926,3.4768,3.4121,3.2623,3.2595,3.2,2.9992,2.6373,2.3128,2.2909,2.3119,2.1384,2.1384,2.1384,2.1538,2.1657,2.1308,2.1075,2.0996,2.0734,2.0361,2.0344,2.0353,2.0353,2.0344,2.032,2.032,2.032,2.032,2.032,2.032,2.0198,2.0209,2.0094,1.9695,1.9402,1.9191,1.867,1.802,1.7479,1.6914,1.6173,1.5514,1.5204,1.5114,1.4808,1.4706,1.4706,1.4692,1.4611,1.4475,1.4289,1.4236,1.436,1.4299,1.4299,1.4299,1.4299,1.4299,1.4299,1.4299,1.4299,1.4299,1.4299,1.4299,1.4299,1.4299,1.4299,1.4299,1.4299,1.4299,1.4299,1.4299,1.4299,1.4299,1.4299,1.4299,1.4299,1.4299,1.4292,1.4299,1.4285,1.4258,1.4238,1.4258,1.4211,1.429,1.4325,1.4204,1.4251,1.4278,1.4251,1.4224,1.4251,1.4278,1.4292,1.4299,1.4299,3.5204,3.5204,3.5204,3.5204,3.5204,3.5204,3.5204,3.5151,3.4897,3.475,3.4776,3.5106,3.5133,3.4963,3.5097,3.511,3.4977,3.5164,3.5204,3.498,3.4121,3.4502,3.394,3.1928,2.8792,2.6463,2.5583,2.3774,2.1384,2.1384,2.1384,2.1538,2.2147,2.2156,2.1201,2.0629,2.0547,2.0515,2.0499,2.0288,2.0483,2.0393,2.032,2.032,2.032,2.032,2.032,2.032,2.0231,2.0291,2.0011,1.9817,1.938,1.9195,1.8869,1.8174,1.7434,1.6681,1.598,1.5432,1.5316,1.516,1.5183,1.5059,1.4956,1.4746,1.4652,1.457,1.4376,1.4289,1.434,1.4306,1.4299,1.4299,1.4299,1.4299,1.4299,1.4299,1.4299,1.4299,1.4299,1.4299,1.4299,1.4299,1.4299,1.4299,1.4299,1.4299,1.4299,1.4299,1.4299,1.4299,1.4299,1.4299,1.4299,1.4299,1.4299,1.4299,1.4299,1.4285,1.4278,1.4272,1.4258,1.4386,1.4251,1.4299,1.4299,1.4299,1.4299,1.4292,1.4299,1.4299,1.4299,1.4299,1.4299,3.5137,3.5044,3.5044,3.4977,3.4937,3.511,3.5151,3.5044,3.4608,3.4515,3.479,3.5092,3.516,3.499,3.507,3.5137,3.4937,3.5097,3.5204,3.5204,3.5204,3.5139,3.4315,3.3161,3.1499,2.9378,2.6691,2.4201,2.3983,2.2253,2.1513,2.1774,2.3036,2.2425,2.123,2.0515,2.0886,2.1113,2.1348,2.0507,2.0499,2.0442,2.0328,2.032,2.032,2.032,2.032,2.0312,2.0288,2.0231,2.0125,1.9979,1.9597,1.9211,1.8867,1.7931,1.7137,1.6433,1.5791,1.5448,1.5527,1.565,1.543,1.5252,1.5121,1.493,1.4835,1.4746,1.4484,1.4356,1.4421,1.4394,1.436,1.436,1.4326,1.4326,1.4326,1.4326,1.4319,1.4319,1.4299,1.4299,1.4299,1.4299,1.4299,1.4299,1.4299,1.4299,1.4299,1.4299,1.4299,1.4299,1.4299,1.4299,1.4299,1.4299,1.4299,1.4299,1.4299,1.4299,1.4299,1.4285,1.4292,1.4299,1.4299,1.4299,1.4299,1.4299,1.4299,1.4299,1.4299,1.4299,1.4299,1.4299,1.4299,3.503,3.4776,3.4763,3.4603,3.4456,3.487,3.516,3.5193,3.4488,3.4696,3.5207,3.5173,3.503,3.5151,3.5177,3.5151,3.5164,3.5191,3.5191,3.5204,3.5204,3.5126,3.4502,3.3349,3.2319,3.1558,2.9356,2.6796,2.7434,2.4787,2.2458,2.2208,2.4347,2.3994,2.3034,2.2308,2.23,2.2214,2.1407,2.0767,2.0547,2.0418,2.0336,2.032,2.032,2.032,2.032,2.032,2.0247,2.0174,2.0093,2.0184,1.9825,1.9235,1.8552,1.7606,1.6581,1.6179,1.5967,1.5798,1.5744,1.589,1.5554,1.5371,1.5221,1.514,1.5038,1.4943,1.4855,1.4524,1.4397,1.4343,1.4296,1.4256,1.4373,1.4367,1.4367,1.4367,1.4353,1.434,1.4312,1.4299,1.4299,1.4299,1.4299,1.4299,1.4299,1.4299,1.4299,1.4299,1.4299,1.4299,1.4299,1.4299,1.4299,1.4299,1.4299,1.4299,1.4299,1.4299,1.4299,1.4299,1.4299,1.4299,1.4299,1.4299,1.4299,1.4299,1.4299,1.4299,1.4299,1.4299,1.4299,1.4299,1.4299,3.503,3.4763,3.4763,3.4589,3.4336,3.4282,3.4215,3.4367,3.4612,3.4925,3.4456,3.4541,3.4904,3.5151,3.499,3.5044,3.5137,3.5204,3.5204,3.5204,3.5204,3.5244,3.4821,3.4147,3.2835,3.1095,2.9799,2.8726,2.8253,2.6233,2.5788,2.6143,2.7247,2.737,2.6815,2.6089,2.4356,2.2328,2.1272,2.0824,2.0547,2.0418,2.0353,2.032,2.032,2.032,2.032,2.032,2.0271,2.0255,2.0247,2.0373,2.0209,1.9394,1.8629,1.7348,1.6446,1.6042,1.6062,1.6001,1.5934,1.6083,1.5959,1.5594,1.5438,1.5309,1.5221,1.5092,1.4997,1.4855,1.4557,1.449,1.4443,1.439,1.4536,1.4529,1.4529,1.4529,1.4509,1.4401,1.4373,1.4299,1.4299,1.4299,1.4299,1.4299,1.4299,1.4299,1.4299,1.4299,1.4299,1.4299,1.4299,1.4299,1.4299,1.4299,1.4299,1.4299,1.4299,1.4299,1.4299,1.4299,1.4299,1.4299,1.4299,1.4299,1.4299,1.4299,1.4299,1.4299,1.4299,1.4299,1.4299,1.4299,1.4299,3.4683,3.4429,3.4416,3.4242,3.3948,3.3774,3.3694,3.3721,3.4287,3.4286,3.4295,3.4528,3.477,3.4937,3.4977,3.5044,3.5191,3.5204,3.5204,3.5204,3.5204,3.5204,3.4993,3.4319,3.2998,3.1425,3.0586,3.0239,3.0136,2.9437,2.8734,2.7247,2.9746,2.9871,2.9399,2.8892,2.707,2.3868,2.128,2.084,2.0539,2.0418,2.0353,2.032,2.032,2.032,2.032,2.032,2.032,2.032,2.032,2.0279,2.0117,1.9308,1.8119,1.6876,1.6405,1.6185,1.6178,1.6178,1.6083,1.6192,1.6131,1.5771,1.5588,1.5425,1.5276,1.5126,1.5072,1.519,1.4909,1.4821,1.478,1.474,1.4733,1.4726,1.4726,1.4915,1.4638,1.4509,1.4414,1.4326,1.4299,1.4299,1.4299,1.4299,1.4299,1.4299,1.4299,1.4299,1.4299,1.4299,1.4299,1.4299,1.4299,1.4299,1.4299,1.4299,1.4299,1.4299,1.4299,1.4299,1.4299,1.4299,1.4299,1.4299,1.4299,1.4299,1.4299,1.4299,1.4299,1.4299,1.4299,1.4299,1.4299,3.4162,3.3895,3.3868,3.3721,3.344,3.3427,3.344,3.344,3.3479,3.3771,3.4282,3.4783,3.485,3.475,3.491,3.5044,3.5124,3.5151,3.5204,3.5191,3.5204,3.5204,3.4544,3.3235,3.3383,3.2998,3.2324,3.1802,3.3416,3.2458,3.0196,2.7873,2.9959,3.0805,3.0089,3.1916,2.9979,2.5012,2.196,2.0434,2.0491,2.0418,2.032,2.032,2.032,2.032,2.032,2.032,2.032,2.032,2.032,2.0312,1.9537,1.8983,1.78,1.6877,1.6368,1.6341,1.6105,1.6085,1.6218,1.6137,1.6083,1.5886,1.5676,1.5533,1.5377,1.5194,1.512,1.5092,1.5011,1.4991,1.4957,1.4943,1.4936,1.495,1.497,1.4896,1.4719,1.4597,1.4489,1.4407,1.4367,1.4373,1.434,1.4319,1.4299,1.4299,1.4299,1.4299,1.4299,1.4299,1.4299,1.4299,1.4299,1.4299,1.4299,1.4299,1.4299,1.4299,1.4299,1.4299,1.4299,1.4299,1.4299,1.4299,1.4299,1.4299,1.4299,1.4299,1.4299,1.4299,1.4299,1.4299,1.4299,3.4148,3.3868,3.3627,3.3467,3.3414,3.3414,3.3414,3.3414,3.3467,3.3694,3.3975,3.4326,3.4488,3.4496,3.4803,3.4937,3.4923,3.5124,3.5191,3.5177,3.5177,3.5204,3.5191,3.4505,3.4413,3.4268,3.3758,3.3053,3.3901,3.3394,3.3045,3.2468,3.2993,3.211,3.1788,3.4095,3.1414,2.6151,2.2282,2.0553,2.0377,2.0377,2.032,2.032,2.032,2.032,2.032,2.032,2.032,2.032,2.032,1.9831,1.8876,1.8594,1.7667,1.6749,1.6503,1.6476,1.6429,1.6374,1.6286,1.6218,1.6117,1.5906,1.5737,1.5635,1.5493,1.5296,1.5174,1.5153,1.514,1.5133,1.5133,1.5126,1.532,1.5167,1.5194,1.5004,1.4808,1.4699,1.4584,1.4523,1.4296,1.4256,1.4394,1.4353,1.4312,1.4299,1.4299,1.4299,1.4299,1.4299,1.4299,1.4299,1.4299,1.4299,1.4299,1.4299,1.4299,1.4299,1.4299,1.4326,1.4346,1.4312,1.4299,1.4312,1.4319,1.4299,1.4299,1.4299,1.4299,1.4299,1.4299,1.4299,1.4299,3.3814,3.3654,3.348,3.3414,3.3414,3.3414,3.3414,3.3414,3.3414,3.3507,3.3721,3.4165,3.4393,3.4402,3.475,3.4803,3.483,3.507,3.5057,3.5044,3.511,3.5191,3.5177,3.507,3.4937,3.4763,3.4576,3.4209,3.4148,3.4162,3.3944,3.4028,3.3921,3.4028,3.4082,3.3792,3.1912,2.7079,2.2626,2.0745,2.032,2.032,2.032,2.032,2.032,2.032,2.032,2.032,2.032,2.0111,1.9895,1.9245,1.8522,1.8233,1.7583,1.6927,1.6673,1.6598,1.6735,1.6449,1.6334,1.6239,1.6151,1.594,1.5825,1.571,1.552,1.5337,1.5201,1.516,1.5201,1.5208,1.5201,1.5194,1.543,1.5667,1.5389,1.5031,1.4923,1.4862,1.4753,1.4645,1.443,1.443,1.437,1.4269,1.4401,1.4346,1.4333,1.4306,1.4306,1.4306,1.4306,1.4306,1.4299,1.4299,1.4299,1.4299,1.4306,1.4312,1.4326,1.4373,1.4394,1.436,1.434,1.4353,1.4353,1.4312,1.4299,1.4299,1.4299,1.4299,1.4299,1.4299,1.4299,3.3427,3.3414,3.3414,3.3414,3.3414,3.3414,3.3414,3.3414,3.3414,3.3414,3.3507,3.4002,3.4215,3.4402,3.4843,3.479,3.479,3.483,3.4817,3.4817,3.4923,3.491,3.5092,3.5052,3.467,3.4469,3.4269,3.4055,3.3828,3.3961,3.3961,3.3668,3.3774,3.4015,3.3828,3.3324,3.1812,2.7058,2.3193,2.0737,2.032,2.032,2.032,2.032,2.032,2.032,2.032,2.032,2.032,1.9895,1.9469,1.8828,1.8388,1.8106,1.7509,1.7065,1.6775,1.6886,1.6797,1.6912,1.6543,1.6198,1.6117,1.6022,1.6096,1.5744,1.5554,1.5438,1.5303,1.5248,1.5289,1.5289,1.5276,1.5289,1.554,1.5737,1.5389,1.5252,1.5018,1.4984,1.4909,1.4794,1.4584,1.4577,1.451,1.441,1.4316,1.4263,1.4387,1.4346,1.4326,1.4326,1.4333,1.4319,1.4299,1.4306,1.4312,1.4326,1.4333,1.434,1.4373,1.4482,1.4502,1.4394,1.4387,1.4401,1.436,1.4306,1.4299,1.4299,1.4299,1.4299,1.4299,1.4299,1.4299,3.3414,3.3414,3.3414,3.3414,3.3414,3.3414,3.3414,3.3414,3.3414,3.3414,3.3494,3.3492,3.3612,3.3641,3.4482,3.4616,3.4282,3.4442,3.4482,3.4442,3.4563,3.4536,3.4523,3.4729,3.4501,3.4055,3.3612,3.3601,3.3641,3.3855,3.3935,3.3774,3.3814,3.3921,3.3895,3.3159,3.1445,2.6982,2.3193,2.032,2.032,2.032,2.032,2.032,2.032,2.032,2.032,2.032,2.032,1.9895,1.9261,1.8634,1.841,1.797,1.7356,1.7099,1.6809,1.6714,1.6817,1.6673,1.6495,1.6225,1.6137,1.6029,1.5906,1.5784,1.5655,1.5622,1.5513,1.5267,1.5267,1.5221,1.5391,1.5418,1.5657,1.5526,1.5194,1.5106,1.5224,1.5045,1.5038,1.4964,1.5114,1.4909,1.4875,1.4753,1.4604,1.4557,1.4563,1.4468,1.436,1.4367,1.438,1.4326,1.4299,1.4326,1.434,1.4353,1.4401,1.4468,1.4557,1.4652,1.4631,1.4482,1.4441,1.4455,1.4394,1.4299,1.4299,1.4299,1.4299,1.4299,1.4299,1.4299,1.4299]}]]